<?xml version="1.0" encoding="UTF-8" standalone="no" ?>
<gpx xmlns="http://www.topografix.com/GPX/1/1" xmlns:xsi="http://www.w3.org/2001/XMLSchema-instance" xsi:schemaLocation="http://www.topografix.com/GPX/1/1 http://www.topografix.com/GPX/1/1/gpx.xsd" version="1.1" creator="VisuGPX - https://www.visugpx.com">
  <metadata>
    <name>Kerlouarnec/Les Plomarc\'h</name>
    <desc><![CDATA[Départ parking de Kerlouarnec, près du cimetière pour une balade près de Douarnenez, entre Terre et Mer, la mer est omniprésente ici de quel côté que l\'on aille.
bonne balade
ch]]></desc>
  </metadata>
  <trk>
    <name><![CDATA[Kerlouarnec/Les Plomarc'h]]></name>
    <trkseg>
      <trkpt lat="48.08635" lon="-4.29879">
        <ele>41.473999023438</ele>
        <time>2015-12-19T13:06:34Z</time>
      </trkpt>
      <trkpt lat="48.08632" lon="-4.29885">
        <ele>42.916015625</ele>
        <time>2015-12-19T13:06:40Z</time>
      </trkpt>
      <trkpt lat="48.08631" lon="-4.29885">
        <ele>43.396606445312</ele>
        <time>2015-12-19T13:06:42Z</time>
      </trkpt>
      <trkpt lat="48.08624" lon="-4.2988">
        <ele>46.76123046875</ele>
        <time>2015-12-19T13:06:46Z</time>
      </trkpt>
      <trkpt lat="48.0861" lon="-4.29866">
        <ele>52.529174804688</ele>
        <time>2015-12-19T13:06:55Z</time>
      </trkpt>
      <trkpt lat="48.08596" lon="-4.29852">
        <ele>62.142333984375</ele>
        <time>2015-12-19T13:07:02Z</time>
      </trkpt>
      <trkpt lat="48.08587" lon="-4.29843">
        <ele>66.46826171875</ele>
        <time>2015-12-19T13:07:08Z</time>
      </trkpt>
      <trkpt lat="48.08582" lon="-4.29844">
        <ele>66.948974609375</ele>
        <time>2015-12-19T13:07:12Z</time>
      </trkpt>
      <trkpt lat="48.08577" lon="-4.29843">
        <ele>67.910278320312</ele>
        <time>2015-12-19T13:07:15Z</time>
      </trkpt>
      <trkpt lat="48.08563" lon="-4.29827">
        <ele>69.352294921875</ele>
        <time>2015-12-19T13:07:28Z</time>
      </trkpt>
      <trkpt lat="48.08555" lon="-4.29829">
        <ele>67.910278320312</ele>
        <time>2015-12-19T13:07:34Z</time>
      </trkpt>
      <trkpt lat="48.08552" lon="-4.29838">
        <ele>67.4296875</ele>
        <time>2015-12-19T13:07:39Z</time>
      </trkpt>
      <trkpt lat="48.08542" lon="-4.29835">
        <ele>65.0263671875</ele>
        <time>2015-12-19T13:07:47Z</time>
      </trkpt>
      <trkpt lat="48.08533" lon="-4.29831">
        <ele>66.948974609375</ele>
        <time>2015-12-19T13:07:53Z</time>
      </trkpt>
      <trkpt lat="48.08525" lon="-4.2983">
        <ele>67.4296875</ele>
        <time>2015-12-19T13:07:59Z</time>
      </trkpt>
      <trkpt lat="48.08515" lon="-4.2983">
        <ele>66.46826171875</ele>
        <time>2015-12-19T13:08:08Z</time>
      </trkpt>
      <trkpt lat="48.08508" lon="-4.29828">
        <ele>67.910278320312</ele>
        <time>2015-12-19T13:08:14Z</time>
      </trkpt>
      <trkpt lat="48.08504" lon="-4.29813">
        <ele>69.352294921875</ele>
        <time>2015-12-19T13:08:22Z</time>
      </trkpt>
      <trkpt lat="48.08499" lon="-4.298">
        <ele>68.87158203125</ele>
        <time>2015-12-19T13:08:30Z</time>
      </trkpt>
      <trkpt lat="48.08498" lon="-4.29799">
        <ele>68.390869140625</ele>
        <time>2015-12-19T13:08:31Z</time>
      </trkpt>
      <trkpt lat="48.08487" lon="-4.29798">
        <ele>66.948974609375</ele>
        <time>2015-12-19T13:08:39Z</time>
      </trkpt>
      <trkpt lat="48.0848" lon="-4.29801">
        <ele>65.987670898438</ele>
        <time>2015-12-19T13:08:45Z</time>
      </trkpt>
      <trkpt lat="48.08467" lon="-4.29801">
        <ele>65.507080078125</ele>
        <time>2015-12-19T13:08:54Z</time>
      </trkpt>
      <trkpt lat="48.08457" lon="-4.29802">
        <ele>65.987670898438</ele>
        <time>2015-12-19T13:09:01Z</time>
      </trkpt>
      <trkpt lat="48.08446" lon="-4.29803">
        <ele>66.46826171875</ele>
        <time>2015-12-19T13:09:08Z</time>
      </trkpt>
      <trkpt lat="48.08439" lon="-4.29802">
        <ele>65.987670898438</ele>
        <time>2015-12-19T13:09:14Z</time>
      </trkpt>
      <trkpt lat="48.08437" lon="-4.29801">
        <ele>65.507080078125</ele>
        <time>2015-12-19T13:09:16Z</time>
      </trkpt>
      <trkpt lat="48.08433" lon="-4.29792">
        <ele>64.545654296875</ele>
        <time>2015-12-19T13:09:22Z</time>
      </trkpt>
      <trkpt lat="48.08432" lon="-4.29782">
        <ele>59.739135742188</ele>
        <time>2015-12-19T13:09:29Z</time>
      </trkpt>
      <trkpt lat="48.08428" lon="-4.29773">
        <ele>59.258422851562</ele>
        <time>2015-12-19T13:09:34Z</time>
      </trkpt>
      <trkpt lat="48.08425" lon="-4.29764">
        <ele>61.661743164062</ele>
        <time>2015-12-19T13:09:39Z</time>
      </trkpt>
      <trkpt lat="48.08424" lon="-4.29762">
        <ele>61.181030273438</ele>
        <time>2015-12-19T13:09:40Z</time>
      </trkpt>
      <trkpt lat="48.08421" lon="-4.29749">
        <ele>59.739135742188</ele>
        <time>2015-12-19T13:09:48Z</time>
      </trkpt>
      <trkpt lat="48.08418" lon="-4.29739">
        <ele>58.777709960938</ele>
        <time>2015-12-19T13:09:54Z</time>
      </trkpt>
      <trkpt lat="48.08411" lon="-4.29723">
        <ele>60.700317382812</ele>
        <time>2015-12-19T13:10:02Z</time>
      </trkpt>
      <trkpt lat="48.08404" lon="-4.29706">
        <ele>62.622924804688</ele>
        <time>2015-12-19T13:10:11Z</time>
      </trkpt>
      <trkpt lat="48.08398" lon="-4.29691">
        <ele>64.545654296875</ele>
        <time>2015-12-19T13:10:19Z</time>
      </trkpt>
      <trkpt lat="48.0839" lon="-4.2967">
        <ele>66.948974609375</ele>
        <time>2015-12-19T13:10:30Z</time>
      </trkpt>
      <trkpt lat="48.08385" lon="-4.29659">
        <ele>67.910278320312</ele>
        <time>2015-12-19T13:10:37Z</time>
      </trkpt>
      <trkpt lat="48.08382" lon="-4.29654">
        <ele>66.948974609375</ele>
        <time>2015-12-19T13:10:41Z</time>
      </trkpt>
      <trkpt lat="48.08375" lon="-4.29649">
        <ele>65.987670898438</ele>
        <time>2015-12-19T13:10:47Z</time>
      </trkpt>
      <trkpt lat="48.08367" lon="-4.29646">
        <ele>66.948974609375</ele>
        <time>2015-12-19T13:10:53Z</time>
      </trkpt>
      <trkpt lat="48.08366" lon="-4.29646">
        <ele>67.4296875</ele>
        <time>2015-12-19T13:10:54Z</time>
      </trkpt>
      <trkpt lat="48.08365" lon="-4.29632">
        <ele>71.755493164062</ele>
        <time>2015-12-19T13:11:00Z</time>
      </trkpt>
      <trkpt lat="48.08364" lon="-4.2962">
        <ele>73.67822265625</ele>
        <time>2015-12-19T13:11:06Z</time>
      </trkpt>
      <trkpt lat="48.08364" lon="-4.29619">
        <ele>73.197631835938</ele>
        <time>2015-12-19T13:11:07Z</time>
      </trkpt>
      <trkpt lat="48.08365" lon="-4.29612">
        <ele>72.716918945312</ele>
        <time>2015-12-19T13:11:11Z</time>
      </trkpt>
      <trkpt lat="48.08364" lon="-4.29603">
        <ele>72.236206054688</ele>
        <time>2015-12-19T13:11:16Z</time>
      </trkpt>
      <trkpt lat="48.08361" lon="-4.29602">
        <ele>71.755493164062</ele>
        <time>2015-12-19T13:11:18Z</time>
      </trkpt>
      <trkpt lat="48.08349" lon="-4.29603">
        <ele>70.794189453125</ele>
        <time>2015-12-19T13:11:26Z</time>
      </trkpt>
      <trkpt lat="48.08337" lon="-4.29604">
        <ele>71.755493164062</ele>
        <time>2015-12-19T13:11:34Z</time>
      </trkpt>
      <trkpt lat="48.08328" lon="-4.29607">
        <ele>69.832885742188</ele>
        <time>2015-12-19T13:11:41Z</time>
      </trkpt>
      <trkpt lat="48.08319" lon="-4.29611">
        <ele>67.910278320312</ele>
        <time>2015-12-19T13:11:48Z</time>
      </trkpt>
      <trkpt lat="48.08313" lon="-4.29615">
        <ele>66.948974609375</ele>
        <time>2015-12-19T13:11:53Z</time>
      </trkpt>
      <trkpt lat="48.08308" lon="-4.29618">
        <ele>66.46826171875</ele>
        <time>2015-12-19T13:11:57Z</time>
      </trkpt>
      <trkpt lat="48.08306" lon="-4.2962">
        <ele>65.507080078125</ele>
        <time>2015-12-19T13:11:59Z</time>
      </trkpt>
      <trkpt lat="48.08301" lon="-4.29621">
        <ele>65.507080078125</ele>
        <time>2015-12-19T13:12:02Z</time>
      </trkpt>
      <trkpt lat="48.08297" lon="-4.29623">
        <ele>65.507080078125</ele>
        <time>2015-12-19T13:12:06Z</time>
      </trkpt>
      <trkpt lat="48.08284" lon="-4.29624">
        <ele>66.46826171875</ele>
        <time>2015-12-19T13:12:15Z</time>
      </trkpt>
      <trkpt lat="48.08278" lon="-4.29623">
        <ele>68.390869140625</ele>
        <time>2015-12-19T13:12:19Z</time>
      </trkpt>
      <trkpt lat="48.08268" lon="-4.29623">
        <ele>69.832885742188</ele>
        <time>2015-12-19T13:12:26Z</time>
      </trkpt>
      <trkpt lat="48.08258" lon="-4.29624">
        <ele>69.832885742188</ele>
        <time>2015-12-19T13:12:33Z</time>
      </trkpt>
      <trkpt lat="48.08247" lon="-4.29628">
        <ele>67.910278320312</ele>
        <time>2015-12-19T13:12:41Z</time>
      </trkpt>
      <trkpt lat="48.08237" lon="-4.29629">
        <ele>67.4296875</ele>
        <time>2015-12-19T13:12:48Z</time>
      </trkpt>
      <trkpt lat="48.08227" lon="-4.29634">
        <ele>65.507080078125</ele>
        <time>2015-12-19T13:12:55Z</time>
      </trkpt>
      <trkpt lat="48.08217" lon="-4.29638">
        <ele>63.584350585938</ele>
        <time>2015-12-19T13:13:03Z</time>
      </trkpt>
      <trkpt lat="48.08208" lon="-4.29641">
        <ele>62.142333984375</ele>
        <time>2015-12-19T13:13:10Z</time>
      </trkpt>
      <trkpt lat="48.08198" lon="-4.29644">
        <ele>60.2197265625</ele>
        <time>2015-12-19T13:13:18Z</time>
      </trkpt>
      <trkpt lat="48.08186" lon="-4.29648">
        <ele>58.777709960938</ele>
        <time>2015-12-19T13:13:27Z</time>
      </trkpt>
      <trkpt lat="48.08177" lon="-4.29651">
        <ele>57.816528320312</ele>
        <time>2015-12-19T13:13:34Z</time>
      </trkpt>
      <trkpt lat="48.08164" lon="-4.29654">
        <ele>56.855102539062</ele>
        <time>2015-12-19T13:13:44Z</time>
      </trkpt>
      <trkpt lat="48.08151" lon="-4.29657">
        <ele>55.4130859375</ele>
        <time>2015-12-19T13:13:54Z</time>
      </trkpt>
      <trkpt lat="48.08136" lon="-4.29661">
        <ele>53.009765625</ele>
        <time>2015-12-19T13:14:06Z</time>
      </trkpt>
      <trkpt lat="48.08135" lon="-4.29661">
        <ele>53.009765625</ele>
        <time>2015-12-19T13:14:07Z</time>
      </trkpt>
      <trkpt lat="48.08129" lon="-4.29658">
        <ele>52.529174804688</ele>
        <time>2015-12-19T13:14:12Z</time>
      </trkpt>
      <trkpt lat="48.08127" lon="-4.29656">
        <ele>52.529174804688</ele>
        <time>2015-12-19T13:14:13Z</time>
      </trkpt>
      <trkpt lat="48.08117" lon="-4.29648">
        <ele>52.529174804688</ele>
        <time>2015-12-19T13:14:21Z</time>
      </trkpt>
      <trkpt lat="48.08117" lon="-4.29647">
        <ele>52.529174804688</ele>
        <time>2015-12-19T13:14:22Z</time>
      </trkpt>
      <trkpt lat="48.08116" lon="-4.29626">
        <ele>53.009765625</ele>
        <time>2015-12-19T13:14:32Z</time>
      </trkpt>
      <trkpt lat="48.08115" lon="-4.29603">
        <ele>57.335815429688</ele>
        <time>2015-12-19T13:14:42Z</time>
      </trkpt>
      <trkpt lat="48.08115" lon="-4.29585">
        <ele>60.2197265625</ele>
        <time>2015-12-19T13:14:50Z</time>
      </trkpt>
      <trkpt lat="48.08114" lon="-4.29566">
        <ele>61.661743164062</ele>
        <time>2015-12-19T13:14:59Z</time>
      </trkpt>
      <trkpt lat="48.08115" lon="-4.29547">
        <ele>61.661743164062</ele>
        <time>2015-12-19T13:15:09Z</time>
      </trkpt>
      <trkpt lat="48.08115" lon="-4.29531">
        <ele>59.258422851562</ele>
        <time>2015-12-19T13:15:18Z</time>
      </trkpt>
      <trkpt lat="48.08115" lon="-4.29528">
        <ele>58.297119140625</ele>
        <time>2015-12-19T13:15:20Z</time>
      </trkpt>
      <trkpt lat="48.08112" lon="-4.29521">
        <ele>56.855102539062</ele>
        <time>2015-12-19T13:15:25Z</time>
      </trkpt>
      <trkpt lat="48.08106" lon="-4.29509">
        <ele>57.816528320312</ele>
        <time>2015-12-19T13:15:32Z</time>
      </trkpt>
      <trkpt lat="48.08098" lon="-4.29499">
        <ele>57.816528320312</ele>
        <time>2015-12-19T13:15:39Z</time>
      </trkpt>
      <trkpt lat="48.08088" lon="-4.29497">
        <ele>56.855102539062</ele>
        <time>2015-12-19T13:15:46Z</time>
      </trkpt>
      <trkpt lat="48.08076" lon="-4.29503">
        <ele>55.4130859375</ele>
        <time>2015-12-19T13:15:55Z</time>
      </trkpt>
      <trkpt lat="48.08064" lon="-4.29511">
        <ele>54.451782226562</ele>
        <time>2015-12-19T13:16:05Z</time>
      </trkpt>
      <trkpt lat="48.0805" lon="-4.29519">
        <ele>53.490478515625</ele>
        <time>2015-12-19T13:16:15Z</time>
      </trkpt>
      <trkpt lat="48.08039" lon="-4.29525">
        <ele>53.490478515625</ele>
        <time>2015-12-19T13:16:24Z</time>
      </trkpt>
      <trkpt lat="48.08027" lon="-4.29532">
        <ele>53.009765625</ele>
        <time>2015-12-19T13:16:33Z</time>
      </trkpt>
      <trkpt lat="48.08018" lon="-4.29536">
        <ele>53.490478515625</ele>
        <time>2015-12-19T13:16:40Z</time>
      </trkpt>
      <trkpt lat="48.08003" lon="-4.29546">
        <ele>53.490478515625</ele>
        <time>2015-12-19T13:16:52Z</time>
      </trkpt>
      <trkpt lat="48.07995" lon="-4.29551">
        <ele>52.529174804688</ele>
        <time>2015-12-19T13:16:59Z</time>
      </trkpt>
      <trkpt lat="48.07987" lon="-4.29555">
        <ele>52.529174804688</ele>
        <time>2015-12-19T13:17:05Z</time>
      </trkpt>
      <trkpt lat="48.07974" lon="-4.29562">
        <ele>52.529174804688</ele>
        <time>2015-12-19T13:17:15Z</time>
      </trkpt>
      <trkpt lat="48.07963" lon="-4.29562">
        <ele>53.490478515625</ele>
        <time>2015-12-19T13:17:23Z</time>
      </trkpt>
      <trkpt lat="48.07952" lon="-4.29561">
        <ele>52.529174804688</ele>
        <time>2015-12-19T13:17:32Z</time>
      </trkpt>
      <trkpt lat="48.07942" lon="-4.29562">
        <ele>52.048583984375</ele>
        <time>2015-12-19T13:17:39Z</time>
      </trkpt>
      <trkpt lat="48.07934" lon="-4.29563">
        <ele>52.529174804688</ele>
        <time>2015-12-19T13:17:45Z</time>
      </trkpt>
      <trkpt lat="48.07923" lon="-4.29566">
        <ele>50.606567382812</ele>
        <time>2015-12-19T13:17:54Z</time>
      </trkpt>
      <trkpt lat="48.07916" lon="-4.29567">
        <ele>51.087158203125</ele>
        <time>2015-12-19T13:17:59Z</time>
      </trkpt>
      <trkpt lat="48.07906" lon="-4.29568">
        <ele>51.087158203125</ele>
        <time>2015-12-19T13:18:06Z</time>
      </trkpt>
      <trkpt lat="48.079" lon="-4.29568">
        <ele>51.087158203125</ele>
        <time>2015-12-19T13:18:11Z</time>
      </trkpt>
      <trkpt lat="48.07897" lon="-4.29569">
        <ele>50.1259765625</ele>
        <time>2015-12-19T13:18:13Z</time>
      </trkpt>
      <trkpt lat="48.07888" lon="-4.29569">
        <ele>49.645263671875</ele>
        <time>2015-12-19T13:18:20Z</time>
      </trkpt>
      <trkpt lat="48.07878" lon="-4.29571">
        <ele>48.683959960938</ele>
        <time>2015-12-19T13:18:28Z</time>
      </trkpt>
      <trkpt lat="48.07871" lon="-4.2957">
        <ele>49.645263671875</ele>
        <time>2015-12-19T13:18:33Z</time>
      </trkpt>
      <trkpt lat="48.0787" lon="-4.29573">
        <ele>51.087158203125</ele>
        <time>2015-12-19T13:18:37Z</time>
      </trkpt>
      <trkpt lat="48.0787" lon="-4.29576">
        <ele>51.56787109375</ele>
        <time>2015-12-19T13:18:39Z</time>
      </trkpt>
      <trkpt lat="48.07872" lon="-4.29592">
        <ele>53.009765625</ele>
        <time>2015-12-19T13:18:47Z</time>
      </trkpt>
      <trkpt lat="48.07872" lon="-4.29609">
        <ele>52.048583984375</ele>
        <time>2015-12-19T13:18:54Z</time>
      </trkpt>
      <trkpt lat="48.07873" lon="-4.29621">
        <ele>51.087158203125</ele>
        <time>2015-12-19T13:19:00Z</time>
      </trkpt>
      <trkpt lat="48.07874" lon="-4.29631">
        <ele>50.606567382812</ele>
        <time>2015-12-19T13:19:06Z</time>
      </trkpt>
      <trkpt lat="48.07875" lon="-4.29645">
        <ele>51.56787109375</ele>
        <time>2015-12-19T13:19:13Z</time>
      </trkpt>
      <trkpt lat="48.07876" lon="-4.29653">
        <ele>52.529174804688</ele>
        <time>2015-12-19T13:19:17Z</time>
      </trkpt>
      <trkpt lat="48.07876" lon="-4.29668">
        <ele>53.009765625</ele>
        <time>2015-12-19T13:19:24Z</time>
      </trkpt>
      <trkpt lat="48.07873" lon="-4.29684">
        <ele>53.490478515625</ele>
        <time>2015-12-19T13:19:31Z</time>
      </trkpt>
      <trkpt lat="48.07867" lon="-4.29694">
        <ele>53.009765625</ele>
        <time>2015-12-19T13:19:38Z</time>
      </trkpt>
      <trkpt lat="48.07865" lon="-4.29696">
        <ele>52.529174804688</ele>
        <time>2015-12-19T13:19:40Z</time>
      </trkpt>
      <trkpt lat="48.0786" lon="-4.297">
        <ele>50.1259765625</ele>
        <time>2015-12-19T13:19:46Z</time>
      </trkpt>
      <trkpt lat="48.07854" lon="-4.29704">
        <ele>51.087158203125</ele>
        <time>2015-12-19T13:19:52Z</time>
      </trkpt>
      <trkpt lat="48.07849" lon="-4.29707">
        <ele>51.087158203125</ele>
        <time>2015-12-19T13:19:56Z</time>
      </trkpt>
      <trkpt lat="48.07846" lon="-4.29711">
        <ele>50.1259765625</ele>
        <time>2015-12-19T13:19:59Z</time>
      </trkpt>
      <trkpt lat="48.07837" lon="-4.29716">
        <ele>48.203369140625</ele>
        <time>2015-12-19T13:20:06Z</time>
      </trkpt>
      <trkpt lat="48.07829" lon="-4.2972">
        <ele>47.241821289062</ele>
        <time>2015-12-19T13:20:13Z</time>
      </trkpt>
      <trkpt lat="48.07816" lon="-4.29721">
        <ele>46.76123046875</ele>
        <time>2015-12-19T13:20:21Z</time>
      </trkpt>
      <trkpt lat="48.07806" lon="-4.29724">
        <ele>46.76123046875</ele>
        <time>2015-12-19T13:20:28Z</time>
      </trkpt>
      <trkpt lat="48.07799" lon="-4.29727">
        <ele>47.241821289062</ele>
        <time>2015-12-19T13:20:34Z</time>
      </trkpt>
      <trkpt lat="48.07793" lon="-4.29728">
        <ele>46.76123046875</ele>
        <time>2015-12-19T13:20:39Z</time>
      </trkpt>
      <trkpt lat="48.07784" lon="-4.2973">
        <ele>47.241821289062</ele>
        <time>2015-12-19T13:20:45Z</time>
      </trkpt>
      <trkpt lat="48.07781" lon="-4.29727">
        <ele>47.241821289062</ele>
        <time>2015-12-19T13:20:48Z</time>
      </trkpt>
      <trkpt lat="48.07779" lon="-4.2972">
        <ele>45.799926757812</ele>
        <time>2015-12-19T13:20:53Z</time>
      </trkpt>
      <trkpt lat="48.07778" lon="-4.29708">
        <ele>44.838623046875</ele>
        <time>2015-12-19T13:20:59Z</time>
      </trkpt>
      <trkpt lat="48.07777" lon="-4.29702">
        <ele>44.838623046875</ele>
        <time>2015-12-19T13:21:03Z</time>
      </trkpt>
      <trkpt lat="48.07775" lon="-4.29688">
        <ele>43.877319335938</ele>
        <time>2015-12-19T13:21:10Z</time>
      </trkpt>
      <trkpt lat="48.07775" lon="-4.29677">
        <ele>43.877319335938</ele>
        <time>2015-12-19T13:21:15Z</time>
      </trkpt>
      <trkpt lat="48.07775" lon="-4.29674">
        <ele>43.877319335938</ele>
        <time>2015-12-19T13:21:17Z</time>
      </trkpt>
      <trkpt lat="48.07775" lon="-4.29663">
        <ele>43.396606445312</ele>
        <time>2015-12-19T13:21:22Z</time>
      </trkpt>
      <trkpt lat="48.07774" lon="-4.29646">
        <ele>43.396606445312</ele>
        <time>2015-12-19T13:21:30Z</time>
      </trkpt>
      <trkpt lat="48.07774" lon="-4.29639">
        <ele>41.473999023438</ele>
        <time>2015-12-19T13:21:34Z</time>
      </trkpt>
      <trkpt lat="48.07774" lon="-4.29635">
        <ele>41.473999023438</ele>
        <time>2015-12-19T13:21:37Z</time>
      </trkpt>
      <trkpt lat="48.07774" lon="-4.29627">
        <ele>41.473999023438</ele>
        <time>2015-12-19T13:21:41Z</time>
      </trkpt>
      <trkpt lat="48.07773" lon="-4.29618">
        <ele>41.473999023438</ele>
        <time>2015-12-19T13:21:45Z</time>
      </trkpt>
      <trkpt lat="48.07774" lon="-4.29611">
        <ele>42.916015625</ele>
        <time>2015-12-19T13:21:48Z</time>
      </trkpt>
      <trkpt lat="48.07773" lon="-4.29603">
        <ele>42.435424804688</ele>
        <time>2015-12-19T13:21:52Z</time>
      </trkpt>
      <trkpt lat="48.07773" lon="-4.29588">
        <ele>41.954711914062</ele>
        <time>2015-12-19T13:21:59Z</time>
      </trkpt>
      <trkpt lat="48.07772" lon="-4.29575">
        <ele>41.954711914062</ele>
        <time>2015-12-19T13:22:06Z</time>
      </trkpt>
      <trkpt lat="48.07772" lon="-4.29567">
        <ele>41.954711914062</ele>
        <time>2015-12-19T13:22:10Z</time>
      </trkpt>
      <trkpt lat="48.07769" lon="-4.29551">
        <ele>45.319213867188</ele>
        <time>2015-12-19T13:22:17Z</time>
      </trkpt>
      <trkpt lat="48.07769" lon="-4.29539">
        <ele>44.838623046875</ele>
        <time>2015-12-19T13:22:23Z</time>
      </trkpt>
      <trkpt lat="48.07769" lon="-4.29526">
        <ele>43.877319335938</ele>
        <time>2015-12-19T13:22:29Z</time>
      </trkpt>
      <trkpt lat="48.0777" lon="-4.29522">
        <ele>43.877319335938</ele>
        <time>2015-12-19T13:22:31Z</time>
      </trkpt>
      <trkpt lat="48.07769" lon="-4.29514">
        <ele>43.877319335938</ele>
        <time>2015-12-19T13:22:35Z</time>
      </trkpt>
      <trkpt lat="48.07767" lon="-4.29503">
        <ele>43.396606445312</ele>
        <time>2015-12-19T13:22:40Z</time>
      </trkpt>
      <trkpt lat="48.07767" lon="-4.29494">
        <ele>41.473999023438</ele>
        <time>2015-12-19T13:22:45Z</time>
      </trkpt>
      <trkpt lat="48.07766" lon="-4.29477">
        <ele>43.877319335938</ele>
        <time>2015-12-19T13:22:52Z</time>
      </trkpt>
      <trkpt lat="48.07766" lon="-4.29468">
        <ele>45.799926757812</ele>
        <time>2015-12-19T13:22:56Z</time>
      </trkpt>
      <trkpt lat="48.07766" lon="-4.29451">
        <ele>44.838623046875</ele>
        <time>2015-12-19T13:23:04Z</time>
      </trkpt>
      <trkpt lat="48.07767" lon="-4.29448">
        <ele>44.838623046875</ele>
        <time>2015-12-19T13:23:06Z</time>
      </trkpt>
      <trkpt lat="48.07767" lon="-4.29436">
        <ele>44.838623046875</ele>
        <time>2015-12-19T13:23:12Z</time>
      </trkpt>
      <trkpt lat="48.0777" lon="-4.29423">
        <ele>47.241821289062</ele>
        <time>2015-12-19T13:23:19Z</time>
      </trkpt>
      <trkpt lat="48.07771" lon="-4.29409">
        <ele>47.722534179688</ele>
        <time>2015-12-19T13:23:26Z</time>
      </trkpt>
      <trkpt lat="48.0777" lon="-4.29396">
        <ele>47.722534179688</ele>
        <time>2015-12-19T13:23:33Z</time>
      </trkpt>
      <trkpt lat="48.07772" lon="-4.29379">
        <ele>50.606567382812</ele>
        <time>2015-12-19T13:23:41Z</time>
      </trkpt>
      <trkpt lat="48.0777" lon="-4.29374">
        <ele>50.606567382812</ele>
        <time>2015-12-19T13:23:44Z</time>
      </trkpt>
      <trkpt lat="48.07768" lon="-4.29365">
        <ele>49.645263671875</ele>
        <time>2015-12-19T13:23:48Z</time>
      </trkpt>
      <trkpt lat="48.07766" lon="-4.29348">
        <ele>47.241821289062</ele>
        <time>2015-12-19T13:23:56Z</time>
      </trkpt>
      <trkpt lat="48.07765" lon="-4.29333">
        <ele>46.76123046875</ele>
        <time>2015-12-19T13:24:03Z</time>
      </trkpt>
      <trkpt lat="48.07765" lon="-4.29318">
        <ele>44.838623046875</ele>
        <time>2015-12-19T13:24:10Z</time>
      </trkpt>
      <trkpt lat="48.07764" lon="-4.29297">
        <ele>46.280639648438</ele>
        <time>2015-12-19T13:24:20Z</time>
      </trkpt>
      <trkpt lat="48.07763" lon="-4.2928">
        <ele>47.241821289062</ele>
        <time>2015-12-19T13:24:28Z</time>
      </trkpt>
      <trkpt lat="48.07762" lon="-4.29274">
        <ele>47.722534179688</ele>
        <time>2015-12-19T13:24:31Z</time>
      </trkpt>
      <trkpt lat="48.07762" lon="-4.29263">
        <ele>48.683959960938</ele>
        <time>2015-12-19T13:24:36Z</time>
      </trkpt>
      <trkpt lat="48.07761" lon="-4.29251">
        <ele>47.722534179688</ele>
        <time>2015-12-19T13:24:42Z</time>
      </trkpt>
      <trkpt lat="48.07761" lon="-4.29236">
        <ele>46.76123046875</ele>
        <time>2015-12-19T13:24:49Z</time>
      </trkpt>
      <trkpt lat="48.07761" lon="-4.2923">
        <ele>45.799926757812</ele>
        <time>2015-12-19T13:24:52Z</time>
      </trkpt>
      <trkpt lat="48.0776" lon="-4.29215">
        <ele>45.319213867188</ele>
        <time>2015-12-19T13:24:59Z</time>
      </trkpt>
      <trkpt lat="48.0776" lon="-4.29194">
        <ele>45.319213867188</ele>
        <time>2015-12-19T13:25:09Z</time>
      </trkpt>
      <trkpt lat="48.07758" lon="-4.29178">
        <ele>43.877319335938</ele>
        <time>2015-12-19T13:25:17Z</time>
      </trkpt>
      <trkpt lat="48.07757" lon="-4.29164">
        <ele>43.396606445312</ele>
        <time>2015-12-19T13:25:24Z</time>
      </trkpt>
      <trkpt lat="48.07755" lon="-4.29147">
        <ele>42.435424804688</ele>
        <time>2015-12-19T13:25:32Z</time>
      </trkpt>
      <trkpt lat="48.07754" lon="-4.29143">
        <ele>42.435424804688</ele>
        <time>2015-12-19T13:25:34Z</time>
      </trkpt>
      <trkpt lat="48.07752" lon="-4.29132">
        <ele>40.512817382812</ele>
        <time>2015-12-19T13:25:40Z</time>
      </trkpt>
      <trkpt lat="48.07752" lon="-4.29125">
        <ele>40.512817382812</ele>
        <time>2015-12-19T13:25:43Z</time>
      </trkpt>
      <trkpt lat="48.07751" lon="-4.29117">
        <ele>40.512817382812</ele>
        <time>2015-12-19T13:25:46Z</time>
      </trkpt>
      <trkpt lat="48.0775" lon="-4.29113">
        <ele>40.993408203125</ele>
        <time>2015-12-19T13:25:48Z</time>
      </trkpt>
      <trkpt lat="48.0775" lon="-4.29106">
        <ele>40.993408203125</ele>
        <time>2015-12-19T13:25:52Z</time>
      </trkpt>
      <trkpt lat="48.07748" lon="-4.29091">
        <ele>42.916015625</ele>
        <time>2015-12-19T13:25:58Z</time>
      </trkpt>
      <trkpt lat="48.07747" lon="-4.29089">
        <ele>42.916015625</ele>
        <time>2015-12-19T13:25:59Z</time>
      </trkpt>
      <trkpt lat="48.07749" lon="-4.2908">
        <ele>40.032104492188</ele>
        <time>2015-12-19T13:26:05Z</time>
      </trkpt>
      <trkpt lat="48.07751" lon="-4.29064">
        <ele>40.993408203125</ele>
        <time>2015-12-19T13:26:13Z</time>
      </trkpt>
      <trkpt lat="48.0775" lon="-4.29057">
        <ele>41.473999023438</ele>
        <time>2015-12-19T13:26:16Z</time>
      </trkpt>
      <trkpt lat="48.07749" lon="-4.2905">
        <ele>40.993408203125</ele>
        <time>2015-12-19T13:26:20Z</time>
      </trkpt>
      <trkpt lat="48.07748" lon="-4.29043">
        <ele>40.512817382812</ele>
        <time>2015-12-19T13:26:24Z</time>
      </trkpt>
      <trkpt lat="48.07747" lon="-4.29026">
        <ele>40.032104492188</ele>
        <time>2015-12-19T13:26:32Z</time>
      </trkpt>
      <trkpt lat="48.07747" lon="-4.29022">
        <ele>40.512817382812</ele>
        <time>2015-12-19T13:26:34Z</time>
      </trkpt>
      <trkpt lat="48.07746" lon="-4.29017">
        <ele>40.993408203125</ele>
        <time>2015-12-19T13:26:36Z</time>
      </trkpt>
      <trkpt lat="48.07745" lon="-4.29007">
        <ele>41.473999023438</ele>
        <time>2015-12-19T13:26:41Z</time>
      </trkpt>
      <trkpt lat="48.07743" lon="-4.28998">
        <ele>40.032104492188</ele>
        <time>2015-12-19T13:26:45Z</time>
      </trkpt>
      <trkpt lat="48.07742" lon="-4.28991">
        <ele>39.55126953125</ele>
        <time>2015-12-19T13:26:48Z</time>
      </trkpt>
      <trkpt lat="48.0774" lon="-4.28978">
        <ele>36.186767578125</ele>
        <time>2015-12-19T13:26:55Z</time>
      </trkpt>
      <trkpt lat="48.07742" lon="-4.28973">
        <ele>36.186767578125</ele>
        <time>2015-12-19T13:26:58Z</time>
      </trkpt>
      <trkpt lat="48.07744" lon="-4.28962">
        <ele>36.186767578125</ele>
        <time>2015-12-19T13:27:05Z</time>
      </trkpt>
      <trkpt lat="48.07744" lon="-4.2895">
        <ele>37.628662109375</ele>
        <time>2015-12-19T13:27:10Z</time>
      </trkpt>
      <trkpt lat="48.07743" lon="-4.28937">
        <ele>39.070678710938</ele>
        <time>2015-12-19T13:27:16Z</time>
      </trkpt>
      <trkpt lat="48.07742" lon="-4.28925">
        <ele>40.032104492188</ele>
        <time>2015-12-19T13:27:21Z</time>
      </trkpt>
      <trkpt lat="48.07742" lon="-4.28917">
        <ele>40.512817382812</ele>
        <time>2015-12-19T13:27:25Z</time>
      </trkpt>
      <trkpt lat="48.0774" lon="-4.28904">
        <ele>41.473999023438</ele>
        <time>2015-12-19T13:27:32Z</time>
      </trkpt>
      <trkpt lat="48.0774" lon="-4.28898">
        <ele>40.512817382812</ele>
        <time>2015-12-19T13:27:35Z</time>
      </trkpt>
      <trkpt lat="48.0774" lon="-4.2888">
        <ele>40.032104492188</ele>
        <time>2015-12-19T13:27:44Z</time>
      </trkpt>
      <trkpt lat="48.0774" lon="-4.28873">
        <ele>40.993408203125</ele>
        <time>2015-12-19T13:27:47Z</time>
      </trkpt>
      <trkpt lat="48.07739" lon="-4.28859">
        <ele>40.993408203125</ele>
        <time>2015-12-19T13:27:54Z</time>
      </trkpt>
      <trkpt lat="48.07739" lon="-4.28846">
        <ele>42.435424804688</ele>
        <time>2015-12-19T13:28:00Z</time>
      </trkpt>
      <trkpt lat="48.07739" lon="-4.28841">
        <ele>43.877319335938</ele>
        <time>2015-12-19T13:28:03Z</time>
      </trkpt>
      <trkpt lat="48.07737" lon="-4.28829">
        <ele>45.319213867188</ele>
        <time>2015-12-19T13:28:09Z</time>
      </trkpt>
      <trkpt lat="48.07737" lon="-4.28825">
        <ele>44.838623046875</ele>
        <time>2015-12-19T13:28:11Z</time>
      </trkpt>
      <trkpt lat="48.07737" lon="-4.28821">
        <ele>44.358032226562</ele>
        <time>2015-12-19T13:28:13Z</time>
      </trkpt>
      <trkpt lat="48.07736" lon="-4.28806">
        <ele>45.319213867188</ele>
        <time>2015-12-19T13:28:19Z</time>
      </trkpt>
      <trkpt lat="48.07735" lon="-4.28793">
        <ele>45.319213867188</ele>
        <time>2015-12-19T13:28:25Z</time>
      </trkpt>
      <trkpt lat="48.07734" lon="-4.28781">
        <ele>45.799926757812</ele>
        <time>2015-12-19T13:28:30Z</time>
      </trkpt>
      <trkpt lat="48.07734" lon="-4.2877">
        <ele>47.241821289062</ele>
        <time>2015-12-19T13:28:35Z</time>
      </trkpt>
      <trkpt lat="48.07734" lon="-4.28768">
        <ele>47.241821289062</ele>
        <time>2015-12-19T13:28:36Z</time>
      </trkpt>
      <trkpt lat="48.07733" lon="-4.28754">
        <ele>46.280639648438</ele>
        <time>2015-12-19T13:28:43Z</time>
      </trkpt>
      <trkpt lat="48.07733" lon="-4.28752">
        <ele>45.799926757812</ele>
        <time>2015-12-19T13:28:44Z</time>
      </trkpt>
      <trkpt lat="48.07733" lon="-4.28747">
        <ele>44.358032226562</ele>
        <time>2015-12-19T13:28:47Z</time>
      </trkpt>
      <trkpt lat="48.07732" lon="-4.28734">
        <ele>43.396606445312</ele>
        <time>2015-12-19T13:28:53Z</time>
      </trkpt>
      <trkpt lat="48.07732" lon="-4.28732">
        <ele>42.435424804688</ele>
        <time>2015-12-19T13:28:54Z</time>
      </trkpt>
      <trkpt lat="48.07731" lon="-4.28729">
        <ele>41.954711914062</ele>
        <time>2015-12-19T13:28:56Z</time>
      </trkpt>
      <trkpt lat="48.07729" lon="-4.28714">
        <ele>42.916015625</ele>
        <time>2015-12-19T13:29:03Z</time>
      </trkpt>
      <trkpt lat="48.07729" lon="-4.28702">
        <ele>44.358032226562</ele>
        <time>2015-12-19T13:29:08Z</time>
      </trkpt>
      <trkpt lat="48.07729" lon="-4.28695">
        <ele>45.319213867188</ele>
        <time>2015-12-19T13:29:11Z</time>
      </trkpt>
      <trkpt lat="48.0773" lon="-4.28684">
        <ele>45.319213867188</ele>
        <time>2015-12-19T13:29:16Z</time>
      </trkpt>
      <trkpt lat="48.07729" lon="-4.28671">
        <ele>45.799926757812</ele>
        <time>2015-12-19T13:29:23Z</time>
      </trkpt>
      <trkpt lat="48.0773" lon="-4.28663">
        <ele>45.319213867188</ele>
        <time>2015-12-19T13:29:28Z</time>
      </trkpt>
      <trkpt lat="48.0773" lon="-4.28656">
        <ele>44.358032226562</ele>
        <time>2015-12-19T13:29:32Z</time>
      </trkpt>
      <trkpt lat="48.07731" lon="-4.28647">
        <ele>41.954711914062</ele>
        <time>2015-12-19T13:29:37Z</time>
      </trkpt>
      <trkpt lat="48.07731" lon="-4.28631">
        <ele>44.838623046875</ele>
        <time>2015-12-19T13:29:44Z</time>
      </trkpt>
      <trkpt lat="48.07731" lon="-4.28616">
        <ele>42.916015625</ele>
        <time>2015-12-19T13:29:51Z</time>
      </trkpt>
      <trkpt lat="48.0773" lon="-4.28612">
        <ele>43.877319335938</ele>
        <time>2015-12-19T13:29:53Z</time>
      </trkpt>
      <trkpt lat="48.0773" lon="-4.28608">
        <ele>43.877319335938</ele>
        <time>2015-12-19T13:29:55Z</time>
      </trkpt>
      <trkpt lat="48.07732" lon="-4.28596">
        <ele>43.877319335938</ele>
        <time>2015-12-19T13:30:01Z</time>
      </trkpt>
      <trkpt lat="48.07734" lon="-4.28586">
        <ele>42.435424804688</ele>
        <time>2015-12-19T13:30:06Z</time>
      </trkpt>
      <trkpt lat="48.0773" lon="-4.28571">
        <ele>44.358032226562</ele>
        <time>2015-12-19T13:30:12Z</time>
      </trkpt>
      <trkpt lat="48.07726" lon="-4.2856">
        <ele>46.280639648438</ele>
        <time>2015-12-19T13:30:16Z</time>
      </trkpt>
      <trkpt lat="48.07726" lon="-4.28543">
        <ele>47.241821289062</ele>
        <time>2015-12-19T13:30:23Z</time>
      </trkpt>
      <trkpt lat="48.07724" lon="-4.28533">
        <ele>46.280639648438</ele>
        <time>2015-12-19T13:30:28Z</time>
      </trkpt>
      <trkpt lat="48.07723" lon="-4.28525">
        <ele>45.319213867188</ele>
        <time>2015-12-19T13:30:32Z</time>
      </trkpt>
      <trkpt lat="48.07723" lon="-4.28516">
        <ele>42.916015625</ele>
        <time>2015-12-19T13:30:37Z</time>
      </trkpt>
      <trkpt lat="48.07723" lon="-4.28512">
        <ele>43.396606445312</ele>
        <time>2015-12-19T13:30:39Z</time>
      </trkpt>
      <trkpt lat="48.07724" lon="-4.28505">
        <ele>42.435424804688</ele>
        <time>2015-12-19T13:30:43Z</time>
      </trkpt>
      <trkpt lat="48.07723" lon="-4.28489">
        <ele>45.319213867188</ele>
        <time>2015-12-19T13:30:50Z</time>
      </trkpt>
      <trkpt lat="48.07724" lon="-4.28482">
        <ele>45.799926757812</ele>
        <time>2015-12-19T13:30:53Z</time>
      </trkpt>
      <trkpt lat="48.07722" lon="-4.28469">
        <ele>47.722534179688</ele>
        <time>2015-12-19T13:30:59Z</time>
      </trkpt>
      <trkpt lat="48.07722" lon="-4.28464">
        <ele>47.241821289062</ele>
        <time>2015-12-19T13:31:02Z</time>
      </trkpt>
      <trkpt lat="48.07719" lon="-4.2845">
        <ele>46.280639648438</ele>
        <time>2015-12-19T13:31:08Z</time>
      </trkpt>
      <trkpt lat="48.0772" lon="-4.28444">
        <ele>45.799926757812</ele>
        <time>2015-12-19T13:31:13Z</time>
      </trkpt>
      <trkpt lat="48.0772" lon="-4.2844">
        <ele>45.799926757812</ele>
        <time>2015-12-19T13:31:15Z</time>
      </trkpt>
      <trkpt lat="48.0772" lon="-4.28428">
        <ele>45.799926757812</ele>
        <time>2015-12-19T13:31:21Z</time>
      </trkpt>
      <trkpt lat="48.07719" lon="-4.28414">
        <ele>44.838623046875</ele>
        <time>2015-12-19T13:31:27Z</time>
      </trkpt>
      <trkpt lat="48.07718" lon="-4.28412">
        <ele>45.319213867188</ele>
        <time>2015-12-19T13:31:28Z</time>
      </trkpt>
      <trkpt lat="48.07715" lon="-4.28394">
        <ele>45.319213867188</ele>
        <time>2015-12-19T13:31:34Z</time>
      </trkpt>
      <trkpt lat="48.07715" lon="-4.28392">
        <ele>44.838623046875</ele>
        <time>2015-12-19T13:31:35Z</time>
      </trkpt>
      <trkpt lat="48.07715" lon="-4.28386">
        <ele>43.396606445312</ele>
        <time>2015-12-19T13:31:38Z</time>
      </trkpt>
      <trkpt lat="48.07715" lon="-4.28378">
        <ele>41.954711914062</ele>
        <time>2015-12-19T13:31:42Z</time>
      </trkpt>
      <trkpt lat="48.07715" lon="-4.28369">
        <ele>40.993408203125</ele>
        <time>2015-12-19T13:31:47Z</time>
      </trkpt>
      <trkpt lat="48.07716" lon="-4.28358">
        <ele>40.032104492188</ele>
        <time>2015-12-19T13:31:53Z</time>
      </trkpt>
      <trkpt lat="48.07716" lon="-4.28356">
        <ele>40.032104492188</ele>
        <time>2015-12-19T13:31:54Z</time>
      </trkpt>
      <trkpt lat="48.07717" lon="-4.28352">
        <ele>39.55126953125</ele>
        <time>2015-12-19T13:31:56Z</time>
      </trkpt>
      <trkpt lat="48.07716" lon="-4.28339">
        <ele>38.109375</ele>
        <time>2015-12-19T13:32:03Z</time>
      </trkpt>
      <trkpt lat="48.07717" lon="-4.28323">
        <ele>39.55126953125</ele>
        <time>2015-12-19T13:32:11Z</time>
      </trkpt>
      <trkpt lat="48.07717" lon="-4.28304">
        <ele>40.032104492188</ele>
        <time>2015-12-19T13:32:20Z</time>
      </trkpt>
      <trkpt lat="48.07717" lon="-4.28302">
        <ele>39.55126953125</ele>
        <time>2015-12-19T13:32:21Z</time>
      </trkpt>
      <trkpt lat="48.07717" lon="-4.28298">
        <ele>39.55126953125</ele>
        <time>2015-12-19T13:32:23Z</time>
      </trkpt>
      <trkpt lat="48.07716" lon="-4.28288">
        <ele>39.55126953125</ele>
        <time>2015-12-19T13:32:28Z</time>
      </trkpt>
      <trkpt lat="48.07714" lon="-4.28275">
        <ele>42.435424804688</ele>
        <time>2015-12-19T13:32:34Z</time>
      </trkpt>
      <trkpt lat="48.07714" lon="-4.28273">
        <ele>42.916015625</ele>
        <time>2015-12-19T13:32:35Z</time>
      </trkpt>
      <trkpt lat="48.07714" lon="-4.28262">
        <ele>42.916015625</ele>
        <time>2015-12-19T13:32:40Z</time>
      </trkpt>
      <trkpt lat="48.07714" lon="-4.28252">
        <ele>44.358032226562</ele>
        <time>2015-12-19T13:32:44Z</time>
      </trkpt>
      <trkpt lat="48.07713" lon="-4.28248">
        <ele>44.358032226562</ele>
        <time>2015-12-19T13:32:46Z</time>
      </trkpt>
      <trkpt lat="48.07713" lon="-4.28236">
        <ele>41.954711914062</ele>
        <time>2015-12-19T13:32:52Z</time>
      </trkpt>
      <trkpt lat="48.07713" lon="-4.28232">
        <ele>40.993408203125</ele>
        <time>2015-12-19T13:32:54Z</time>
      </trkpt>
      <trkpt lat="48.07712" lon="-4.28219">
        <ele>40.993408203125</ele>
        <time>2015-12-19T13:33:00Z</time>
      </trkpt>
      <trkpt lat="48.07708" lon="-4.28209">
        <ele>40.032104492188</ele>
        <time>2015-12-19T13:33:04Z</time>
      </trkpt>
      <trkpt lat="48.07709" lon="-4.28201">
        <ele>37.148071289062</ele>
        <time>2015-12-19T13:33:09Z</time>
      </trkpt>
      <trkpt lat="48.0771" lon="-4.28195">
        <ele>36.66748046875</ele>
        <time>2015-12-19T13:33:12Z</time>
      </trkpt>
      <trkpt lat="48.07709" lon="-4.28176">
        <ele>38.590087890625</ele>
        <time>2015-12-19T13:33:20Z</time>
      </trkpt>
      <trkpt lat="48.07709" lon="-4.28161">
        <ele>39.070678710938</ele>
        <time>2015-12-19T13:33:27Z</time>
      </trkpt>
      <trkpt lat="48.07709" lon="-4.28159">
        <ele>39.070678710938</ele>
        <time>2015-12-19T13:33:28Z</time>
      </trkpt>
      <trkpt lat="48.07706" lon="-4.28147">
        <ele>40.993408203125</ele>
        <time>2015-12-19T13:33:33Z</time>
      </trkpt>
      <trkpt lat="48.07703" lon="-4.28137">
        <ele>39.55126953125</ele>
        <time>2015-12-19T13:33:38Z</time>
      </trkpt>
      <trkpt lat="48.07703" lon="-4.28131">
        <ele>39.070678710938</ele>
        <time>2015-12-19T13:33:41Z</time>
      </trkpt>
      <trkpt lat="48.07701" lon="-4.28128">
        <ele>38.590087890625</ele>
        <time>2015-12-19T13:33:43Z</time>
      </trkpt>
      <trkpt lat="48.07701" lon="-4.28122">
        <ele>37.628662109375</ele>
        <time>2015-12-19T13:33:47Z</time>
      </trkpt>
      <trkpt lat="48.07701" lon="-4.28118">
        <ele>36.186767578125</ele>
        <time>2015-12-19T13:33:49Z</time>
      </trkpt>
      <trkpt lat="48.077" lon="-4.28109">
        <ele>36.186767578125</ele>
        <time>2015-12-19T13:33:53Z</time>
      </trkpt>
      <trkpt lat="48.07701" lon="-4.281">
        <ele>36.186767578125</ele>
        <time>2015-12-19T13:33:58Z</time>
      </trkpt>
      <trkpt lat="48.07701" lon="-4.28093">
        <ele>37.148071289062</ele>
        <time>2015-12-19T13:34:02Z</time>
      </trkpt>
      <trkpt lat="48.077" lon="-4.28084">
        <ele>38.109375</ele>
        <time>2015-12-19T13:34:06Z</time>
      </trkpt>
      <trkpt lat="48.07699" lon="-4.28079">
        <ele>39.070678710938</ele>
        <time>2015-12-19T13:34:08Z</time>
      </trkpt>
      <trkpt lat="48.07696" lon="-4.28065">
        <ele>39.55126953125</ele>
        <time>2015-12-19T13:34:15Z</time>
      </trkpt>
      <trkpt lat="48.07695" lon="-4.28061">
        <ele>39.55126953125</ele>
        <time>2015-12-19T13:34:17Z</time>
      </trkpt>
      <trkpt lat="48.07695" lon="-4.28054">
        <ele>41.473999023438</ele>
        <time>2015-12-19T13:34:21Z</time>
      </trkpt>
      <trkpt lat="48.07693" lon="-4.28044">
        <ele>44.838623046875</ele>
        <time>2015-12-19T13:34:26Z</time>
      </trkpt>
      <trkpt lat="48.07691" lon="-4.28035">
        <ele>48.203369140625</ele>
        <time>2015-12-19T13:34:30Z</time>
      </trkpt>
      <trkpt lat="48.0769" lon="-4.2803">
        <ele>50.1259765625</ele>
        <time>2015-12-19T13:34:32Z</time>
      </trkpt>
      <trkpt lat="48.07688" lon="-4.28017">
        <ele>52.048583984375</ele>
        <time>2015-12-19T13:34:38Z</time>
      </trkpt>
      <trkpt lat="48.07685" lon="-4.28001">
        <ele>54.932373046875</ele>
        <time>2015-12-19T13:34:43Z</time>
      </trkpt>
      <trkpt lat="48.07684" lon="-4.27997">
        <ele>51.56787109375</ele>
        <time>2015-12-19T13:34:46Z</time>
      </trkpt>
      <trkpt lat="48.07683" lon="-4.27991">
        <ele>50.1259765625</ele>
        <time>2015-12-19T13:34:49Z</time>
      </trkpt>
      <trkpt lat="48.07683" lon="-4.27987">
        <ele>49.16455078125</ele>
        <time>2015-12-19T13:34:51Z</time>
      </trkpt>
      <trkpt lat="48.07681" lon="-4.27977">
        <ele>43.396606445312</ele>
        <time>2015-12-19T13:34:58Z</time>
      </trkpt>
      <trkpt lat="48.0768" lon="-4.27971">
        <ele>42.435424804688</ele>
        <time>2015-12-19T13:35:01Z</time>
      </trkpt>
      <trkpt lat="48.07677" lon="-4.27958">
        <ele>42.435424804688</ele>
        <time>2015-12-19T13:35:08Z</time>
      </trkpt>
      <trkpt lat="48.07674" lon="-4.2795">
        <ele>41.954711914062</ele>
        <time>2015-12-19T13:35:13Z</time>
      </trkpt>
      <trkpt lat="48.07673" lon="-4.27946">
        <ele>40.993408203125</ele>
        <time>2015-12-19T13:35:15Z</time>
      </trkpt>
      <trkpt lat="48.07671" lon="-4.27933">
        <ele>40.993408203125</ele>
        <time>2015-12-19T13:35:20Z</time>
      </trkpt>
      <trkpt lat="48.07668" lon="-4.27924">
        <ele>42.916015625</ele>
        <time>2015-12-19T13:35:25Z</time>
      </trkpt>
      <trkpt lat="48.07664" lon="-4.2791">
        <ele>44.358032226562</ele>
        <time>2015-12-19T13:35:32Z</time>
      </trkpt>
      <trkpt lat="48.07662" lon="-4.27895">
        <ele>44.358032226562</ele>
        <time>2015-12-19T13:35:39Z</time>
      </trkpt>
      <trkpt lat="48.07658" lon="-4.27883">
        <ele>43.877319335938</ele>
        <time>2015-12-19T13:35:45Z</time>
      </trkpt>
      <trkpt lat="48.07657" lon="-4.27877">
        <ele>42.916015625</ele>
        <time>2015-12-19T13:35:49Z</time>
      </trkpt>
      <trkpt lat="48.07656" lon="-4.27869">
        <ele>43.396606445312</ele>
        <time>2015-12-19T13:35:52Z</time>
      </trkpt>
      <trkpt lat="48.07655" lon="-4.27861">
        <ele>44.358032226562</ele>
        <time>2015-12-19T13:35:56Z</time>
      </trkpt>
      <trkpt lat="48.07651" lon="-4.27849">
        <ele>45.319213867188</ele>
        <time>2015-12-19T13:36:02Z</time>
      </trkpt>
      <trkpt lat="48.07647" lon="-4.27835">
        <ele>46.76123046875</ele>
        <time>2015-12-19T13:36:08Z</time>
      </trkpt>
      <trkpt lat="48.07643" lon="-4.27822">
        <ele>47.722534179688</ele>
        <time>2015-12-19T13:36:14Z</time>
      </trkpt>
      <trkpt lat="48.07642" lon="-4.27817">
        <ele>47.722534179688</ele>
        <time>2015-12-19T13:36:16Z</time>
      </trkpt>
      <trkpt lat="48.07642" lon="-4.27813">
        <ele>47.722534179688</ele>
        <time>2015-12-19T13:36:18Z</time>
      </trkpt>
      <trkpt lat="48.07638" lon="-4.27802">
        <ele>48.203369140625</ele>
        <time>2015-12-19T13:36:24Z</time>
      </trkpt>
      <trkpt lat="48.07636" lon="-4.27793">
        <ele>45.319213867188</ele>
        <time>2015-12-19T13:36:29Z</time>
      </trkpt>
      <trkpt lat="48.07634" lon="-4.27785">
        <ele>44.358032226562</ele>
        <time>2015-12-19T13:36:35Z</time>
      </trkpt>
      <trkpt lat="48.07632" lon="-4.27776">
        <ele>45.319213867188</ele>
        <time>2015-12-19T13:36:39Z</time>
      </trkpt>
      <trkpt lat="48.07629" lon="-4.27767">
        <ele>48.683959960938</ele>
        <time>2015-12-19T13:36:43Z</time>
      </trkpt>
      <trkpt lat="48.07627" lon="-4.27758">
        <ele>49.645263671875</ele>
        <time>2015-12-19T13:36:48Z</time>
      </trkpt>
      <trkpt lat="48.07624" lon="-4.27742">
        <ele>51.087158203125</ele>
        <time>2015-12-19T13:36:55Z</time>
      </trkpt>
      <trkpt lat="48.07622" lon="-4.27732">
        <ele>52.529174804688</ele>
        <time>2015-12-19T13:36:59Z</time>
      </trkpt>
      <trkpt lat="48.07619" lon="-4.27725">
        <ele>54.451782226562</ele>
        <time>2015-12-19T13:37:03Z</time>
      </trkpt>
      <trkpt lat="48.07614" lon="-4.27718">
        <ele>56.37451171875</ele>
        <time>2015-12-19T13:37:07Z</time>
      </trkpt>
      <trkpt lat="48.07611" lon="-4.27709">
        <ele>55.4130859375</ele>
        <time>2015-12-19T13:37:12Z</time>
      </trkpt>
      <trkpt lat="48.0761" lon="-4.27713">
        <ele>46.76123046875</ele>
        <time>2015-12-19T13:37:19Z</time>
      </trkpt>
      <trkpt lat="48.07608" lon="-4.27719">
        <ele>43.396606445312</ele>
        <time>2015-12-19T13:37:23Z</time>
      </trkpt>
      <trkpt lat="48.07607" lon="-4.27732">
        <ele>36.66748046875</ele>
        <time>2015-12-19T13:37:28Z</time>
      </trkpt>
      <trkpt lat="48.07608" lon="-4.27739">
        <ele>33.783447265625</ele>
        <time>2015-12-19T13:37:36Z</time>
      </trkpt>
      <trkpt lat="48.07603" lon="-4.27743">
        <ele>35.7060546875</ele>
        <time>2015-12-19T13:37:40Z</time>
      </trkpt>
      <trkpt lat="48.07599" lon="-4.27751">
        <ele>37.148071289062</ele>
        <time>2015-12-19T13:37:46Z</time>
      </trkpt>
      <trkpt lat="48.07595" lon="-4.2776">
        <ele>38.109375</ele>
        <time>2015-12-19T13:37:51Z</time>
      </trkpt>
      <trkpt lat="48.07591" lon="-4.27771">
        <ele>39.55126953125</ele>
        <time>2015-12-19T13:37:56Z</time>
      </trkpt>
      <trkpt lat="48.0759" lon="-4.27773">
        <ele>40.512817382812</ele>
        <time>2015-12-19T13:37:58Z</time>
      </trkpt>
      <trkpt lat="48.07589" lon="-4.27779">
        <ele>41.473999023438</ele>
        <time>2015-12-19T13:38:01Z</time>
      </trkpt>
      <trkpt lat="48.07584" lon="-4.27793">
        <ele>42.435424804688</ele>
        <time>2015-12-19T13:38:09Z</time>
      </trkpt>
      <trkpt lat="48.07583" lon="-4.27796">
        <ele>43.396606445312</ele>
        <time>2015-12-19T13:38:11Z</time>
      </trkpt>
      <trkpt lat="48.0758" lon="-4.27806">
        <ele>44.838623046875</ele>
        <time>2015-12-19T13:38:16Z</time>
      </trkpt>
      <trkpt lat="48.07573" lon="-4.27817">
        <ele>46.76123046875</ele>
        <time>2015-12-19T13:38:24Z</time>
      </trkpt>
      <trkpt lat="48.07569" lon="-4.27826">
        <ele>46.76123046875</ele>
        <time>2015-12-19T13:38:29Z</time>
      </trkpt>
      <trkpt lat="48.07564" lon="-4.27834">
        <ele>48.683959960938</ele>
        <time>2015-12-19T13:38:35Z</time>
      </trkpt>
      <trkpt lat="48.07558" lon="-4.27839">
        <ele>49.645263671875</ele>
        <time>2015-12-19T13:38:42Z</time>
      </trkpt>
      <trkpt lat="48.07553" lon="-4.27848">
        <ele>47.722534179688</ele>
        <time>2015-12-19T13:38:49Z</time>
      </trkpt>
      <trkpt lat="48.07545" lon="-4.27854">
        <ele>47.722534179688</ele>
        <time>2015-12-19T13:38:57Z</time>
      </trkpt>
      <trkpt lat="48.07536" lon="-4.27856">
        <ele>48.683959960938</ele>
        <time>2015-12-19T13:39:04Z</time>
      </trkpt>
      <trkpt lat="48.07529" lon="-4.27856">
        <ele>51.087158203125</ele>
        <time>2015-12-19T13:39:09Z</time>
      </trkpt>
      <trkpt lat="48.07522" lon="-4.27854">
        <ele>50.606567382812</ele>
        <time>2015-12-19T13:39:15Z</time>
      </trkpt>
      <trkpt lat="48.07513" lon="-4.27847">
        <ele>51.087158203125</ele>
        <time>2015-12-19T13:39:23Z</time>
      </trkpt>
      <trkpt lat="48.07505" lon="-4.27842">
        <ele>50.606567382812</ele>
        <time>2015-12-19T13:39:30Z</time>
      </trkpt>
      <trkpt lat="48.07498" lon="-4.27836">
        <ele>51.56787109375</ele>
        <time>2015-12-19T13:39:36Z</time>
      </trkpt>
      <trkpt lat="48.07494" lon="-4.27833">
        <ele>51.087158203125</ele>
        <time>2015-12-19T13:39:40Z</time>
      </trkpt>
      <trkpt lat="48.07482" lon="-4.27824">
        <ele>53.009765625</ele>
        <time>2015-12-19T13:39:50Z</time>
      </trkpt>
      <trkpt lat="48.07475" lon="-4.27818">
        <ele>53.97119140625</ele>
        <time>2015-12-19T13:39:56Z</time>
      </trkpt>
      <trkpt lat="48.07465" lon="-4.27811">
        <ele>53.97119140625</ele>
        <time>2015-12-19T13:40:04Z</time>
      </trkpt>
      <trkpt lat="48.0746" lon="-4.27805">
        <ele>52.529174804688</ele>
        <time>2015-12-19T13:40:09Z</time>
      </trkpt>
      <trkpt lat="48.07451" lon="-4.27795">
        <ele>54.451782226562</ele>
        <time>2015-12-19T13:40:16Z</time>
      </trkpt>
      <trkpt lat="48.07445" lon="-4.27792">
        <ele>54.932373046875</ele>
        <time>2015-12-19T13:40:22Z</time>
      </trkpt>
      <trkpt lat="48.07438" lon="-4.27791">
        <ele>57.816528320312</ele>
        <time>2015-12-19T13:40:27Z</time>
      </trkpt>
      <trkpt lat="48.07433" lon="-4.27796">
        <ele>57.816528320312</ele>
        <time>2015-12-19T13:40:32Z</time>
      </trkpt>
      <trkpt lat="48.07428" lon="-4.27802">
        <ele>56.855102539062</ele>
        <time>2015-12-19T13:40:37Z</time>
      </trkpt>
      <trkpt lat="48.0742" lon="-4.27814">
        <ele>55.893798828125</ele>
        <time>2015-12-19T13:40:45Z</time>
      </trkpt>
      <trkpt lat="48.07413" lon="-4.27825">
        <ele>56.855102539062</ele>
        <time>2015-12-19T13:40:52Z</time>
      </trkpt>
      <trkpt lat="48.07408" lon="-4.2784">
        <ele>56.855102539062</ele>
        <time>2015-12-19T13:41:00Z</time>
      </trkpt>
      <trkpt lat="48.07402" lon="-4.27858">
        <ele>57.816528320312</ele>
        <time>2015-12-19T13:41:09Z</time>
      </trkpt>
      <trkpt lat="48.07397" lon="-4.27875">
        <ele>58.777709960938</ele>
        <time>2015-12-19T13:41:18Z</time>
      </trkpt>
      <trkpt lat="48.07393" lon="-4.2789">
        <ele>57.816528320312</ele>
        <time>2015-12-19T13:41:26Z</time>
      </trkpt>
      <trkpt lat="48.07387" lon="-4.27907">
        <ele>58.777709960938</ele>
        <time>2015-12-19T13:41:35Z</time>
      </trkpt>
      <trkpt lat="48.07382" lon="-4.27926">
        <ele>58.777709960938</ele>
        <time>2015-12-19T13:41:44Z</time>
      </trkpt>
      <trkpt lat="48.07377" lon="-4.2794">
        <ele>57.816528320312</ele>
        <time>2015-12-19T13:41:52Z</time>
      </trkpt>
      <trkpt lat="48.07374" lon="-4.27954">
        <ele>57.816528320312</ele>
        <time>2015-12-19T13:41:59Z</time>
      </trkpt>
      <trkpt lat="48.07371" lon="-4.27965">
        <ele>57.335815429688</ele>
        <time>2015-12-19T13:42:05Z</time>
      </trkpt>
      <trkpt lat="48.07367" lon="-4.27979">
        <ele>58.297119140625</ele>
        <time>2015-12-19T13:42:12Z</time>
      </trkpt>
      <trkpt lat="48.07363" lon="-4.27997">
        <ele>58.297119140625</ele>
        <time>2015-12-19T13:42:21Z</time>
      </trkpt>
      <trkpt lat="48.0736" lon="-4.28012">
        <ele>59.258422851562</ele>
        <time>2015-12-19T13:42:28Z</time>
      </trkpt>
      <trkpt lat="48.07357" lon="-4.28032">
        <ele>59.739135742188</ele>
        <time>2015-12-19T13:42:38Z</time>
      </trkpt>
      <trkpt lat="48.07355" lon="-4.28049">
        <ele>59.739135742188</ele>
        <time>2015-12-19T13:42:46Z</time>
      </trkpt>
      <trkpt lat="48.07354" lon="-4.28061">
        <ele>59.739135742188</ele>
        <time>2015-12-19T13:42:52Z</time>
      </trkpt>
      <trkpt lat="48.07354" lon="-4.28067">
        <ele>59.739135742188</ele>
        <time>2015-12-19T13:42:55Z</time>
      </trkpt>
      <trkpt lat="48.07354" lon="-4.28076">
        <ele>59.258422851562</ele>
        <time>2015-12-19T13:43:00Z</time>
      </trkpt>
      <trkpt lat="48.07353" lon="-4.28092">
        <ele>60.2197265625</ele>
        <time>2015-12-19T13:43:07Z</time>
      </trkpt>
      <trkpt lat="48.07353" lon="-4.28094">
        <ele>60.2197265625</ele>
        <time>2015-12-19T13:43:08Z</time>
      </trkpt>
      <trkpt lat="48.07353" lon="-4.28108">
        <ele>60.700317382812</ele>
        <time>2015-12-19T13:43:15Z</time>
      </trkpt>
      <trkpt lat="48.07353" lon="-4.28128">
        <ele>61.661743164062</ele>
        <time>2015-12-19T13:43:24Z</time>
      </trkpt>
      <trkpt lat="48.07354" lon="-4.2815">
        <ele>62.622924804688</ele>
        <time>2015-12-19T13:43:34Z</time>
      </trkpt>
      <trkpt lat="48.07356" lon="-4.28171">
        <ele>64.065063476562</ele>
        <time>2015-12-19T13:43:44Z</time>
      </trkpt>
      <trkpt lat="48.07357" lon="-4.2819">
        <ele>65.0263671875</ele>
        <time>2015-12-19T13:43:53Z</time>
      </trkpt>
      <trkpt lat="48.07359" lon="-4.2821">
        <ele>65.987670898438</ele>
        <time>2015-12-19T13:44:03Z</time>
      </trkpt>
      <trkpt lat="48.0736" lon="-4.28231">
        <ele>66.948974609375</ele>
        <time>2015-12-19T13:44:13Z</time>
      </trkpt>
      <trkpt lat="48.07362" lon="-4.28252">
        <ele>67.910278320312</ele>
        <time>2015-12-19T13:44:23Z</time>
      </trkpt>
      <trkpt lat="48.07364" lon="-4.28275">
        <ele>68.87158203125</ele>
        <time>2015-12-19T13:44:34Z</time>
      </trkpt>
      <trkpt lat="48.07365" lon="-4.28296">
        <ele>69.352294921875</ele>
        <time>2015-12-19T13:44:44Z</time>
      </trkpt>
      <trkpt lat="48.07367" lon="-4.28316">
        <ele>69.832885742188</ele>
        <time>2015-12-19T13:44:54Z</time>
      </trkpt>
      <trkpt lat="48.07369" lon="-4.28335">
        <ele>70.3134765625</ele>
        <time>2015-12-19T13:45:03Z</time>
      </trkpt>
      <trkpt lat="48.0737" lon="-4.28353">
        <ele>70.794189453125</ele>
        <time>2015-12-19T13:45:12Z</time>
      </trkpt>
      <trkpt lat="48.07372" lon="-4.28374">
        <ele>71.755493164062</ele>
        <time>2015-12-19T13:45:22Z</time>
      </trkpt>
      <trkpt lat="48.07373" lon="-4.28392">
        <ele>71.755493164062</ele>
        <time>2015-12-19T13:45:31Z</time>
      </trkpt>
      <trkpt lat="48.07373" lon="-4.28405">
        <ele>71.27490234375</ele>
        <time>2015-12-19T13:45:37Z</time>
      </trkpt>
      <trkpt lat="48.07374" lon="-4.28415">
        <ele>70.3134765625</ele>
        <time>2015-12-19T13:45:41Z</time>
      </trkpt>
      <trkpt lat="48.07376" lon="-4.28431">
        <ele>68.390869140625</ele>
        <time>2015-12-19T13:45:49Z</time>
      </trkpt>
      <trkpt lat="48.07378" lon="-4.28449">
        <ele>66.46826171875</ele>
        <time>2015-12-19T13:45:59Z</time>
      </trkpt>
      <trkpt lat="48.07379" lon="-4.28459">
        <ele>65.507080078125</ele>
        <time>2015-12-19T13:46:04Z</time>
      </trkpt>
      <trkpt lat="48.07379" lon="-4.28468">
        <ele>65.507080078125</ele>
        <time>2015-12-19T13:46:08Z</time>
      </trkpt>
      <trkpt lat="48.07378" lon="-4.2848">
        <ele>65.987670898438</ele>
        <time>2015-12-19T13:46:15Z</time>
      </trkpt>
      <trkpt lat="48.07372" lon="-4.28485">
        <ele>66.948974609375</ele>
        <time>2015-12-19T13:46:19Z</time>
      </trkpt>
      <trkpt lat="48.07362" lon="-4.28485">
        <ele>66.948974609375</ele>
        <time>2015-12-19T13:46:27Z</time>
      </trkpt>
      <trkpt lat="48.07356" lon="-4.28484">
        <ele>66.948974609375</ele>
        <time>2015-12-19T13:46:31Z</time>
      </trkpt>
      <trkpt lat="48.07357" lon="-4.2848">
        <ele>66.46826171875</ele>
        <time>2015-12-19T13:46:36Z</time>
      </trkpt>
      <trkpt lat="48.07358" lon="-4.28481">
        <ele>65.987670898438</ele>
        <time>2015-12-19T13:46:38Z</time>
      </trkpt>
      <trkpt lat="48.07344" lon="-4.28478">
        <ele>65.0263671875</ele>
        <time>2015-12-19T13:46:48Z</time>
      </trkpt>
      <trkpt lat="48.07338" lon="-4.28477">
        <ele>64.545654296875</ele>
        <time>2015-12-19T13:46:53Z</time>
      </trkpt>
      <trkpt lat="48.07329" lon="-4.28478">
        <ele>62.622924804688</ele>
        <time>2015-12-19T13:46:59Z</time>
      </trkpt>
      <trkpt lat="48.07322" lon="-4.28479">
        <ele>61.181030273438</ele>
        <time>2015-12-19T13:47:04Z</time>
      </trkpt>
      <trkpt lat="48.07318" lon="-4.28479">
        <ele>60.700317382812</ele>
        <time>2015-12-19T13:47:09Z</time>
      </trkpt>
      <trkpt lat="48.07309" lon="-4.28476">
        <ele>60.2197265625</ele>
        <time>2015-12-19T13:47:16Z</time>
      </trkpt>
      <trkpt lat="48.07305" lon="-4.28475">
        <ele>60.2197265625</ele>
        <time>2015-12-19T13:47:19Z</time>
      </trkpt>
      <trkpt lat="48.0729" lon="-4.28473">
        <ele>60.2197265625</ele>
        <time>2015-12-19T13:47:30Z</time>
      </trkpt>
      <trkpt lat="48.07276" lon="-4.28472">
        <ele>60.2197265625</ele>
        <time>2015-12-19T13:47:40Z</time>
      </trkpt>
      <trkpt lat="48.07261" lon="-4.2847">
        <ele>60.700317382812</ele>
        <time>2015-12-19T13:47:51Z</time>
      </trkpt>
      <trkpt lat="48.07245" lon="-4.28468">
        <ele>61.181030273438</ele>
        <time>2015-12-19T13:48:02Z</time>
      </trkpt>
      <trkpt lat="48.07233" lon="-4.28467">
        <ele>61.181030273438</ele>
        <time>2015-12-19T13:48:11Z</time>
      </trkpt>
      <trkpt lat="48.07217" lon="-4.28466">
        <ele>60.700317382812</ele>
        <time>2015-12-19T13:48:22Z</time>
      </trkpt>
      <trkpt lat="48.07204" lon="-4.28465">
        <ele>61.181030273438</ele>
        <time>2015-12-19T13:48:31Z</time>
      </trkpt>
      <trkpt lat="48.0719" lon="-4.28466">
        <ele>60.2197265625</ele>
        <time>2015-12-19T13:48:41Z</time>
      </trkpt>
      <trkpt lat="48.07175" lon="-4.28469">
        <ele>59.739135742188</ele>
        <time>2015-12-19T13:48:52Z</time>
      </trkpt>
      <trkpt lat="48.07159" lon="-4.28474">
        <ele>59.258422851562</ele>
        <time>2015-12-19T13:49:04Z</time>
      </trkpt>
      <trkpt lat="48.07148" lon="-4.28479">
        <ele>58.777709960938</ele>
        <time>2015-12-19T13:49:12Z</time>
      </trkpt>
      <trkpt lat="48.0714" lon="-4.28481">
        <ele>59.258422851562</ele>
        <time>2015-12-19T13:49:18Z</time>
      </trkpt>
      <trkpt lat="48.07128" lon="-4.28485">
        <ele>58.777709960938</ele>
        <time>2015-12-19T13:49:27Z</time>
      </trkpt>
      <trkpt lat="48.07115" lon="-4.2849">
        <ele>58.297119140625</ele>
        <time>2015-12-19T13:49:36Z</time>
      </trkpt>
      <trkpt lat="48.07102" lon="-4.28495">
        <ele>57.816528320312</ele>
        <time>2015-12-19T13:49:46Z</time>
      </trkpt>
      <trkpt lat="48.07097" lon="-4.28498">
        <ele>57.816528320312</ele>
        <time>2015-12-19T13:49:50Z</time>
      </trkpt>
      <trkpt lat="48.07088" lon="-4.28502">
        <ele>58.297119140625</ele>
        <time>2015-12-19T13:49:57Z</time>
      </trkpt>
      <trkpt lat="48.0708" lon="-4.28514">
        <ele>59.258422851562</ele>
        <time>2015-12-19T13:50:06Z</time>
      </trkpt>
      <trkpt lat="48.07074" lon="-4.28524">
        <ele>61.181030273438</ele>
        <time>2015-12-19T13:50:12Z</time>
      </trkpt>
      <trkpt lat="48.07068" lon="-4.28537">
        <ele>63.103637695312</ele>
        <time>2015-12-19T13:50:20Z</time>
      </trkpt>
      <trkpt lat="48.07061" lon="-4.28552">
        <ele>64.545654296875</ele>
        <time>2015-12-19T13:50:29Z</time>
      </trkpt>
      <trkpt lat="48.07056" lon="-4.28563">
        <ele>65.0263671875</ele>
        <time>2015-12-19T13:50:35Z</time>
      </trkpt>
      <trkpt lat="48.07053" lon="-4.28575">
        <ele>65.507080078125</ele>
        <time>2015-12-19T13:50:41Z</time>
      </trkpt>
      <trkpt lat="48.07053" lon="-4.28579">
        <ele>65.507080078125</ele>
        <time>2015-12-19T13:50:43Z</time>
      </trkpt>
      <trkpt lat="48.07052" lon="-4.286">
        <ele>65.507080078125</ele>
        <time>2015-12-19T13:50:53Z</time>
      </trkpt>
      <trkpt lat="48.07053" lon="-4.28609">
        <ele>65.507080078125</ele>
        <time>2015-12-19T13:50:57Z</time>
      </trkpt>
      <trkpt lat="48.07053" lon="-4.28623">
        <ele>65.507080078125</ele>
        <time>2015-12-19T13:51:04Z</time>
      </trkpt>
      <trkpt lat="48.07055" lon="-4.28643">
        <ele>65.987670898438</ele>
        <time>2015-12-19T13:51:14Z</time>
      </trkpt>
      <trkpt lat="48.07057" lon="-4.2866">
        <ele>65.507080078125</ele>
        <time>2015-12-19T13:51:22Z</time>
      </trkpt>
      <trkpt lat="48.0706" lon="-4.28681">
        <ele>65.507080078125</ele>
        <time>2015-12-19T13:51:32Z</time>
      </trkpt>
      <trkpt lat="48.07062" lon="-4.28699">
        <ele>65.0263671875</ele>
        <time>2015-12-19T13:51:41Z</time>
      </trkpt>
      <trkpt lat="48.07064" lon="-4.28721">
        <ele>65.0263671875</ele>
        <time>2015-12-19T13:51:51Z</time>
      </trkpt>
      <trkpt lat="48.07065" lon="-4.28743">
        <ele>65.0263671875</ele>
        <time>2015-12-19T13:52:02Z</time>
      </trkpt>
      <trkpt lat="48.07067" lon="-4.28763">
        <ele>65.0263671875</ele>
        <time>2015-12-19T13:52:12Z</time>
      </trkpt>
      <trkpt lat="48.07068" lon="-4.28778">
        <ele>65.987670898438</ele>
        <time>2015-12-19T13:52:20Z</time>
      </trkpt>
      <trkpt lat="48.0707" lon="-4.2879">
        <ele>65.0263671875</ele>
        <time>2015-12-19T13:52:26Z</time>
      </trkpt>
      <trkpt lat="48.07072" lon="-4.28806">
        <ele>65.0263671875</ele>
        <time>2015-12-19T13:52:34Z</time>
      </trkpt>
      <trkpt lat="48.07075" lon="-4.28817">
        <ele>64.065063476562</ele>
        <time>2015-12-19T13:52:40Z</time>
      </trkpt>
      <trkpt lat="48.07076" lon="-4.28832">
        <ele>63.103637695312</ele>
        <time>2015-12-19T13:52:47Z</time>
      </trkpt>
      <trkpt lat="48.07076" lon="-4.28836">
        <ele>63.103637695312</ele>
        <time>2015-12-19T13:52:49Z</time>
      </trkpt>
      <trkpt lat="48.07077" lon="-4.2884">
        <ele>63.103637695312</ele>
        <time>2015-12-19T13:52:51Z</time>
      </trkpt>
      <trkpt lat="48.07078" lon="-4.2885">
        <ele>63.103637695312</ele>
        <time>2015-12-19T13:52:56Z</time>
      </trkpt>
      <trkpt lat="48.07078" lon="-4.28854">
        <ele>62.142333984375</ele>
        <time>2015-12-19T13:52:58Z</time>
      </trkpt>
      <trkpt lat="48.07078" lon="-4.28867">
        <ele>60.2197265625</ele>
        <time>2015-12-19T13:53:04Z</time>
      </trkpt>
      <trkpt lat="48.07078" lon="-4.28871">
        <ele>60.2197265625</ele>
        <time>2015-12-19T13:53:06Z</time>
      </trkpt>
      <trkpt lat="48.07079" lon="-4.28884">
        <ele>61.181030273438</ele>
        <time>2015-12-19T13:53:12Z</time>
      </trkpt>
      <trkpt lat="48.07079" lon="-4.28888">
        <ele>61.181030273438</ele>
        <time>2015-12-19T13:53:14Z</time>
      </trkpt>
      <trkpt lat="48.0708" lon="-4.28902">
        <ele>61.661743164062</ele>
        <time>2015-12-19T13:53:21Z</time>
      </trkpt>
      <trkpt lat="48.0708" lon="-4.28911">
        <ele>62.142333984375</ele>
        <time>2015-12-19T13:53:25Z</time>
      </trkpt>
      <trkpt lat="48.07082" lon="-4.28923">
        <ele>63.584350585938</ele>
        <time>2015-12-19T13:53:31Z</time>
      </trkpt>
      <trkpt lat="48.07082" lon="-4.28934">
        <ele>64.545654296875</ele>
        <time>2015-12-19T13:53:36Z</time>
      </trkpt>
      <trkpt lat="48.07082" lon="-4.2895">
        <ele>64.545654296875</ele>
        <time>2015-12-19T13:53:44Z</time>
      </trkpt>
      <trkpt lat="48.07082" lon="-4.28961">
        <ele>64.545654296875</ele>
        <time>2015-12-19T13:53:49Z</time>
      </trkpt>
      <trkpt lat="48.07083" lon="-4.28969">
        <ele>64.065063476562</ele>
        <time>2015-12-19T13:53:53Z</time>
      </trkpt>
      <trkpt lat="48.07083" lon="-4.28973">
        <ele>64.065063476562</ele>
        <time>2015-12-19T13:53:55Z</time>
      </trkpt>
      <trkpt lat="48.07083" lon="-4.28987">
        <ele>63.103637695312</ele>
        <time>2015-12-19T13:54:01Z</time>
      </trkpt>
      <trkpt lat="48.07082" lon="-4.28997">
        <ele>62.142333984375</ele>
        <time>2015-12-19T13:54:05Z</time>
      </trkpt>
      <trkpt lat="48.07083" lon="-4.29006">
        <ele>61.181030273438</ele>
        <time>2015-12-19T13:54:10Z</time>
      </trkpt>
      <trkpt lat="48.07083" lon="-4.2901">
        <ele>61.661743164062</ele>
        <time>2015-12-19T13:54:12Z</time>
      </trkpt>
      <trkpt lat="48.0708" lon="-4.29022">
        <ele>60.2197265625</ele>
        <time>2015-12-19T13:54:17Z</time>
      </trkpt>
      <trkpt lat="48.0708" lon="-4.29031">
        <ele>60.2197265625</ele>
        <time>2015-12-19T13:54:21Z</time>
      </trkpt>
      <trkpt lat="48.0708" lon="-4.29043">
        <ele>60.2197265625</ele>
        <time>2015-12-19T13:54:27Z</time>
      </trkpt>
      <trkpt lat="48.0708" lon="-4.29057">
        <ele>57.335815429688</ele>
        <time>2015-12-19T13:54:34Z</time>
      </trkpt>
      <trkpt lat="48.0708" lon="-4.29059">
        <ele>56.855102539062</ele>
        <time>2015-12-19T13:54:35Z</time>
      </trkpt>
      <trkpt lat="48.07082" lon="-4.29071">
        <ele>55.4130859375</ele>
        <time>2015-12-19T13:54:41Z</time>
      </trkpt>
      <trkpt lat="48.0708" lon="-4.29082">
        <ele>54.451782226562</ele>
        <time>2015-12-19T13:54:47Z</time>
      </trkpt>
      <trkpt lat="48.07078" lon="-4.29091">
        <ele>55.4130859375</ele>
        <time>2015-12-19T13:54:52Z</time>
      </trkpt>
      <trkpt lat="48.07076" lon="-4.291">
        <ele>56.855102539062</ele>
        <time>2015-12-19T13:54:57Z</time>
      </trkpt>
      <trkpt lat="48.07076" lon="-4.2911">
        <ele>58.297119140625</ele>
        <time>2015-12-19T13:55:03Z</time>
      </trkpt>
      <trkpt lat="48.07076" lon="-4.29117">
        <ele>58.777709960938</ele>
        <time>2015-12-19T13:55:07Z</time>
      </trkpt>
      <trkpt lat="48.07075" lon="-4.29128">
        <ele>59.739135742188</ele>
        <time>2015-12-19T13:55:12Z</time>
      </trkpt>
      <trkpt lat="48.07075" lon="-4.29138">
        <ele>59.258422851562</ele>
        <time>2015-12-19T13:55:17Z</time>
      </trkpt>
      <trkpt lat="48.07076" lon="-4.29147">
        <ele>61.181030273438</ele>
        <time>2015-12-19T13:55:22Z</time>
      </trkpt>
      <trkpt lat="48.07076" lon="-4.2915">
        <ele>61.661743164062</ele>
        <time>2015-12-19T13:55:24Z</time>
      </trkpt>
      <trkpt lat="48.07078" lon="-4.29155">
        <ele>61.661743164062</ele>
        <time>2015-12-19T13:55:28Z</time>
      </trkpt>
      <trkpt lat="48.07077" lon="-4.29168">
        <ele>62.142333984375</ele>
        <time>2015-12-19T13:55:34Z</time>
      </trkpt>
      <trkpt lat="48.07077" lon="-4.2917">
        <ele>62.142333984375</ele>
        <time>2015-12-19T13:55:35Z</time>
      </trkpt>
      <trkpt lat="48.07075" lon="-4.29185">
        <ele>63.584350585938</ele>
        <time>2015-12-19T13:55:42Z</time>
      </trkpt>
      <trkpt lat="48.07075" lon="-4.29203">
        <ele>64.545654296875</ele>
        <time>2015-12-19T13:55:50Z</time>
      </trkpt>
      <trkpt lat="48.07075" lon="-4.2922">
        <ele>66.948974609375</ele>
        <time>2015-12-19T13:55:58Z</time>
      </trkpt>
      <trkpt lat="48.07075" lon="-4.29225">
        <ele>66.46826171875</ele>
        <time>2015-12-19T13:56:00Z</time>
      </trkpt>
      <trkpt lat="48.07078" lon="-4.29238">
        <ele>66.46826171875</ele>
        <time>2015-12-19T13:56:07Z</time>
      </trkpt>
      <trkpt lat="48.07082" lon="-4.2925">
        <ele>65.987670898438</ele>
        <time>2015-12-19T13:56:14Z</time>
      </trkpt>
      <trkpt lat="48.07084" lon="-4.29259">
        <ele>65.0263671875</ele>
        <time>2015-12-19T13:56:19Z</time>
      </trkpt>
      <trkpt lat="48.07089" lon="-4.29274">
        <ele>64.545654296875</ele>
        <time>2015-12-19T13:56:26Z</time>
      </trkpt>
      <trkpt lat="48.07089" lon="-4.29276">
        <ele>65.0263671875</ele>
        <time>2015-12-19T13:56:27Z</time>
      </trkpt>
      <trkpt lat="48.07091" lon="-4.29288">
        <ele>67.910278320312</ele>
        <time>2015-12-19T13:56:33Z</time>
      </trkpt>
      <trkpt lat="48.07093" lon="-4.29295">
        <ele>66.46826171875</ele>
        <time>2015-12-19T13:56:37Z</time>
      </trkpt>
      <trkpt lat="48.07098" lon="-4.29305">
        <ele>63.103637695312</ele>
        <time>2015-12-19T13:56:43Z</time>
      </trkpt>
      <trkpt lat="48.07101" lon="-4.29318">
        <ele>63.103637695312</ele>
        <time>2015-12-19T13:56:50Z</time>
      </trkpt>
      <trkpt lat="48.07102" lon="-4.29322">
        <ele>62.622924804688</ele>
        <time>2015-12-19T13:56:52Z</time>
      </trkpt>
      <trkpt lat="48.07104" lon="-4.29336">
        <ele>59.258422851562</ele>
        <time>2015-12-19T13:56:59Z</time>
      </trkpt>
      <trkpt lat="48.07105" lon="-4.29341">
        <ele>57.816528320312</ele>
        <time>2015-12-19T13:57:02Z</time>
      </trkpt>
      <trkpt lat="48.07109" lon="-4.29353">
        <ele>55.4130859375</ele>
        <time>2015-12-19T13:57:09Z</time>
      </trkpt>
      <trkpt lat="48.07112" lon="-4.29367">
        <ele>53.97119140625</ele>
        <time>2015-12-19T13:57:16Z</time>
      </trkpt>
      <trkpt lat="48.07111" lon="-4.29383">
        <ele>57.335815429688</ele>
        <time>2015-12-19T13:57:24Z</time>
      </trkpt>
      <trkpt lat="48.07112" lon="-4.29401">
        <ele>57.335815429688</ele>
        <time>2015-12-19T13:57:31Z</time>
      </trkpt>
      <trkpt lat="48.07117" lon="-4.29414">
        <ele>58.297119140625</ele>
        <time>2015-12-19T13:57:38Z</time>
      </trkpt>
      <trkpt lat="48.0712" lon="-4.29427">
        <ele>59.739135742188</ele>
        <time>2015-12-19T13:57:45Z</time>
      </trkpt>
      <trkpt lat="48.07123" lon="-4.29441">
        <ele>61.181030273438</ele>
        <time>2015-12-19T13:57:53Z</time>
      </trkpt>
      <trkpt lat="48.07124" lon="-4.29442">
        <ele>61.181030273438</ele>
        <time>2015-12-19T13:57:55Z</time>
      </trkpt>
      <trkpt lat="48.07128" lon="-4.29452">
        <ele>61.181030273438</ele>
        <time>2015-12-19T13:58:01Z</time>
      </trkpt>
      <trkpt lat="48.07129" lon="-4.29454">
        <ele>61.181030273438</ele>
        <time>2015-12-19T13:58:02Z</time>
      </trkpt>
      <trkpt lat="48.07131" lon="-4.29463">
        <ele>62.142333984375</ele>
        <time>2015-12-19T13:58:07Z</time>
      </trkpt>
      <trkpt lat="48.07133" lon="-4.29474">
        <ele>63.584350585938</ele>
        <time>2015-12-19T13:58:12Z</time>
      </trkpt>
      <trkpt lat="48.07135" lon="-4.29484">
        <ele>63.584350585938</ele>
        <time>2015-12-19T13:58:17Z</time>
      </trkpt>
      <trkpt lat="48.07137" lon="-4.29492">
        <ele>64.065063476562</ele>
        <time>2015-12-19T13:58:21Z</time>
      </trkpt>
      <trkpt lat="48.07135" lon="-4.29498">
        <ele>64.545654296875</ele>
        <time>2015-12-19T13:58:24Z</time>
      </trkpt>
      <trkpt lat="48.07136" lon="-4.29504">
        <ele>63.103637695312</ele>
        <time>2015-12-19T13:58:28Z</time>
      </trkpt>
      <trkpt lat="48.07137" lon="-4.2951">
        <ele>63.103637695312</ele>
        <time>2015-12-19T13:58:32Z</time>
      </trkpt>
      <trkpt lat="48.07143" lon="-4.29527">
        <ele>57.816528320312</ele>
        <time>2015-12-19T13:58:40Z</time>
      </trkpt>
      <trkpt lat="48.07147" lon="-4.29539">
        <ele>57.816528320312</ele>
        <time>2015-12-19T13:58:46Z</time>
      </trkpt>
      <trkpt lat="48.07151" lon="-4.29544">
        <ele>56.855102539062</ele>
        <time>2015-12-19T13:58:50Z</time>
      </trkpt>
      <trkpt lat="48.07153" lon="-4.29554">
        <ele>52.048583984375</ele>
        <time>2015-12-19T13:58:55Z</time>
      </trkpt>
      <trkpt lat="48.07157" lon="-4.29568">
        <ele>48.203369140625</ele>
        <time>2015-12-19T13:59:04Z</time>
      </trkpt>
      <trkpt lat="48.07159" lon="-4.29572">
        <ele>46.76123046875</ele>
        <time>2015-12-19T13:59:06Z</time>
      </trkpt>
      <trkpt lat="48.0716" lon="-4.2958">
        <ele>44.358032226562</ele>
        <time>2015-12-19T13:59:11Z</time>
      </trkpt>
      <trkpt lat="48.07165" lon="-4.29592">
        <ele>44.838623046875</ele>
        <time>2015-12-19T13:59:18Z</time>
      </trkpt>
      <trkpt lat="48.07166" lon="-4.29603">
        <ele>45.799926757812</ele>
        <time>2015-12-19T13:59:24Z</time>
      </trkpt>
      <trkpt lat="48.07162" lon="-4.29613">
        <ele>49.16455078125</ele>
        <time>2015-12-19T13:59:29Z</time>
      </trkpt>
      <trkpt lat="48.07161" lon="-4.29621">
        <ele>51.56787109375</ele>
        <time>2015-12-19T13:59:33Z</time>
      </trkpt>
      <trkpt lat="48.0716" lon="-4.29632">
        <ele>54.451782226562</ele>
        <time>2015-12-19T13:59:38Z</time>
      </trkpt>
      <trkpt lat="48.07165" lon="-4.29641">
        <ele>55.893798828125</ele>
        <time>2015-12-19T13:59:44Z</time>
      </trkpt>
      <trkpt lat="48.07171" lon="-4.29647">
        <ele>55.893798828125</ele>
        <time>2015-12-19T13:59:50Z</time>
      </trkpt>
      <trkpt lat="48.07175" lon="-4.29651">
        <ele>54.932373046875</ele>
        <time>2015-12-19T13:59:54Z</time>
      </trkpt>
      <trkpt lat="48.07181" lon="-4.29659">
        <ele>52.048583984375</ele>
        <time>2015-12-19T14:00:00Z</time>
      </trkpt>
      <trkpt lat="48.07185" lon="-4.29664">
        <ele>51.087158203125</ele>
        <time>2015-12-19T14:00:05Z</time>
      </trkpt>
      <trkpt lat="48.07194" lon="-4.29671">
        <ele>52.529174804688</ele>
        <time>2015-12-19T14:00:11Z</time>
      </trkpt>
      <trkpt lat="48.07202" lon="-4.29681">
        <ele>54.451782226562</ele>
        <time>2015-12-19T14:00:18Z</time>
      </trkpt>
      <trkpt lat="48.07203" lon="-4.29682">
        <ele>53.97119140625</ele>
        <time>2015-12-19T14:00:19Z</time>
      </trkpt>
      <trkpt lat="48.07207" lon="-4.29692">
        <ele>55.4130859375</ele>
        <time>2015-12-19T14:00:25Z</time>
      </trkpt>
      <trkpt lat="48.0721" lon="-4.29697">
        <ele>55.4130859375</ele>
        <time>2015-12-19T14:00:28Z</time>
      </trkpt>
      <trkpt lat="48.07213" lon="-4.29703">
        <ele>54.451782226562</ele>
        <time>2015-12-19T14:00:32Z</time>
      </trkpt>
      <trkpt lat="48.07219" lon="-4.29711">
        <ele>54.932373046875</ele>
        <time>2015-12-19T14:00:37Z</time>
      </trkpt>
      <trkpt lat="48.07223" lon="-4.29718">
        <ele>55.893798828125</ele>
        <time>2015-12-19T14:00:41Z</time>
      </trkpt>
      <trkpt lat="48.0723" lon="-4.29731">
        <ele>52.529174804688</ele>
        <time>2015-12-19T14:00:49Z</time>
      </trkpt>
      <trkpt lat="48.07236" lon="-4.29739">
        <ele>50.606567382812</ele>
        <time>2015-12-19T14:00:55Z</time>
      </trkpt>
      <trkpt lat="48.07236" lon="-4.2974">
        <ele>50.606567382812</ele>
        <time>2015-12-19T14:00:56Z</time>
      </trkpt>
      <trkpt lat="48.0724" lon="-4.29749">
        <ele>50.1259765625</ele>
        <time>2015-12-19T14:01:02Z</time>
      </trkpt>
      <trkpt lat="48.07242" lon="-4.29759">
        <ele>50.1259765625</ele>
        <time>2015-12-19T14:01:07Z</time>
      </trkpt>
      <trkpt lat="48.07244" lon="-4.2977">
        <ele>53.009765625</ele>
        <time>2015-12-19T14:01:12Z</time>
      </trkpt>
      <trkpt lat="48.07246" lon="-4.29775">
        <ele>52.529174804688</ele>
        <time>2015-12-19T14:01:14Z</time>
      </trkpt>
      <trkpt lat="48.07246" lon="-4.29781">
        <ele>53.97119140625</ele>
        <time>2015-12-19T14:01:16Z</time>
      </trkpt>
      <trkpt lat="48.07248" lon="-4.29795">
        <ele>54.451782226562</ele>
        <time>2015-12-19T14:01:22Z</time>
      </trkpt>
      <trkpt lat="48.07249" lon="-4.29799">
        <ele>54.451782226562</ele>
        <time>2015-12-19T14:01:24Z</time>
      </trkpt>
      <trkpt lat="48.07253" lon="-4.29816">
        <ele>56.855102539062</ele>
        <time>2015-12-19T14:01:32Z</time>
      </trkpt>
      <trkpt lat="48.07253" lon="-4.29818">
        <ele>56.855102539062</ele>
        <time>2015-12-19T14:01:33Z</time>
      </trkpt>
      <trkpt lat="48.07255" lon="-4.29826">
        <ele>57.816528320312</ele>
        <time>2015-12-19T14:01:37Z</time>
      </trkpt>
      <trkpt lat="48.07261" lon="-4.29843">
        <ele>61.181030273438</ele>
        <time>2015-12-19T14:01:46Z</time>
      </trkpt>
      <trkpt lat="48.07265" lon="-4.29857">
        <ele>61.661743164062</ele>
        <time>2015-12-19T14:01:53Z</time>
      </trkpt>
      <trkpt lat="48.0727" lon="-4.29871">
        <ele>62.142333984375</ele>
        <time>2015-12-19T14:02:00Z</time>
      </trkpt>
      <trkpt lat="48.07274" lon="-4.2988">
        <ele>61.181030273438</ele>
        <time>2015-12-19T14:02:05Z</time>
      </trkpt>
      <trkpt lat="48.07279" lon="-4.29889">
        <ele>59.739135742188</ele>
        <time>2015-12-19T14:02:10Z</time>
      </trkpt>
      <trkpt lat="48.07284" lon="-4.29894">
        <ele>59.739135742188</ele>
        <time>2015-12-19T14:02:15Z</time>
      </trkpt>
      <trkpt lat="48.07293" lon="-4.299">
        <ele>58.297119140625</ele>
        <time>2015-12-19T14:02:22Z</time>
      </trkpt>
      <trkpt lat="48.07298" lon="-4.29901">
        <ele>57.816528320312</ele>
        <time>2015-12-19T14:02:26Z</time>
      </trkpt>
      <trkpt lat="48.07304" lon="-4.29902">
        <ele>58.297119140625</ele>
        <time>2015-12-19T14:02:31Z</time>
      </trkpt>
      <trkpt lat="48.07316" lon="-4.29904">
        <ele>60.2197265625</ele>
        <time>2015-12-19T14:02:39Z</time>
      </trkpt>
      <trkpt lat="48.07326" lon="-4.29906">
        <ele>61.181030273438</ele>
        <time>2015-12-19T14:02:46Z</time>
      </trkpt>
      <trkpt lat="48.07339" lon="-4.29909">
        <ele>62.142333984375</ele>
        <time>2015-12-19T14:02:55Z</time>
      </trkpt>
      <trkpt lat="48.07349" lon="-4.29911">
        <ele>62.622924804688</ele>
        <time>2015-12-19T14:03:02Z</time>
      </trkpt>
      <trkpt lat="48.07361" lon="-4.29917">
        <ele>62.622924804688</ele>
        <time>2015-12-19T14:03:11Z</time>
      </trkpt>
      <trkpt lat="48.07373" lon="-4.29925">
        <ele>61.661743164062</ele>
        <time>2015-12-19T14:03:20Z</time>
      </trkpt>
      <trkpt lat="48.07381" lon="-4.29934">
        <ele>62.142333984375</ele>
        <time>2015-12-19T14:03:28Z</time>
      </trkpt>
      <trkpt lat="48.07388" lon="-4.29943">
        <ele>62.142333984375</ele>
        <time>2015-12-19T14:03:35Z</time>
      </trkpt>
      <trkpt lat="48.07396" lon="-4.29953">
        <ele>60.700317382812</ele>
        <time>2015-12-19T14:03:42Z</time>
      </trkpt>
      <trkpt lat="48.07406" lon="-4.29965">
        <ele>59.739135742188</ele>
        <time>2015-12-19T14:03:51Z</time>
      </trkpt>
      <trkpt lat="48.07409" lon="-4.29969">
        <ele>59.258422851562</ele>
        <time>2015-12-19T14:03:54Z</time>
      </trkpt>
      <trkpt lat="48.07415" lon="-4.29975">
        <ele>59.739135742188</ele>
        <time>2015-12-19T14:03:59Z</time>
      </trkpt>
      <trkpt lat="48.0742" lon="-4.29982">
        <ele>58.297119140625</ele>
        <time>2015-12-19T14:04:04Z</time>
      </trkpt>
      <trkpt lat="48.0743" lon="-4.2999">
        <ele>55.893798828125</ele>
        <time>2015-12-19T14:04:12Z</time>
      </trkpt>
      <trkpt lat="48.0744" lon="-4.29999">
        <ele>55.4130859375</ele>
        <time>2015-12-19T14:04:20Z</time>
      </trkpt>
      <trkpt lat="48.07444" lon="-4.30002">
        <ele>54.932373046875</ele>
        <time>2015-12-19T14:04:24Z</time>
      </trkpt>
      <trkpt lat="48.07457" lon="-4.30008">
        <ele>53.97119140625</ele>
        <time>2015-12-19T14:04:34Z</time>
      </trkpt>
      <trkpt lat="48.0747" lon="-4.30014">
        <ele>54.451782226562</ele>
        <time>2015-12-19T14:04:44Z</time>
      </trkpt>
      <trkpt lat="48.07481" lon="-4.30017">
        <ele>54.932373046875</ele>
        <time>2015-12-19T14:04:52Z</time>
      </trkpt>
      <trkpt lat="48.07493" lon="-4.30021">
        <ele>54.932373046875</ele>
        <time>2015-12-19T14:05:01Z</time>
      </trkpt>
      <trkpt lat="48.07503" lon="-4.30023">
        <ele>55.4130859375</ele>
        <time>2015-12-19T14:05:08Z</time>
      </trkpt>
      <trkpt lat="48.07512" lon="-4.30025">
        <ele>56.855102539062</ele>
        <time>2015-12-19T14:05:15Z</time>
      </trkpt>
      <trkpt lat="48.07521" lon="-4.30026">
        <ele>56.37451171875</ele>
        <time>2015-12-19T14:05:22Z</time>
      </trkpt>
      <trkpt lat="48.07526" lon="-4.30026">
        <ele>55.4130859375</ele>
        <time>2015-12-19T14:05:26Z</time>
      </trkpt>
      <trkpt lat="48.07535" lon="-4.30023">
        <ele>53.490478515625</ele>
        <time>2015-12-19T14:05:34Z</time>
      </trkpt>
      <trkpt lat="48.07545" lon="-4.30019">
        <ele>53.490478515625</ele>
        <time>2015-12-19T14:05:42Z</time>
      </trkpt>
      <trkpt lat="48.07552" lon="-4.30012">
        <ele>52.048583984375</ele>
        <time>2015-12-19T14:05:49Z</time>
      </trkpt>
      <trkpt lat="48.07558" lon="-4.30003">
        <ele>50.1259765625</ele>
        <time>2015-12-19T14:05:56Z</time>
      </trkpt>
      <trkpt lat="48.07559" lon="-4.30002">
        <ele>49.645263671875</ele>
        <time>2015-12-19T14:05:57Z</time>
      </trkpt>
      <trkpt lat="48.07565" lon="-4.2999">
        <ele>48.683959960938</ele>
        <time>2015-12-19T14:06:04Z</time>
      </trkpt>
      <trkpt lat="48.07571" lon="-4.29982">
        <ele>47.722534179688</ele>
        <time>2015-12-19T14:06:09Z</time>
      </trkpt>
      <trkpt lat="48.07574" lon="-4.29972">
        <ele>46.280639648438</ele>
        <time>2015-12-19T14:06:15Z</time>
      </trkpt>
      <trkpt lat="48.07575" lon="-4.2997">
        <ele>45.319213867188</ele>
        <time>2015-12-19T14:06:17Z</time>
      </trkpt>
      <trkpt lat="48.07577" lon="-4.29957">
        <ele>43.877319335938</ele>
        <time>2015-12-19T14:06:23Z</time>
      </trkpt>
      <trkpt lat="48.07578" lon="-4.29951">
        <ele>44.358032226562</ele>
        <time>2015-12-19T14:06:26Z</time>
      </trkpt>
      <trkpt lat="48.0758" lon="-4.29941">
        <ele>47.722534179688</ele>
        <time>2015-12-19T14:06:32Z</time>
      </trkpt>
      <trkpt lat="48.07582" lon="-4.29935">
        <ele>48.203369140625</ele>
        <time>2015-12-19T14:06:36Z</time>
      </trkpt>
      <trkpt lat="48.07582" lon="-4.29933">
        <ele>49.16455078125</ele>
        <time>2015-12-19T14:06:37Z</time>
      </trkpt>
      <trkpt lat="48.07584" lon="-4.29922">
        <ele>47.241821289062</ele>
        <time>2015-12-19T14:06:43Z</time>
      </trkpt>
      <trkpt lat="48.07586" lon="-4.29913">
        <ele>43.877319335938</ele>
        <time>2015-12-19T14:06:48Z</time>
      </trkpt>
      <trkpt lat="48.07587" lon="-4.29912">
        <ele>43.877319335938</ele>
        <time>2015-12-19T14:06:49Z</time>
      </trkpt>
      <trkpt lat="48.07591" lon="-4.29902">
        <ele>41.954711914062</ele>
        <time>2015-12-19T14:06:55Z</time>
      </trkpt>
      <trkpt lat="48.07594" lon="-4.29899">
        <ele>42.435424804688</ele>
        <time>2015-12-19T14:06:58Z</time>
      </trkpt>
      <trkpt lat="48.07602" lon="-4.29899">
        <ele>43.396606445312</ele>
        <time>2015-12-19T14:07:05Z</time>
      </trkpt>
      <trkpt lat="48.0761" lon="-4.29899">
        <ele>42.916015625</ele>
        <time>2015-12-19T14:07:11Z</time>
      </trkpt>
      <trkpt lat="48.07619" lon="-4.299">
        <ele>42.916015625</ele>
        <time>2015-12-19T14:07:18Z</time>
      </trkpt>
      <trkpt lat="48.07626" lon="-4.29901">
        <ele>44.358032226562</ele>
        <time>2015-12-19T14:07:25Z</time>
      </trkpt>
      <trkpt lat="48.0763" lon="-4.29902">
        <ele>45.319213867188</ele>
        <time>2015-12-19T14:07:29Z</time>
      </trkpt>
      <trkpt lat="48.07636" lon="-4.2991">
        <ele>43.877319335938</ele>
        <time>2015-12-19T14:07:36Z</time>
      </trkpt>
      <trkpt lat="48.07637" lon="-4.29911">
        <ele>43.877319335938</ele>
        <time>2015-12-19T14:07:37Z</time>
      </trkpt>
      <trkpt lat="48.07642" lon="-4.29914">
        <ele>43.877319335938</ele>
        <time>2015-12-19T14:07:40Z</time>
      </trkpt>
      <trkpt lat="48.07652" lon="-4.2992">
        <ele>44.358032226562</ele>
        <time>2015-12-19T14:07:47Z</time>
      </trkpt>
      <trkpt lat="48.07654" lon="-4.29921">
        <ele>44.838623046875</ele>
        <time>2015-12-19T14:07:49Z</time>
      </trkpt>
      <trkpt lat="48.07665" lon="-4.29926">
        <ele>41.473999023438</ele>
        <time>2015-12-19T14:07:57Z</time>
      </trkpt>
      <trkpt lat="48.07669" lon="-4.29927">
        <ele>41.954711914062</ele>
        <time>2015-12-19T14:07:59Z</time>
      </trkpt>
      <trkpt lat="48.07678" lon="-4.29928">
        <ele>40.993408203125</ele>
        <time>2015-12-19T14:08:06Z</time>
      </trkpt>
      <trkpt lat="48.07686" lon="-4.29928">
        <ele>39.070678710938</ele>
        <time>2015-12-19T14:08:13Z</time>
      </trkpt>
      <trkpt lat="48.07691" lon="-4.29928">
        <ele>37.628662109375</ele>
        <time>2015-12-19T14:08:17Z</time>
      </trkpt>
      <trkpt lat="48.07703" lon="-4.29929">
        <ele>39.070678710938</ele>
        <time>2015-12-19T14:08:25Z</time>
      </trkpt>
      <trkpt lat="48.0771" lon="-4.2993">
        <ele>40.512817382812</ele>
        <time>2015-12-19T14:08:29Z</time>
      </trkpt>
      <trkpt lat="48.07711" lon="-4.29928">
        <ele>39.070678710938</ele>
        <time>2015-12-19T14:08:31Z</time>
      </trkpt>
      <trkpt lat="48.07712" lon="-4.29926">
        <ele>39.070678710938</ele>
        <time>2015-12-19T14:08:33Z</time>
      </trkpt>
      <trkpt lat="48.07714" lon="-4.29921">
        <ele>39.55126953125</ele>
        <time>2015-12-19T14:08:37Z</time>
      </trkpt>
      <trkpt lat="48.07719" lon="-4.29912">
        <ele>38.590087890625</ele>
        <time>2015-12-19T14:08:43Z</time>
      </trkpt>
      <trkpt lat="48.0772" lon="-4.2991">
        <ele>37.628662109375</ele>
        <time>2015-12-19T14:08:44Z</time>
      </trkpt>
      <trkpt lat="48.07721" lon="-4.29904">
        <ele>36.66748046875</ele>
        <time>2015-12-19T14:08:48Z</time>
      </trkpt>
      <trkpt lat="48.07717" lon="-4.29892">
        <ele>34.744873046875</ele>
        <time>2015-12-19T14:08:54Z</time>
      </trkpt>
      <trkpt lat="48.07716" lon="-4.29876">
        <ele>36.66748046875</ele>
        <time>2015-12-19T14:09:02Z</time>
      </trkpt>
      <trkpt lat="48.07716" lon="-4.29874">
        <ele>37.148071289062</ele>
        <time>2015-12-19T14:09:03Z</time>
      </trkpt>
      <trkpt lat="48.07715" lon="-4.2986">
        <ele>37.628662109375</ele>
        <time>2015-12-19T14:09:09Z</time>
      </trkpt>
      <trkpt lat="48.07714" lon="-4.29857">
        <ele>37.148071289062</ele>
        <time>2015-12-19T14:09:11Z</time>
      </trkpt>
      <trkpt lat="48.07711" lon="-4.29845">
        <ele>38.590087890625</ele>
        <time>2015-12-19T14:09:17Z</time>
      </trkpt>
      <trkpt lat="48.0771" lon="-4.29842">
        <ele>40.032104492188</ele>
        <time>2015-12-19T14:09:19Z</time>
      </trkpt>
      <trkpt lat="48.07709" lon="-4.29834">
        <ele>39.070678710938</ele>
        <time>2015-12-19T14:09:23Z</time>
      </trkpt>
      <trkpt lat="48.07709" lon="-4.29828">
        <ele>39.55126953125</ele>
        <time>2015-12-19T14:09:26Z</time>
      </trkpt>
      <trkpt lat="48.07707" lon="-4.29815">
        <ele>39.070678710938</ele>
        <time>2015-12-19T14:09:33Z</time>
      </trkpt>
      <trkpt lat="48.07707" lon="-4.29809">
        <ele>40.032104492188</ele>
        <time>2015-12-19T14:09:35Z</time>
      </trkpt>
      <trkpt lat="48.07709" lon="-4.29798">
        <ele>39.55126953125</ele>
        <time>2015-12-19T14:09:40Z</time>
      </trkpt>
      <trkpt lat="48.07712" lon="-4.2979">
        <ele>38.109375</ele>
        <time>2015-12-19T14:09:45Z</time>
      </trkpt>
      <trkpt lat="48.07712" lon="-4.29788">
        <ele>38.109375</ele>
        <time>2015-12-19T14:09:46Z</time>
      </trkpt>
      <trkpt lat="48.07714" lon="-4.29785">
        <ele>38.109375</ele>
        <time>2015-12-19T14:09:51Z</time>
      </trkpt>
      <trkpt lat="48.07715" lon="-4.29779">
        <ele>38.109375</ele>
        <time>2015-12-19T14:09:53Z</time>
      </trkpt>
      <trkpt lat="48.07717" lon="-4.2977">
        <ele>37.628662109375</ele>
        <time>2015-12-19T14:09:58Z</time>
      </trkpt>
      <trkpt lat="48.07726" lon="-4.29763">
        <ele>39.55126953125</ele>
        <time>2015-12-19T14:10:07Z</time>
      </trkpt>
      <trkpt lat="48.07733" lon="-4.29761">
        <ele>40.032104492188</ele>
        <time>2015-12-19T14:10:13Z</time>
      </trkpt>
      <trkpt lat="48.07737" lon="-4.2976">
        <ele>40.512817382812</ele>
        <time>2015-12-19T14:10:17Z</time>
      </trkpt>
      <trkpt lat="48.07742" lon="-4.2976">
        <ele>40.512817382812</ele>
        <time>2015-12-19T14:10:21Z</time>
      </trkpt>
      <trkpt lat="48.07751" lon="-4.29757">
        <ele>40.993408203125</ele>
        <time>2015-12-19T14:10:28Z</time>
      </trkpt>
      <trkpt lat="48.07759" lon="-4.29757">
        <ele>41.954711914062</ele>
        <time>2015-12-19T14:10:34Z</time>
      </trkpt>
      <trkpt lat="48.07766" lon="-4.29756">
        <ele>42.435424804688</ele>
        <time>2015-12-19T14:10:39Z</time>
      </trkpt>
      <trkpt lat="48.07771" lon="-4.29755">
        <ele>42.435424804688</ele>
        <time>2015-12-19T14:10:43Z</time>
      </trkpt>
      <trkpt lat="48.07777" lon="-4.2976">
        <ele>42.435424804688</ele>
        <time>2015-12-19T14:10:49Z</time>
      </trkpt>
      <trkpt lat="48.07779" lon="-4.29771">
        <ele>41.473999023438</ele>
        <time>2015-12-19T14:10:55Z</time>
      </trkpt>
      <trkpt lat="48.07779" lon="-4.2978">
        <ele>40.032104492188</ele>
        <time>2015-12-19T14:11:00Z</time>
      </trkpt>
      <trkpt lat="48.0778" lon="-4.29785">
        <ele>39.55126953125</ele>
        <time>2015-12-19T14:11:03Z</time>
      </trkpt>
      <trkpt lat="48.07781" lon="-4.29791">
        <ele>38.590087890625</ele>
        <time>2015-12-19T14:11:06Z</time>
      </trkpt>
      <trkpt lat="48.07781" lon="-4.29803">
        <ele>37.148071289062</ele>
        <time>2015-12-19T14:11:13Z</time>
      </trkpt>
      <trkpt lat="48.07783" lon="-4.2981">
        <ele>36.186767578125</ele>
        <time>2015-12-19T14:11:18Z</time>
      </trkpt>
      <trkpt lat="48.07785" lon="-4.29814">
        <ele>35.225463867188</ele>
        <time>2015-12-19T14:11:20Z</time>
      </trkpt>
      <trkpt lat="48.07785" lon="-4.29825">
        <ele>33.302856445312</ele>
        <time>2015-12-19T14:11:26Z</time>
      </trkpt>
      <trkpt lat="48.07786" lon="-4.29827">
        <ele>32.341552734375</ele>
        <time>2015-12-19T14:11:27Z</time>
      </trkpt>
      <trkpt lat="48.07786" lon="-4.29837">
        <ele>28.015502929688</ele>
        <time>2015-12-19T14:11:33Z</time>
      </trkpt>
      <trkpt lat="48.07787" lon="-4.29848">
        <ele>24.170288085938</ele>
        <time>2015-12-19T14:11:38Z</time>
      </trkpt>
      <trkpt lat="48.07788" lon="-4.2986">
        <ele>22.728271484375</ele>
        <time>2015-12-19T14:11:45Z</time>
      </trkpt>
      <trkpt lat="48.07788" lon="-4.29862">
        <ele>22.24755859375</ele>
        <time>2015-12-19T14:11:46Z</time>
      </trkpt>
      <trkpt lat="48.07788" lon="-4.29877">
        <ele>21.286376953125</ele>
        <time>2015-12-19T14:11:53Z</time>
      </trkpt>
      <trkpt lat="48.07788" lon="-4.29882">
        <ele>19.844360351562</ele>
        <time>2015-12-19T14:11:55Z</time>
      </trkpt>
      <trkpt lat="48.07786" lon="-4.29899">
        <ele>27.054321289062</ele>
        <time>2015-12-19T14:12:00Z</time>
      </trkpt>
      <trkpt lat="48.07787" lon="-4.29912">
        <ele>29.938110351562</ele>
        <time>2015-12-19T14:12:06Z</time>
      </trkpt>
      <trkpt lat="48.07787" lon="-4.29917">
        <ele>31.860717773438</ele>
        <time>2015-12-19T14:12:08Z</time>
      </trkpt>
      <trkpt lat="48.07788" lon="-4.29929">
        <ele>37.148071289062</ele>
        <time>2015-12-19T14:12:13Z</time>
      </trkpt>
      <trkpt lat="48.07786" lon="-4.29942">
        <ele>41.954711914062</ele>
        <time>2015-12-19T14:12:19Z</time>
      </trkpt>
      <trkpt lat="48.07785" lon="-4.29951">
        <ele>41.954711914062</ele>
        <time>2015-12-19T14:12:24Z</time>
      </trkpt>
      <trkpt lat="48.07786" lon="-4.29958">
        <ele>42.435424804688</ele>
        <time>2015-12-19T14:12:28Z</time>
      </trkpt>
      <trkpt lat="48.07787" lon="-4.29969">
        <ele>37.628662109375</ele>
        <time>2015-12-19T14:12:34Z</time>
      </trkpt>
      <trkpt lat="48.07788" lon="-4.29979">
        <ele>32.822265625</ele>
        <time>2015-12-19T14:12:39Z</time>
      </trkpt>
      <trkpt lat="48.0779" lon="-4.29989">
        <ele>30.899536132812</ele>
        <time>2015-12-19T14:12:43Z</time>
      </trkpt>
      <trkpt lat="48.07792" lon="-4.3">
        <ele>28.015502929688</ele>
        <time>2015-12-19T14:12:49Z</time>
      </trkpt>
      <trkpt lat="48.07793" lon="-4.30011">
        <ele>30.418823242188</ele>
        <time>2015-12-19T14:12:55Z</time>
      </trkpt>
      <trkpt lat="48.07793" lon="-4.30015">
        <ele>30.418823242188</ele>
        <time>2015-12-19T14:12:57Z</time>
      </trkpt>
      <trkpt lat="48.07793" lon="-4.30028">
        <ele>31.380126953125</ele>
        <time>2015-12-19T14:13:03Z</time>
      </trkpt>
      <trkpt lat="48.07793" lon="-4.30042">
        <ele>31.860717773438</ele>
        <time>2015-12-19T14:13:09Z</time>
      </trkpt>
      <trkpt lat="48.07795" lon="-4.30053">
        <ele>28.496215820312</ele>
        <time>2015-12-19T14:13:15Z</time>
      </trkpt>
      <trkpt lat="48.07796" lon="-4.30054">
        <ele>28.015502929688</ele>
        <time>2015-12-19T14:13:16Z</time>
      </trkpt>
      <trkpt lat="48.07797" lon="-4.30062">
        <ele>27.534912109375</ele>
        <time>2015-12-19T14:13:20Z</time>
      </trkpt>
      <trkpt lat="48.07797" lon="-4.30071">
        <ele>26.092895507812</ele>
        <time>2015-12-19T14:13:24Z</time>
      </trkpt>
      <trkpt lat="48.07798" lon="-4.30084">
        <ele>26.092895507812</ele>
        <time>2015-12-19T14:13:30Z</time>
      </trkpt>
      <trkpt lat="48.07797" lon="-4.30089">
        <ele>27.534912109375</ele>
        <time>2015-12-19T14:13:32Z</time>
      </trkpt>
      <trkpt lat="48.07799" lon="-4.301">
        <ele>26.573608398438</ele>
        <time>2015-12-19T14:13:38Z</time>
      </trkpt>
      <trkpt lat="48.078" lon="-4.30112">
        <ele>26.092895507812</ele>
        <time>2015-12-19T14:13:43Z</time>
      </trkpt>
      <trkpt lat="48.078" lon="-4.30125">
        <ele>25.6123046875</ele>
        <time>2015-12-19T14:13:49Z</time>
      </trkpt>
      <trkpt lat="48.07801" lon="-4.30132">
        <ele>25.131713867188</ele>
        <time>2015-12-19T14:13:53Z</time>
      </trkpt>
      <trkpt lat="48.07802" lon="-4.30138">
        <ele>25.6123046875</ele>
        <time>2015-12-19T14:13:56Z</time>
      </trkpt>
      <trkpt lat="48.07802" lon="-4.30146">
        <ele>25.6123046875</ele>
        <time>2015-12-19T14:14:00Z</time>
      </trkpt>
      <trkpt lat="48.07803" lon="-4.30159">
        <ele>25.6123046875</ele>
        <time>2015-12-19T14:14:06Z</time>
      </trkpt>
      <trkpt lat="48.07803" lon="-4.30172">
        <ele>26.092895507812</ele>
        <time>2015-12-19T14:14:12Z</time>
      </trkpt>
      <trkpt lat="48.07803" lon="-4.30182">
        <ele>26.573608398438</ele>
        <time>2015-12-19T14:14:17Z</time>
      </trkpt>
      <trkpt lat="48.07803" lon="-4.30194">
        <ele>26.573608398438</ele>
        <time>2015-12-19T14:14:23Z</time>
      </trkpt>
      <trkpt lat="48.07804" lon="-4.30206">
        <ele>26.092895507812</ele>
        <time>2015-12-19T14:14:29Z</time>
      </trkpt>
      <trkpt lat="48.07805" lon="-4.30208">
        <ele>26.573608398438</ele>
        <time>2015-12-19T14:14:30Z</time>
      </trkpt>
      <trkpt lat="48.07805" lon="-4.30224">
        <ele>27.054321289062</ele>
        <time>2015-12-19T14:14:37Z</time>
      </trkpt>
      <trkpt lat="48.07806" lon="-4.30232">
        <ele>28.015502929688</ele>
        <time>2015-12-19T14:14:40Z</time>
      </trkpt>
      <trkpt lat="48.07806" lon="-4.30246">
        <ele>28.496215820312</ele>
        <time>2015-12-19T14:14:46Z</time>
      </trkpt>
      <trkpt lat="48.07807" lon="-4.30253">
        <ele>28.976928710938</ele>
        <time>2015-12-19T14:14:49Z</time>
      </trkpt>
      <trkpt lat="48.07807" lon="-4.30258">
        <ele>28.496215820312</ele>
        <time>2015-12-19T14:14:51Z</time>
      </trkpt>
      <trkpt lat="48.07808" lon="-4.3027">
        <ele>29.938110351562</ele>
        <time>2015-12-19T14:14:56Z</time>
      </trkpt>
      <trkpt lat="48.07808" lon="-4.30272">
        <ele>29.938110351562</ele>
        <time>2015-12-19T14:14:57Z</time>
      </trkpt>
      <trkpt lat="48.07809" lon="-4.30285">
        <ele>31.380126953125</ele>
        <time>2015-12-19T14:15:03Z</time>
      </trkpt>
      <trkpt lat="48.07808" lon="-4.30297">
        <ele>30.418823242188</ele>
        <time>2015-12-19T14:15:08Z</time>
      </trkpt>
      <trkpt lat="48.0781" lon="-4.30312">
        <ele>30.418823242188</ele>
        <time>2015-12-19T14:15:15Z</time>
      </trkpt>
      <trkpt lat="48.07811" lon="-4.30315">
        <ele>30.899536132812</ele>
        <time>2015-12-19T14:15:17Z</time>
      </trkpt>
      <trkpt lat="48.07812" lon="-4.30325">
        <ele>30.899536132812</ele>
        <time>2015-12-19T14:15:23Z</time>
      </trkpt>
      <trkpt lat="48.07812" lon="-4.30329">
        <ele>29.938110351562</ele>
        <time>2015-12-19T14:15:25Z</time>
      </trkpt>
      <trkpt lat="48.07812" lon="-4.30338">
        <ele>28.496215820312</ele>
        <time>2015-12-19T14:15:29Z</time>
      </trkpt>
      <trkpt lat="48.07814" lon="-4.30352">
        <ele>26.092895507812</ele>
        <time>2015-12-19T14:15:36Z</time>
      </trkpt>
      <trkpt lat="48.07814" lon="-4.30354">
        <ele>25.6123046875</ele>
        <time>2015-12-19T14:15:37Z</time>
      </trkpt>
      <trkpt lat="48.07815" lon="-4.30359">
        <ele>25.131713867188</ele>
        <time>2015-12-19T14:15:40Z</time>
      </trkpt>
      <trkpt lat="48.07816" lon="-4.30372">
        <ele>23.689575195312</ele>
        <time>2015-12-19T14:15:46Z</time>
      </trkpt>
      <trkpt lat="48.07817" lon="-4.30381">
        <ele>22.24755859375</ele>
        <time>2015-12-19T14:15:51Z</time>
      </trkpt>
      <trkpt lat="48.07817" lon="-4.30387">
        <ele>21.286376953125</ele>
        <time>2015-12-19T14:15:55Z</time>
      </trkpt>
      <trkpt lat="48.07818" lon="-4.304">
        <ele>20.324951171875</ele>
        <time>2015-12-19T14:16:01Z</time>
      </trkpt>
      <trkpt lat="48.07818" lon="-4.30412">
        <ele>19.844360351562</ele>
        <time>2015-12-19T14:16:07Z</time>
      </trkpt>
      <trkpt lat="48.07817" lon="-4.30423">
        <ele>24.170288085938</ele>
        <time>2015-12-19T14:16:12Z</time>
      </trkpt>
      <trkpt lat="48.07817" lon="-4.30433">
        <ele>25.6123046875</ele>
        <time>2015-12-19T14:16:17Z</time>
      </trkpt>
      <trkpt lat="48.07818" lon="-4.30444">
        <ele>25.131713867188</ele>
        <time>2015-12-19T14:16:22Z</time>
      </trkpt>
      <trkpt lat="48.07818" lon="-4.30446">
        <ele>25.6123046875</ele>
        <time>2015-12-19T14:16:23Z</time>
      </trkpt>
      <trkpt lat="48.07819" lon="-4.3046">
        <ele>24.651000976562</ele>
        <time>2015-12-19T14:16:29Z</time>
      </trkpt>
      <trkpt lat="48.0782" lon="-4.30469">
        <ele>27.054321289062</ele>
        <time>2015-12-19T14:16:33Z</time>
      </trkpt>
      <trkpt lat="48.07821" lon="-4.30482">
        <ele>27.054321289062</ele>
        <time>2015-12-19T14:16:39Z</time>
      </trkpt>
      <trkpt lat="48.07821" lon="-4.30484">
        <ele>27.054321289062</ele>
        <time>2015-12-19T14:16:40Z</time>
      </trkpt>
      <trkpt lat="48.07822" lon="-4.30493">
        <ele>26.092895507812</ele>
        <time>2015-12-19T14:16:45Z</time>
      </trkpt>
      <trkpt lat="48.07824" lon="-4.30507">
        <ele>23.689575195312</ele>
        <time>2015-12-19T14:16:52Z</time>
      </trkpt>
      <trkpt lat="48.07826" lon="-4.3052">
        <ele>23.208984375</ele>
        <time>2015-12-19T14:16:58Z</time>
      </trkpt>
      <trkpt lat="48.07828" lon="-4.30538">
        <ele>24.651000976562</ele>
        <time>2015-12-19T14:17:06Z</time>
      </trkpt>
      <trkpt lat="48.07828" lon="-4.30544">
        <ele>21.766967773438</ele>
        <time>2015-12-19T14:17:09Z</time>
      </trkpt>
      <trkpt lat="48.07829" lon="-4.3055">
        <ele>21.766967773438</ele>
        <time>2015-12-19T14:17:12Z</time>
      </trkpt>
      <trkpt lat="48.0783" lon="-4.30562">
        <ele>21.766967773438</ele>
        <time>2015-12-19T14:17:18Z</time>
      </trkpt>
      <trkpt lat="48.0783" lon="-4.30566">
        <ele>21.766967773438</ele>
        <time>2015-12-19T14:17:20Z</time>
      </trkpt>
      <trkpt lat="48.07831" lon="-4.30575">
        <ele>21.766967773438</ele>
        <time>2015-12-19T14:17:24Z</time>
      </trkpt>
      <trkpt lat="48.07831" lon="-4.30584">
        <ele>21.766967773438</ele>
        <time>2015-12-19T14:17:28Z</time>
      </trkpt>
      <trkpt lat="48.07832" lon="-4.30595">
        <ele>22.728271484375</ele>
        <time>2015-12-19T14:17:33Z</time>
      </trkpt>
      <trkpt lat="48.07832" lon="-4.306">
        <ele>23.208984375</ele>
        <time>2015-12-19T14:17:35Z</time>
      </trkpt>
      <trkpt lat="48.07832" lon="-4.30615">
        <ele>27.534912109375</ele>
        <time>2015-12-19T14:17:43Z</time>
      </trkpt>
      <trkpt lat="48.07832" lon="-4.30619">
        <ele>28.015502929688</ele>
        <time>2015-12-19T14:17:45Z</time>
      </trkpt>
      <trkpt lat="48.07834" lon="-4.30631">
        <ele>24.651000976562</ele>
        <time>2015-12-19T14:17:51Z</time>
      </trkpt>
      <trkpt lat="48.07835" lon="-4.30651">
        <ele>23.208984375</ele>
        <time>2015-12-19T14:17:59Z</time>
      </trkpt>
      <trkpt lat="48.07837" lon="-4.30665">
        <ele>26.573608398438</ele>
        <time>2015-12-19T14:18:04Z</time>
      </trkpt>
      <trkpt lat="48.07836" lon="-4.30672">
        <ele>28.015502929688</ele>
        <time>2015-12-19T14:18:10Z</time>
      </trkpt>
      <trkpt lat="48.07836" lon="-4.30672">
        <ele>29.45751953125</ele>
        <time>2015-12-19T14:18:17Z</time>
      </trkpt>
      <trkpt lat="48.07835" lon="-4.30674">
        <ele>28.976928710938</ele>
        <time>2015-12-19T14:18:24Z</time>
      </trkpt>
      <trkpt lat="48.07836" lon="-4.30674">
        <ele>28.496215820312</ele>
        <time>2015-12-19T14:18:27Z</time>
      </trkpt>
      <trkpt lat="48.07836" lon="-4.30676">
        <ele>29.938110351562</ele>
        <time>2015-12-19T14:18:46Z</time>
      </trkpt>
      <trkpt lat="48.07836" lon="-4.30677">
        <ele>28.976928710938</ele>
        <time>2015-12-19T14:18:58Z</time>
      </trkpt>
      <trkpt lat="48.07836" lon="-4.30676">
        <ele>29.938110351562</ele>
        <time>2015-12-19T14:19:05Z</time>
      </trkpt>
      <trkpt lat="48.07836" lon="-4.30677">
        <ele>30.418823242188</ele>
        <time>2015-12-19T14:19:12Z</time>
      </trkpt>
      <trkpt lat="48.07835" lon="-4.30677">
        <ele>31.860717773438</ele>
        <time>2015-12-19T14:19:17Z</time>
      </trkpt>
      <trkpt lat="48.07836" lon="-4.30677">
        <ele>32.822265625</ele>
        <time>2015-12-19T14:19:23Z</time>
      </trkpt>
      <trkpt lat="48.07835" lon="-4.30678">
        <ele>34.26416015625</ele>
        <time>2015-12-19T14:19:30Z</time>
      </trkpt>
      <trkpt lat="48.07834" lon="-4.30679">
        <ele>34.744873046875</ele>
        <time>2015-12-19T14:19:42Z</time>
      </trkpt>
      <trkpt lat="48.07834" lon="-4.30679">
        <ele>34.26416015625</ele>
        <time>2015-12-19T14:19:50Z</time>
      </trkpt>
      <trkpt lat="48.07835" lon="-4.30679">
        <ele>34.26416015625</ele>
        <time>2015-12-19T14:19:57Z</time>
      </trkpt>
      <trkpt lat="48.07835" lon="-4.30679">
        <ele>34.26416015625</ele>
        <time>2015-12-19T14:20:07Z</time>
      </trkpt>
      <trkpt lat="48.07835" lon="-4.30678">
        <ele>32.341552734375</ele>
        <time>2015-12-19T14:20:19Z</time>
      </trkpt>
      <trkpt lat="48.07835" lon="-4.30677">
        <ele>33.783447265625</ele>
        <time>2015-12-19T14:20:43Z</time>
      </trkpt>
      <trkpt lat="48.07835" lon="-4.30677">
        <ele>33.302856445312</ele>
        <time>2015-12-19T14:20:50Z</time>
      </trkpt>
      <trkpt lat="48.07835" lon="-4.30677">
        <ele>31.860717773438</ele>
        <time>2015-12-19T14:20:56Z</time>
      </trkpt>
      <trkpt lat="48.07836" lon="-4.30677">
        <ele>28.496215820312</ele>
        <time>2015-12-19T14:21:08Z</time>
      </trkpt>
      <trkpt lat="48.07838" lon="-4.30679">
        <ele>25.131713867188</ele>
        <time>2015-12-19T14:21:22Z</time>
      </trkpt>
      <trkpt lat="48.07839" lon="-4.30686">
        <ele>25.6123046875</ele>
        <time>2015-12-19T14:21:27Z</time>
      </trkpt>
      <trkpt lat="48.07839" lon="-4.30694">
        <ele>28.015502929688</ele>
        <time>2015-12-19T14:21:31Z</time>
      </trkpt>
      <trkpt lat="48.0784" lon="-4.30707">
        <ele>30.899536132812</ele>
        <time>2015-12-19T14:21:37Z</time>
      </trkpt>
      <trkpt lat="48.0784" lon="-4.30713">
        <ele>32.341552734375</ele>
        <time>2015-12-19T14:21:40Z</time>
      </trkpt>
      <trkpt lat="48.0784" lon="-4.30719">
        <ele>32.822265625</ele>
        <time>2015-12-19T14:21:44Z</time>
      </trkpt>
      <trkpt lat="48.07842" lon="-4.30733">
        <ele>28.496215820312</ele>
        <time>2015-12-19T14:21:51Z</time>
      </trkpt>
      <trkpt lat="48.07842" lon="-4.30735">
        <ele>28.015502929688</ele>
        <time>2015-12-19T14:21:52Z</time>
      </trkpt>
      <trkpt lat="48.07843" lon="-4.30743">
        <ele>27.534912109375</ele>
        <time>2015-12-19T14:21:56Z</time>
      </trkpt>
      <trkpt lat="48.07846" lon="-4.30756">
        <ele>27.054321289062</ele>
        <time>2015-12-19T14:22:03Z</time>
      </trkpt>
      <trkpt lat="48.07848" lon="-4.30771">
        <ele>23.689575195312</ele>
        <time>2015-12-19T14:22:10Z</time>
      </trkpt>
      <trkpt lat="48.07848" lon="-4.30786">
        <ele>28.496215820312</ele>
        <time>2015-12-19T14:22:16Z</time>
      </trkpt>
      <trkpt lat="48.07847" lon="-4.308">
        <ele>31.380126953125</ele>
        <time>2015-12-19T14:22:22Z</time>
      </trkpt>
      <trkpt lat="48.07847" lon="-4.30809">
        <ele>32.341552734375</ele>
        <time>2015-12-19T14:22:26Z</time>
      </trkpt>
      <trkpt lat="48.07848" lon="-4.30823">
        <ele>34.26416015625</ele>
        <time>2015-12-19T14:22:33Z</time>
      </trkpt>
      <trkpt lat="48.07851" lon="-4.30834">
        <ele>31.380126953125</ele>
        <time>2015-12-19T14:22:39Z</time>
      </trkpt>
      <trkpt lat="48.07853" lon="-4.30846">
        <ele>26.092895507812</ele>
        <time>2015-12-19T14:22:45Z</time>
      </trkpt>
      <trkpt lat="48.07853" lon="-4.30848">
        <ele>25.131713867188</ele>
        <time>2015-12-19T14:22:46Z</time>
      </trkpt>
      <trkpt lat="48.07855" lon="-4.30861">
        <ele>23.208984375</ele>
        <time>2015-12-19T14:22:53Z</time>
      </trkpt>
      <trkpt lat="48.07855" lon="-4.30871">
        <ele>20.8056640625</ele>
        <time>2015-12-19T14:22:58Z</time>
      </trkpt>
      <trkpt lat="48.07855" lon="-4.30875">
        <ele>18.883056640625</ele>
        <time>2015-12-19T14:23:00Z</time>
      </trkpt>
      <trkpt lat="48.07855" lon="-4.30884">
        <ele>15.037719726562</ele>
        <time>2015-12-19T14:23:04Z</time>
      </trkpt>
      <trkpt lat="48.07854" lon="-4.30898">
        <ele>15.518432617188</ele>
        <time>2015-12-19T14:23:10Z</time>
      </trkpt>
      <trkpt lat="48.07855" lon="-4.30912">
        <ele>17.441162109375</ele>
        <time>2015-12-19T14:23:15Z</time>
      </trkpt>
      <trkpt lat="48.07856" lon="-4.30922">
        <ele>14.076416015625</ele>
        <time>2015-12-19T14:23:20Z</time>
      </trkpt>
      <trkpt lat="48.07859" lon="-4.30936">
        <ele>11.673217773438</ele>
        <time>2015-12-19T14:23:27Z</time>
      </trkpt>
      <trkpt lat="48.07857" lon="-4.30949">
        <ele>9.7506103515625</ele>
        <time>2015-12-19T14:23:33Z</time>
      </trkpt>
      <trkpt lat="48.07859" lon="-4.30959">
        <ele>8.7891845703125</ele>
        <time>2015-12-19T14:23:38Z</time>
      </trkpt>
      <trkpt lat="48.0786" lon="-4.3096">
        <ele>8.7891845703125</ele>
        <time>2015-12-19T14:23:39Z</time>
      </trkpt>
      <trkpt lat="48.07862" lon="-4.30974">
        <ele>10.231201171875</ele>
        <time>2015-12-19T14:23:46Z</time>
      </trkpt>
      <trkpt lat="48.07863" lon="-4.30976">
        <ele>9.7506103515625</ele>
        <time>2015-12-19T14:23:52Z</time>
      </trkpt>
      <trkpt lat="48.07856" lon="-4.30982">
        <ele>7.34716796875</ele>
        <time>2015-12-19T14:24:07Z</time>
      </trkpt>
      <trkpt lat="48.07855" lon="-4.30985">
        <ele>12.634399414062</ele>
        <time>2015-12-19T14:24:13Z</time>
      </trkpt>
      <trkpt lat="48.07856" lon="-4.30988">
        <ele>14.076416015625</ele>
        <time>2015-12-19T14:24:15Z</time>
      </trkpt>
      <trkpt lat="48.07859" lon="-4.30991">
        <ele>16.96044921875</ele>
        <time>2015-12-19T14:24:18Z</time>
      </trkpt>
      <trkpt lat="48.0786" lon="-4.30999">
        <ele>15.9990234375</ele>
        <time>2015-12-19T14:24:22Z</time>
      </trkpt>
      <trkpt lat="48.0786" lon="-4.31016">
        <ele>12.15380859375</ele>
        <time>2015-12-19T14:24:30Z</time>
      </trkpt>
      <trkpt lat="48.07861" lon="-4.31025">
        <ele>11.192504882812</ele>
        <time>2015-12-19T14:24:35Z</time>
      </trkpt>
      <trkpt lat="48.07862" lon="-4.31038">
        <ele>10.711791992188</ele>
        <time>2015-12-19T14:24:41Z</time>
      </trkpt>
      <trkpt lat="48.07865" lon="-4.31048">
        <ele>12.15380859375</ele>
        <time>2015-12-19T14:24:46Z</time>
      </trkpt>
      <trkpt lat="48.07867" lon="-4.31058">
        <ele>15.518432617188</ele>
        <time>2015-12-19T14:24:50Z</time>
      </trkpt>
      <trkpt lat="48.07869" lon="-4.31067">
        <ele>16.479736328125</ele>
        <time>2015-12-19T14:24:55Z</time>
      </trkpt>
      <trkpt lat="48.07869" lon="-4.3108">
        <ele>21.766967773438</ele>
        <time>2015-12-19T14:25:01Z</time>
      </trkpt>
      <trkpt lat="48.07869" lon="-4.31083">
        <ele>21.766967773438</ele>
        <time>2015-12-19T14:25:02Z</time>
      </trkpt>
      <trkpt lat="48.0787" lon="-4.31105">
        <ele>23.689575195312</ele>
        <time>2015-12-19T14:25:10Z</time>
      </trkpt>
      <trkpt lat="48.07871" lon="-4.31118">
        <ele>25.131713867188</ele>
        <time>2015-12-19T14:25:16Z</time>
      </trkpt>
      <trkpt lat="48.07872" lon="-4.31129">
        <ele>26.573608398438</ele>
        <time>2015-12-19T14:25:20Z</time>
      </trkpt>
      <trkpt lat="48.07874" lon="-4.31144">
        <ele>27.054321289062</ele>
        <time>2015-12-19T14:25:27Z</time>
      </trkpt>
      <trkpt lat="48.07874" lon="-4.31149">
        <ele>27.054321289062</ele>
        <time>2015-12-19T14:25:29Z</time>
      </trkpt>
      <trkpt lat="48.07874" lon="-4.31153">
        <ele>26.573608398438</ele>
        <time>2015-12-19T14:25:31Z</time>
      </trkpt>
      <trkpt lat="48.07876" lon="-4.31164">
        <ele>28.976928710938</ele>
        <time>2015-12-19T14:25:37Z</time>
      </trkpt>
      <trkpt lat="48.07876" lon="-4.31182">
        <ele>29.45751953125</ele>
        <time>2015-12-19T14:25:44Z</time>
      </trkpt>
      <trkpt lat="48.07877" lon="-4.31192">
        <ele>27.054321289062</ele>
        <time>2015-12-19T14:25:49Z</time>
      </trkpt>
      <trkpt lat="48.07878" lon="-4.31196">
        <ele>27.534912109375</ele>
        <time>2015-12-19T14:25:52Z</time>
      </trkpt>
      <trkpt lat="48.07879" lon="-4.31211">
        <ele>28.976928710938</ele>
        <time>2015-12-19T14:25:58Z</time>
      </trkpt>
      <trkpt lat="48.0788" lon="-4.31226">
        <ele>29.938110351562</ele>
        <time>2015-12-19T14:26:05Z</time>
      </trkpt>
      <trkpt lat="48.07882" lon="-4.31235">
        <ele>28.015502929688</ele>
        <time>2015-12-19T14:26:09Z</time>
      </trkpt>
      <trkpt lat="48.07883" lon="-4.31249">
        <ele>28.496215820312</ele>
        <time>2015-12-19T14:26:15Z</time>
      </trkpt>
      <trkpt lat="48.07883" lon="-4.31251">
        <ele>28.015502929688</ele>
        <time>2015-12-19T14:26:16Z</time>
      </trkpt>
      <trkpt lat="48.07885" lon="-4.31258">
        <ele>27.054321289062</ele>
        <time>2015-12-19T14:26:21Z</time>
      </trkpt>
      <trkpt lat="48.07885" lon="-4.31261">
        <ele>27.054321289062</ele>
        <time>2015-12-19T14:26:22Z</time>
      </trkpt>
      <trkpt lat="48.07886" lon="-4.31273">
        <ele>28.015502929688</ele>
        <time>2015-12-19T14:26:28Z</time>
      </trkpt>
      <trkpt lat="48.07886" lon="-4.31278">
        <ele>27.054321289062</ele>
        <time>2015-12-19T14:26:32Z</time>
      </trkpt>
      <trkpt lat="48.07888" lon="-4.31291">
        <ele>26.092895507812</ele>
        <time>2015-12-19T14:26:38Z</time>
      </trkpt>
      <trkpt lat="48.07888" lon="-4.31296">
        <ele>25.6123046875</ele>
        <time>2015-12-19T14:26:40Z</time>
      </trkpt>
      <trkpt lat="48.07888" lon="-4.313">
        <ele>24.170288085938</ele>
        <time>2015-12-19T14:26:42Z</time>
      </trkpt>
      <trkpt lat="48.07889" lon="-4.31308">
        <ele>20.324951171875</ele>
        <time>2015-12-19T14:26:46Z</time>
      </trkpt>
      <trkpt lat="48.07891" lon="-4.31322">
        <ele>21.286376953125</ele>
        <time>2015-12-19T14:26:53Z</time>
      </trkpt>
      <trkpt lat="48.07891" lon="-4.3133">
        <ele>20.324951171875</ele>
        <time>2015-12-19T14:26:57Z</time>
      </trkpt>
      <trkpt lat="48.07892" lon="-4.31338">
        <ele>21.766967773438</ele>
        <time>2015-12-19T14:27:01Z</time>
      </trkpt>
      <trkpt lat="48.07891" lon="-4.31344">
        <ele>23.689575195312</ele>
        <time>2015-12-19T14:27:04Z</time>
      </trkpt>
      <trkpt lat="48.0789" lon="-4.31354">
        <ele>27.534912109375</ele>
        <time>2015-12-19T14:27:10Z</time>
      </trkpt>
      <trkpt lat="48.07892" lon="-4.31364">
        <ele>22.728271484375</ele>
        <time>2015-12-19T14:27:15Z</time>
      </trkpt>
      <trkpt lat="48.07891" lon="-4.31373">
        <ele>19.36376953125</ele>
        <time>2015-12-19T14:27:20Z</time>
      </trkpt>
      <trkpt lat="48.07888" lon="-4.31377">
        <ele>20.324951171875</ele>
        <time>2015-12-19T14:27:22Z</time>
      </trkpt>
      <trkpt lat="48.07891" lon="-4.31388">
        <ele>18.883056640625</ele>
        <time>2015-12-19T14:27:28Z</time>
      </trkpt>
      <trkpt lat="48.07892" lon="-4.31396">
        <ele>19.844360351562</ele>
        <time>2015-12-19T14:27:32Z</time>
      </trkpt>
      <trkpt lat="48.07894" lon="-4.31407">
        <ele>22.24755859375</ele>
        <time>2015-12-19T14:27:37Z</time>
      </trkpt>
      <trkpt lat="48.07894" lon="-4.31408">
        <ele>22.24755859375</ele>
        <time>2015-12-19T14:27:38Z</time>
      </trkpt>
      <trkpt lat="48.07895" lon="-4.31424">
        <ele>24.170288085938</ele>
        <time>2015-12-19T14:27:45Z</time>
      </trkpt>
      <trkpt lat="48.07896" lon="-4.31438">
        <ele>23.208984375</ele>
        <time>2015-12-19T14:27:51Z</time>
      </trkpt>
      <trkpt lat="48.07899" lon="-4.31451">
        <ele>21.766967773438</ele>
        <time>2015-12-19T14:27:58Z</time>
      </trkpt>
      <trkpt lat="48.079" lon="-4.31465">
        <ele>19.844360351562</ele>
        <time>2015-12-19T14:28:04Z</time>
      </trkpt>
      <trkpt lat="48.079" lon="-4.31478">
        <ele>19.844360351562</ele>
        <time>2015-12-19T14:28:10Z</time>
      </trkpt>
      <trkpt lat="48.07902" lon="-4.31489">
        <ele>17.921752929688</ele>
        <time>2015-12-19T14:28:15Z</time>
      </trkpt>
      <trkpt lat="48.07903" lon="-4.31495">
        <ele>18.40234375</ele>
        <time>2015-12-19T14:28:18Z</time>
      </trkpt>
      <trkpt lat="48.07904" lon="-4.31503">
        <ele>18.40234375</ele>
        <time>2015-12-19T14:28:22Z</time>
      </trkpt>
      <trkpt lat="48.07905" lon="-4.31514">
        <ele>18.883056640625</ele>
        <time>2015-12-19T14:28:27Z</time>
      </trkpt>
      <trkpt lat="48.07905" lon="-4.31523">
        <ele>17.441162109375</ele>
        <time>2015-12-19T14:28:31Z</time>
      </trkpt>
      <trkpt lat="48.07906" lon="-4.3153">
        <ele>15.9990234375</ele>
        <time>2015-12-19T14:28:35Z</time>
      </trkpt>
      <trkpt lat="48.07905" lon="-4.31545">
        <ele>13.115112304688</ele>
        <time>2015-12-19T14:28:42Z</time>
      </trkpt>
      <trkpt lat="48.07905" lon="-4.31548">
        <ele>12.634399414062</ele>
        <time>2015-12-19T14:28:43Z</time>
      </trkpt>
      <trkpt lat="48.07904" lon="-4.31552">
        <ele>12.15380859375</ele>
        <time>2015-12-19T14:28:45Z</time>
      </trkpt>
      <trkpt lat="48.07904" lon="-4.31566">
        <ele>9.2698974609375</ele>
        <time>2015-12-19T14:28:51Z</time>
      </trkpt>
      <trkpt lat="48.07903" lon="-4.31576">
        <ele>5.424560546875</ele>
        <time>2015-12-19T14:28:55Z</time>
      </trkpt>
      <trkpt lat="48.07904" lon="-4.31584">
        <ele>5.424560546875</ele>
        <time>2015-12-19T14:28:59Z</time>
      </trkpt>
      <trkpt lat="48.07906" lon="-4.3159">
        <ele>5.424560546875</ele>
        <time>2015-12-19T14:29:03Z</time>
      </trkpt>
      <trkpt lat="48.07905" lon="-4.31594">
        <ele>7.34716796875</ele>
        <time>2015-12-19T14:29:05Z</time>
      </trkpt>
      <trkpt lat="48.07905" lon="-4.31591">
        <ele>11.673217773438</ele>
        <time>2015-12-19T14:29:11Z</time>
      </trkpt>
      <trkpt lat="48.07904" lon="-4.31595">
        <ele>10.711791992188</ele>
        <time>2015-12-19T14:29:13Z</time>
      </trkpt>
      <trkpt lat="48.07904" lon="-4.31603">
        <ele>7.827880859375</ele>
        <time>2015-12-19T14:29:17Z</time>
      </trkpt>
      <trkpt lat="48.07903" lon="-4.31615">
        <ele>6.3858642578125</ele>
        <time>2015-12-19T14:29:22Z</time>
      </trkpt>
      <trkpt lat="48.07904" lon="-4.31622">
        <ele>8.30859375</ele>
        <time>2015-12-19T14:29:26Z</time>
      </trkpt>
      <trkpt lat="48.07906" lon="-4.31647">
        <ele>11.192504882812</ele>
        <time>2015-12-19T14:29:38Z</time>
      </trkpt>
      <trkpt lat="48.07906" lon="-4.31656">
        <ele>10.711791992188</ele>
        <time>2015-12-19T14:29:42Z</time>
      </trkpt>
      <trkpt lat="48.07905" lon="-4.3167">
        <ele>13.115112304688</ele>
        <time>2015-12-19T14:29:48Z</time>
      </trkpt>
      <trkpt lat="48.07904" lon="-4.31682">
        <ele>13.595825195312</ele>
        <time>2015-12-19T14:29:53Z</time>
      </trkpt>
      <trkpt lat="48.07904" lon="-4.31688">
        <ele>14.557006835938</ele>
        <time>2015-12-19T14:29:56Z</time>
      </trkpt>
      <trkpt lat="48.07905" lon="-4.31696">
        <ele>14.557006835938</ele>
        <time>2015-12-19T14:30:00Z</time>
      </trkpt>
      <trkpt lat="48.07906" lon="-4.31709">
        <ele>13.115112304688</ele>
        <time>2015-12-19T14:30:05Z</time>
      </trkpt>
      <trkpt lat="48.07906" lon="-4.31721">
        <ele>13.595825195312</ele>
        <time>2015-12-19T14:30:11Z</time>
      </trkpt>
      <trkpt lat="48.07906" lon="-4.31727">
        <ele>14.076416015625</ele>
        <time>2015-12-19T14:30:14Z</time>
      </trkpt>
      <trkpt lat="48.07907" lon="-4.31742">
        <ele>15.518432617188</ele>
        <time>2015-12-19T14:30:22Z</time>
      </trkpt>
      <trkpt lat="48.07907" lon="-4.31747">
        <ele>16.479736328125</ele>
        <time>2015-12-19T14:30:24Z</time>
      </trkpt>
      <trkpt lat="48.07907" lon="-4.31757">
        <ele>18.883056640625</ele>
        <time>2015-12-19T14:30:29Z</time>
      </trkpt>
      <trkpt lat="48.07907" lon="-4.31765">
        <ele>21.286376953125</ele>
        <time>2015-12-19T14:30:33Z</time>
      </trkpt>
      <trkpt lat="48.07907" lon="-4.3178">
        <ele>24.651000976562</ele>
        <time>2015-12-19T14:30:40Z</time>
      </trkpt>
      <trkpt lat="48.07906" lon="-4.31791">
        <ele>22.728271484375</ele>
        <time>2015-12-19T14:30:45Z</time>
      </trkpt>
      <trkpt lat="48.07906" lon="-4.31796">
        <ele>23.208984375</ele>
        <time>2015-12-19T14:30:47Z</time>
      </trkpt>
      <trkpt lat="48.07905" lon="-4.31809">
        <ele>26.092895507812</ele>
        <time>2015-12-19T14:30:54Z</time>
      </trkpt>
      <trkpt lat="48.07907" lon="-4.31819">
        <ele>23.689575195312</ele>
        <time>2015-12-19T14:30:59Z</time>
      </trkpt>
      <trkpt lat="48.07908" lon="-4.31825">
        <ele>22.728271484375</ele>
        <time>2015-12-19T14:31:02Z</time>
      </trkpt>
      <trkpt lat="48.07909" lon="-4.31829">
        <ele>21.286376953125</ele>
        <time>2015-12-19T14:31:04Z</time>
      </trkpt>
      <trkpt lat="48.07911" lon="-4.31839">
        <ele>18.883056640625</ele>
        <time>2015-12-19T14:31:09Z</time>
      </trkpt>
      <trkpt lat="48.07912" lon="-4.31847">
        <ele>15.9990234375</ele>
        <time>2015-12-19T14:31:13Z</time>
      </trkpt>
      <trkpt lat="48.07913" lon="-4.31853">
        <ele>14.557006835938</ele>
        <time>2015-12-19T14:31:16Z</time>
      </trkpt>
      <trkpt lat="48.07912" lon="-4.31871">
        <ele>10.231201171875</ele>
        <time>2015-12-19T14:31:24Z</time>
      </trkpt>
      <trkpt lat="48.07912" lon="-4.31875">
        <ele>9.7506103515625</ele>
        <time>2015-12-19T14:31:26Z</time>
      </trkpt>
      <trkpt lat="48.07914" lon="-4.31887">
        <ele>9.2698974609375</ele>
        <time>2015-12-19T14:31:32Z</time>
      </trkpt>
      <trkpt lat="48.07917" lon="-4.31899">
        <ele>10.231201171875</ele>
        <time>2015-12-19T14:31:38Z</time>
      </trkpt>
      <trkpt lat="48.07917" lon="-4.31901">
        <ele>10.231201171875</ele>
        <time>2015-12-19T14:31:39Z</time>
      </trkpt>
      <trkpt lat="48.07917" lon="-4.31913">
        <ele>9.7506103515625</ele>
        <time>2015-12-19T14:31:45Z</time>
      </trkpt>
      <trkpt lat="48.07919" lon="-4.31923">
        <ele>8.7891845703125</ele>
        <time>2015-12-19T14:31:50Z</time>
      </trkpt>
      <trkpt lat="48.0792" lon="-4.31925">
        <ele>8.7891845703125</ele>
        <time>2015-12-19T14:31:51Z</time>
      </trkpt>
      <trkpt lat="48.07925" lon="-4.31936">
        <ele>6.866455078125</ele>
        <time>2015-12-19T14:31:57Z</time>
      </trkpt>
      <trkpt lat="48.07929" lon="-4.31949">
        <ele>6.3858642578125</ele>
        <time>2015-12-19T14:32:04Z</time>
      </trkpt>
      <trkpt lat="48.07929" lon="-4.31959">
        <ele>5.9052734375</ele>
        <time>2015-12-19T14:32:08Z</time>
      </trkpt>
      <trkpt lat="48.07931" lon="-4.31963">
        <ele>5.424560546875</ele>
        <time>2015-12-19T14:32:10Z</time>
      </trkpt>
      <trkpt lat="48.07931" lon="-4.3197">
        <ele>6.3858642578125</ele>
        <time>2015-12-19T14:32:13Z</time>
      </trkpt>
      <trkpt lat="48.07934" lon="-4.31982">
        <ele>7.827880859375</ele>
        <time>2015-12-19T14:32:18Z</time>
      </trkpt>
      <trkpt lat="48.07935" lon="-4.31996">
        <ele>10.231201171875</ele>
        <time>2015-12-19T14:32:24Z</time>
      </trkpt>
      <trkpt lat="48.07938" lon="-4.32008">
        <ele>10.231201171875</ele>
        <time>2015-12-19T14:32:31Z</time>
      </trkpt>
      <trkpt lat="48.07939" lon="-4.32012">
        <ele>10.711791992188</ele>
        <time>2015-12-19T14:32:33Z</time>
      </trkpt>
      <trkpt lat="48.07943" lon="-4.32024">
        <ele>12.634399414062</ele>
        <time>2015-12-19T14:32:39Z</time>
      </trkpt>
      <trkpt lat="48.07946" lon="-4.32032">
        <ele>11.673217773438</ele>
        <time>2015-12-19T14:32:43Z</time>
      </trkpt>
      <trkpt lat="48.07949" lon="-4.32046">
        <ele>9.7506103515625</ele>
        <time>2015-12-19T14:32:50Z</time>
      </trkpt>
      <trkpt lat="48.07953" lon="-4.32058">
        <ele>8.7891845703125</ele>
        <time>2015-12-19T14:32:56Z</time>
      </trkpt>
      <trkpt lat="48.07956" lon="-4.32063">
        <ele>10.231201171875</ele>
        <time>2015-12-19T14:32:59Z</time>
      </trkpt>
      <trkpt lat="48.0796" lon="-4.32074">
        <ele>13.115112304688</ele>
        <time>2015-12-19T14:33:05Z</time>
      </trkpt>
      <trkpt lat="48.07963" lon="-4.32084">
        <ele>12.15380859375</ele>
        <time>2015-12-19T14:33:10Z</time>
      </trkpt>
      <trkpt lat="48.07968" lon="-4.32093">
        <ele>11.192504882812</ele>
        <time>2015-12-19T14:33:16Z</time>
      </trkpt>
      <trkpt lat="48.0797" lon="-4.32099">
        <ele>11.673217773438</ele>
        <time>2015-12-19T14:33:19Z</time>
      </trkpt>
      <trkpt lat="48.07973" lon="-4.32106">
        <ele>14.076416015625</ele>
        <time>2015-12-19T14:33:22Z</time>
      </trkpt>
      <trkpt lat="48.07975" lon="-4.32112">
        <ele>16.96044921875</ele>
        <time>2015-12-19T14:33:25Z</time>
      </trkpt>
      <trkpt lat="48.07979" lon="-4.32124">
        <ele>18.40234375</ele>
        <time>2015-12-19T14:33:31Z</time>
      </trkpt>
      <trkpt lat="48.07983" lon="-4.32129">
        <ele>19.36376953125</ele>
        <time>2015-12-19T14:33:35Z</time>
      </trkpt>
      <trkpt lat="48.07989" lon="-4.32137">
        <ele>16.96044921875</ele>
        <time>2015-12-19T14:33:41Z</time>
      </trkpt>
      <trkpt lat="48.07993" lon="-4.32144">
        <ele>15.9990234375</ele>
        <time>2015-12-19T14:33:46Z</time>
      </trkpt>
      <trkpt lat="48.07999" lon="-4.3216">
        <ele>16.96044921875</ele>
        <time>2015-12-19T14:33:54Z</time>
      </trkpt>
      <trkpt lat="48.08003" lon="-4.32169">
        <ele>17.441162109375</ele>
        <time>2015-12-19T14:33:59Z</time>
      </trkpt>
      <trkpt lat="48.08009" lon="-4.32176">
        <ele>19.36376953125</ele>
        <time>2015-12-19T14:34:04Z</time>
      </trkpt>
      <trkpt lat="48.08013" lon="-4.32187">
        <ele>15.9990234375</ele>
        <time>2015-12-19T14:34:10Z</time>
      </trkpt>
      <trkpt lat="48.08017" lon="-4.32194">
        <ele>12.634399414062</ele>
        <time>2015-12-19T14:34:15Z</time>
      </trkpt>
      <trkpt lat="48.08025" lon="-4.32205">
        <ele>9.2698974609375</ele>
        <time>2015-12-19T14:34:22Z</time>
      </trkpt>
      <trkpt lat="48.08028" lon="-4.32209">
        <ele>7.827880859375</ele>
        <time>2015-12-19T14:34:25Z</time>
      </trkpt>
      <trkpt lat="48.0803" lon="-4.32215">
        <ele>5.9052734375</ele>
        <time>2015-12-19T14:34:28Z</time>
      </trkpt>
      <trkpt lat="48.08033" lon="-4.32225">
        <ele>0.137451171875</ele>
        <time>2015-12-19T14:34:34Z</time>
      </trkpt>
      <trkpt lat="48.08035" lon="-4.32228">
        <ele>-0.8240966796875</ele>
        <time>2015-12-19T14:34:36Z</time>
      </trkpt>
      <trkpt lat="48.08043" lon="-4.32239">
        <ele>-4.1885986328125</ele>
        <time>2015-12-19T14:34:43Z</time>
      </trkpt>
      <trkpt lat="48.08045" lon="-4.32242">
        <ele>-6.1112060546875</ele>
        <time>2015-12-19T14:34:45Z</time>
      </trkpt>
      <trkpt lat="48.08048" lon="-4.32248">
        <ele>0.137451171875</ele>
        <time>2015-12-19T14:34:49Z</time>
      </trkpt>
      <trkpt lat="48.08061" lon="-4.32259">
        <ele>6.866455078125</ele>
        <time>2015-12-19T14:34:57Z</time>
      </trkpt>
      <trkpt lat="48.08068" lon="-4.3227">
        <ele>9.2698974609375</ele>
        <time>2015-12-19T14:35:04Z</time>
      </trkpt>
      <trkpt lat="48.08075" lon="-4.32282">
        <ele>10.711791992188</ele>
        <time>2015-12-19T14:35:11Z</time>
      </trkpt>
      <trkpt lat="48.08081" lon="-4.32292">
        <ele>11.192504882812</ele>
        <time>2015-12-19T14:35:17Z</time>
      </trkpt>
      <trkpt lat="48.08085" lon="-4.32306">
        <ele>9.2698974609375</ele>
        <time>2015-12-19T14:35:23Z</time>
      </trkpt>
      <trkpt lat="48.08092" lon="-4.32312">
        <ele>11.192504882812</ele>
        <time>2015-12-19T14:35:27Z</time>
      </trkpt>
      <trkpt lat="48.08094" lon="-4.32313">
        <ele>12.15380859375</ele>
        <time>2015-12-19T14:35:28Z</time>
      </trkpt>
      <trkpt lat="48.08098" lon="-4.32324">
        <ele>12.634399414062</ele>
        <time>2015-12-19T14:35:34Z</time>
      </trkpt>
      <trkpt lat="48.08099" lon="-4.32328">
        <ele>13.115112304688</ele>
        <time>2015-12-19T14:35:36Z</time>
      </trkpt>
      <trkpt lat="48.081" lon="-4.32331">
        <ele>13.595825195312</ele>
        <time>2015-12-19T14:35:38Z</time>
      </trkpt>
      <trkpt lat="48.08103" lon="-4.32344">
        <ele>12.634399414062</ele>
        <time>2015-12-19T14:35:44Z</time>
      </trkpt>
      <trkpt lat="48.08106" lon="-4.32351">
        <ele>14.076416015625</ele>
        <time>2015-12-19T14:35:48Z</time>
      </trkpt>
      <trkpt lat="48.08108" lon="-4.32358">
        <ele>13.595825195312</ele>
        <time>2015-12-19T14:35:52Z</time>
      </trkpt>
      <trkpt lat="48.08108" lon="-4.32372">
        <ele>15.9990234375</ele>
        <time>2015-12-19T14:35:58Z</time>
      </trkpt>
      <trkpt lat="48.08111" lon="-4.32382">
        <ele>14.557006835938</ele>
        <time>2015-12-19T14:36:04Z</time>
      </trkpt>
      <trkpt lat="48.08113" lon="-4.32393">
        <ele>15.037719726562</ele>
        <time>2015-12-19T14:36:09Z</time>
      </trkpt>
      <trkpt lat="48.08117" lon="-4.32407">
        <ele>15.9990234375</ele>
        <time>2015-12-19T14:36:15Z</time>
      </trkpt>
      <trkpt lat="48.08118" lon="-4.32411">
        <ele>15.037719726562</ele>
        <time>2015-12-19T14:36:17Z</time>
      </trkpt>
      <trkpt lat="48.08122" lon="-4.32419">
        <ele>13.115112304688</ele>
        <time>2015-12-19T14:36:22Z</time>
      </trkpt>
      <trkpt lat="48.08124" lon="-4.32429">
        <ele>13.115112304688</ele>
        <time>2015-12-19T14:36:27Z</time>
      </trkpt>
      <trkpt lat="48.08127" lon="-4.32438">
        <ele>15.9990234375</ele>
        <time>2015-12-19T14:36:33Z</time>
      </trkpt>
      <trkpt lat="48.08129" lon="-4.32437">
        <ele>16.479736328125</ele>
        <time>2015-12-19T14:36:38Z</time>
      </trkpt>
      <trkpt lat="48.08131" lon="-4.32434">
        <ele>16.479736328125</ele>
        <time>2015-12-19T14:36:44Z</time>
      </trkpt>
      <trkpt lat="48.0813" lon="-4.32424">
        <ele>16.96044921875</ele>
        <time>2015-12-19T14:36:50Z</time>
      </trkpt>
      <trkpt lat="48.08128" lon="-4.3241">
        <ele>17.441162109375</ele>
        <time>2015-12-19T14:36:58Z</time>
      </trkpt>
      <trkpt lat="48.08128" lon="-4.32409">
        <ele>17.441162109375</ele>
        <time>2015-12-19T14:36:59Z</time>
      </trkpt>
      <trkpt lat="48.08127" lon="-4.32393">
        <ele>18.40234375</ele>
        <time>2015-12-19T14:37:07Z</time>
      </trkpt>
      <trkpt lat="48.08125" lon="-4.32382">
        <ele>19.36376953125</ele>
        <time>2015-12-19T14:37:13Z</time>
      </trkpt>
      <trkpt lat="48.08122" lon="-4.32371">
        <ele>18.40234375</ele>
        <time>2015-12-19T14:37:18Z</time>
      </trkpt>
      <trkpt lat="48.08119" lon="-4.32361">
        <ele>19.36376953125</ele>
        <time>2015-12-19T14:37:24Z</time>
      </trkpt>
      <trkpt lat="48.08118" lon="-4.32359">
        <ele>19.844360351562</ele>
        <time>2015-12-19T14:37:25Z</time>
      </trkpt>
      <trkpt lat="48.08117" lon="-4.32354">
        <ele>21.766967773438</ele>
        <time>2015-12-19T14:37:28Z</time>
      </trkpt>
      <trkpt lat="48.08122" lon="-4.32347">
        <ele>24.170288085938</ele>
        <time>2015-12-19T14:37:35Z</time>
      </trkpt>
      <trkpt lat="48.08129" lon="-4.32344">
        <ele>25.131713867188</ele>
        <time>2015-12-19T14:37:43Z</time>
      </trkpt>
      <trkpt lat="48.08137" lon="-4.32342">
        <ele>26.092895507812</ele>
        <time>2015-12-19T14:37:51Z</time>
      </trkpt>
      <trkpt lat="48.08144" lon="-4.32338">
        <ele>26.573608398438</ele>
        <time>2015-12-19T14:37:59Z</time>
      </trkpt>
      <trkpt lat="48.0815" lon="-4.32337">
        <ele>27.054321289062</ele>
        <time>2015-12-19T14:38:05Z</time>
      </trkpt>
      <trkpt lat="48.08154" lon="-4.32335">
        <ele>28.015502929688</ele>
        <time>2015-12-19T14:38:09Z</time>
      </trkpt>
      <trkpt lat="48.08161" lon="-4.32336">
        <ele>27.054321289062</ele>
        <time>2015-12-19T14:38:15Z</time>
      </trkpt>
      <trkpt lat="48.08162" lon="-4.32337">
        <ele>26.573608398438</ele>
        <time>2015-12-19T14:38:16Z</time>
      </trkpt>
      <trkpt lat="48.08169" lon="-4.32334">
        <ele>28.496215820312</ele>
        <time>2015-12-19T14:38:24Z</time>
      </trkpt>
      <trkpt lat="48.08173" lon="-4.32334">
        <ele>29.45751953125</ele>
        <time>2015-12-19T14:38:29Z</time>
      </trkpt>
      <trkpt lat="48.08178" lon="-4.32333">
        <ele>30.899536132812</ele>
        <time>2015-12-19T14:38:35Z</time>
      </trkpt>
      <trkpt lat="48.08185" lon="-4.32329">
        <ele>31.860717773438</ele>
        <time>2015-12-19T14:38:41Z</time>
      </trkpt>
      <trkpt lat="48.08193" lon="-4.32324">
        <ele>28.976928710938</ele>
        <time>2015-12-19T14:38:48Z</time>
      </trkpt>
      <trkpt lat="48.08198" lon="-4.32319">
        <ele>30.899536132812</ele>
        <time>2015-12-19T14:38:55Z</time>
      </trkpt>
      <trkpt lat="48.08204" lon="-4.32314">
        <ele>32.822265625</ele>
        <time>2015-12-19T14:39:02Z</time>
      </trkpt>
      <trkpt lat="48.08209" lon="-4.32311">
        <ele>36.66748046875</ele>
        <time>2015-12-19T14:39:07Z</time>
      </trkpt>
      <trkpt lat="48.08217" lon="-4.3231">
        <ele>40.993408203125</ele>
        <time>2015-12-19T14:39:14Z</time>
      </trkpt>
      <trkpt lat="48.08222" lon="-4.32309">
        <ele>45.319213867188</ele>
        <time>2015-12-19T14:39:20Z</time>
      </trkpt>
      <trkpt lat="48.08225" lon="-4.32306">
        <ele>49.16455078125</ele>
        <time>2015-12-19T14:39:26Z</time>
      </trkpt>
      <trkpt lat="48.08232" lon="-4.32307">
        <ele>45.799926757812</ele>
        <time>2015-12-19T14:39:33Z</time>
      </trkpt>
      <trkpt lat="48.08237" lon="-4.32308">
        <ele>45.319213867188</ele>
        <time>2015-12-19T14:39:39Z</time>
      </trkpt>
      <trkpt lat="48.08243" lon="-4.32309">
        <ele>51.087158203125</ele>
        <time>2015-12-19T14:39:47Z</time>
      </trkpt>
      <trkpt lat="48.08249" lon="-4.32309">
        <ele>50.606567382812</ele>
        <time>2015-12-19T14:39:52Z</time>
      </trkpt>
      <trkpt lat="48.08252" lon="-4.3231">
        <ele>48.683959960938</ele>
        <time>2015-12-19T14:39:56Z</time>
      </trkpt>
      <trkpt lat="48.08256" lon="-4.32317">
        <ele>48.203369140625</ele>
        <time>2015-12-19T14:40:02Z</time>
      </trkpt>
      <trkpt lat="48.0826" lon="-4.32323">
        <ele>47.722534179688</ele>
        <time>2015-12-19T14:40:07Z</time>
      </trkpt>
      <trkpt lat="48.08264" lon="-4.32332">
        <ele>50.1259765625</ele>
        <time>2015-12-19T14:40:13Z</time>
      </trkpt>
      <trkpt lat="48.08267" lon="-4.32333">
        <ele>51.56787109375</ele>
        <time>2015-12-19T14:40:16Z</time>
      </trkpt>
      <trkpt lat="48.08276" lon="-4.32323">
        <ele>51.56787109375</ele>
        <time>2015-12-19T14:40:25Z</time>
      </trkpt>
      <trkpt lat="48.08278" lon="-4.32316">
        <ele>52.048583984375</ele>
        <time>2015-12-19T14:40:29Z</time>
      </trkpt>
      <trkpt lat="48.0828" lon="-4.32312">
        <ele>52.048583984375</ele>
        <time>2015-12-19T14:40:33Z</time>
      </trkpt>
      <trkpt lat="48.08283" lon="-4.32312">
        <ele>52.529174804688</ele>
        <time>2015-12-19T14:40:35Z</time>
      </trkpt>
      <trkpt lat="48.08294" lon="-4.3231">
        <ele>55.893798828125</ele>
        <time>2015-12-19T14:40:45Z</time>
      </trkpt>
      <trkpt lat="48.08301" lon="-4.32307">
        <ele>57.816528320312</ele>
        <time>2015-12-19T14:40:52Z</time>
      </trkpt>
      <trkpt lat="48.08308" lon="-4.32307">
        <ele>58.777709960938</ele>
        <time>2015-12-19T14:40:59Z</time>
      </trkpt>
      <trkpt lat="48.08316" lon="-4.32306">
        <ele>60.2197265625</ele>
        <time>2015-12-19T14:41:07Z</time>
      </trkpt>
      <trkpt lat="48.08322" lon="-4.32305">
        <ele>61.661743164062</ele>
        <time>2015-12-19T14:41:13Z</time>
      </trkpt>
      <trkpt lat="48.08331" lon="-4.32305">
        <ele>64.545654296875</ele>
        <time>2015-12-19T14:41:21Z</time>
      </trkpt>
      <trkpt lat="48.08337" lon="-4.32303">
        <ele>66.46826171875</ele>
        <time>2015-12-19T14:41:27Z</time>
      </trkpt>
      <trkpt lat="48.08345" lon="-4.32303">
        <ele>68.87158203125</ele>
        <time>2015-12-19T14:41:34Z</time>
      </trkpt>
      <trkpt lat="48.08349" lon="-4.32301">
        <ele>69.352294921875</ele>
        <time>2015-12-19T14:41:37Z</time>
      </trkpt>
      <trkpt lat="48.08349" lon="-4.32298">
        <ele>70.3134765625</ele>
        <time>2015-12-19T14:41:43Z</time>
      </trkpt>
      <trkpt lat="48.08349" lon="-4.32291">
        <ele>70.794189453125</ele>
        <time>2015-12-19T14:41:49Z</time>
      </trkpt>
      <trkpt lat="48.08348" lon="-4.32284">
        <ele>71.27490234375</ele>
        <time>2015-12-19T14:41:55Z</time>
      </trkpt>
      <trkpt lat="48.08346" lon="-4.32274">
        <ele>69.832885742188</ele>
        <time>2015-12-19T14:42:00Z</time>
      </trkpt>
      <trkpt lat="48.08347" lon="-4.32267">
        <ele>65.507080078125</ele>
        <time>2015-12-19T14:42:05Z</time>
      </trkpt>
      <trkpt lat="48.08347" lon="-4.32265">
        <ele>65.0263671875</ele>
        <time>2015-12-19T14:42:06Z</time>
      </trkpt>
      <trkpt lat="48.08346" lon="-4.32254">
        <ele>64.545654296875</ele>
        <time>2015-12-19T14:42:11Z</time>
      </trkpt>
      <trkpt lat="48.08345" lon="-4.32246">
        <ele>63.103637695312</ele>
        <time>2015-12-19T14:42:15Z</time>
      </trkpt>
      <trkpt lat="48.08343" lon="-4.32232">
        <ele>62.622924804688</ele>
        <time>2015-12-19T14:42:22Z</time>
      </trkpt>
      <trkpt lat="48.0834" lon="-4.32216">
        <ele>61.661743164062</ele>
        <time>2015-12-19T14:42:31Z</time>
      </trkpt>
      <trkpt lat="48.0834" lon="-4.32213">
        <ele>60.700317382812</ele>
        <time>2015-12-19T14:42:33Z</time>
      </trkpt>
      <trkpt lat="48.08338" lon="-4.32201">
        <ele>58.297119140625</ele>
        <time>2015-12-19T14:42:38Z</time>
      </trkpt>
      <trkpt lat="48.08338" lon="-4.32193">
        <ele>58.777709960938</ele>
        <time>2015-12-19T14:42:43Z</time>
      </trkpt>
      <trkpt lat="48.0834" lon="-4.32189">
        <ele>59.739135742188</ele>
        <time>2015-12-19T14:42:46Z</time>
      </trkpt>
      <trkpt lat="48.0835" lon="-4.32187">
        <ele>61.181030273438</ele>
        <time>2015-12-19T14:42:54Z</time>
      </trkpt>
      <trkpt lat="48.08357" lon="-4.32183">
        <ele>62.142333984375</ele>
        <time>2015-12-19T14:43:01Z</time>
      </trkpt>
      <trkpt lat="48.08362" lon="-4.32171">
        <ele>63.103637695312</ele>
        <time>2015-12-19T14:43:08Z</time>
      </trkpt>
      <trkpt lat="48.08364" lon="-4.32167">
        <ele>64.545654296875</ele>
        <time>2015-12-19T14:43:11Z</time>
      </trkpt>
      <trkpt lat="48.08364" lon="-4.32164">
        <ele>64.545654296875</ele>
        <time>2015-12-19T14:43:13Z</time>
      </trkpt>
      <trkpt lat="48.08371" lon="-4.32166">
        <ele>67.4296875</ele>
        <time>2015-12-19T14:43:20Z</time>
      </trkpt>
      <trkpt lat="48.0838" lon="-4.32165">
        <ele>68.390869140625</ele>
        <time>2015-12-19T14:43:27Z</time>
      </trkpt>
      <trkpt lat="48.08382" lon="-4.32163">
        <ele>67.910278320312</ele>
        <time>2015-12-19T14:43:29Z</time>
      </trkpt>
      <trkpt lat="48.0839" lon="-4.32165">
        <ele>67.910278320312</ele>
        <time>2015-12-19T14:43:35Z</time>
      </trkpt>
      <trkpt lat="48.0839" lon="-4.32167">
        <ele>68.390869140625</ele>
        <time>2015-12-19T14:43:36Z</time>
      </trkpt>
      <trkpt lat="48.08391" lon="-4.32179">
        <ele>69.832885742188</ele>
        <time>2015-12-19T14:43:42Z</time>
      </trkpt>
      <trkpt lat="48.0839" lon="-4.3219">
        <ele>69.352294921875</ele>
        <time>2015-12-19T14:43:47Z</time>
      </trkpt>
      <trkpt lat="48.08391" lon="-4.32193">
        <ele>70.794189453125</ele>
        <time>2015-12-19T14:43:49Z</time>
      </trkpt>
      <trkpt lat="48.08392" lon="-4.32204">
        <ele>71.755493164062</ele>
        <time>2015-12-19T14:43:54Z</time>
      </trkpt>
      <trkpt lat="48.08399" lon="-4.32213">
        <ele>69.832885742188</ele>
        <time>2015-12-19T14:44:01Z</time>
      </trkpt>
      <trkpt lat="48.08409" lon="-4.32211">
        <ele>68.87158203125</ele>
        <time>2015-12-19T14:44:08Z</time>
      </trkpt>
      <trkpt lat="48.08414" lon="-4.32205">
        <ele>67.910278320312</ele>
        <time>2015-12-19T14:44:14Z</time>
      </trkpt>
      <trkpt lat="48.08416" lon="-4.32214">
        <ele>69.352294921875</ele>
        <time>2015-12-19T14:44:19Z</time>
      </trkpt>
      <trkpt lat="48.08415" lon="-4.32222">
        <ele>68.87158203125</ele>
        <time>2015-12-19T14:44:23Z</time>
      </trkpt>
      <trkpt lat="48.08414" lon="-4.32236">
        <ele>69.832885742188</ele>
        <time>2015-12-19T14:44:31Z</time>
      </trkpt>
      <trkpt lat="48.08413" lon="-4.32245">
        <ele>69.832885742188</ele>
        <time>2015-12-19T14:44:35Z</time>
      </trkpt>
      <trkpt lat="48.08417" lon="-4.32247">
        <ele>68.87158203125</ele>
        <time>2015-12-19T14:44:40Z</time>
      </trkpt>
      <trkpt lat="48.08425" lon="-4.3225">
        <ele>69.352294921875</ele>
        <time>2015-12-19T14:44:47Z</time>
      </trkpt>
      <trkpt lat="48.08431" lon="-4.32252">
        <ele>67.910278320312</ele>
        <time>2015-12-19T14:44:52Z</time>
      </trkpt>
      <trkpt lat="48.08436" lon="-4.32255">
        <ele>67.910278320312</ele>
        <time>2015-12-19T14:44:57Z</time>
      </trkpt>
      <trkpt lat="48.08445" lon="-4.32258">
        <ele>68.390869140625</ele>
        <time>2015-12-19T14:45:05Z</time>
      </trkpt>
      <trkpt lat="48.08452" lon="-4.32261">
        <ele>69.352294921875</ele>
        <time>2015-12-19T14:45:12Z</time>
      </trkpt>
      <trkpt lat="48.08455" lon="-4.32262">
        <ele>68.390869140625</ele>
        <time>2015-12-19T14:45:18Z</time>
      </trkpt>
      <trkpt lat="48.08452" lon="-4.32261">
        <ele>67.4296875</ele>
        <time>2015-12-19T14:45:21Z</time>
      </trkpt>
      <trkpt lat="48.08447" lon="-4.32259">
        <ele>64.545654296875</ele>
        <time>2015-12-19T14:45:26Z</time>
      </trkpt>
      <trkpt lat="48.08444" lon="-4.32258">
        <ele>63.584350585938</ele>
        <time>2015-12-19T14:45:29Z</time>
      </trkpt>
      <trkpt lat="48.0844" lon="-4.32255">
        <ele>60.700317382812</ele>
        <time>2015-12-19T14:45:33Z</time>
      </trkpt>
      <trkpt lat="48.08438" lon="-4.32255">
        <ele>59.258422851562</ele>
        <time>2015-12-19T14:45:35Z</time>
      </trkpt>
      <trkpt lat="48.08434" lon="-4.32255">
        <ele>58.777709960938</ele>
        <time>2015-12-19T14:45:40Z</time>
      </trkpt>
      <trkpt lat="48.08423" lon="-4.32248">
        <ele>59.258422851562</ele>
        <time>2015-12-19T14:45:48Z</time>
      </trkpt>
      <trkpt lat="48.08418" lon="-4.32245">
        <ele>59.258422851562</ele>
        <time>2015-12-19T14:45:53Z</time>
      </trkpt>
      <trkpt lat="48.08415" lon="-4.32248">
        <ele>59.258422851562</ele>
        <time>2015-12-19T14:45:56Z</time>
      </trkpt>
      <trkpt lat="48.08415" lon="-4.3225">
        <ele>59.258422851562</ele>
        <time>2015-12-19T14:45:57Z</time>
      </trkpt>
      <trkpt lat="48.08414" lon="-4.32268">
        <ele>59.258422851562</ele>
        <time>2015-12-19T14:46:05Z</time>
      </trkpt>
      <trkpt lat="48.08413" lon="-4.32282">
        <ele>62.142333984375</ele>
        <time>2015-12-19T14:46:12Z</time>
      </trkpt>
      <trkpt lat="48.08417" lon="-4.32296">
        <ele>62.622924804688</ele>
        <time>2015-12-19T14:46:20Z</time>
      </trkpt>
      <trkpt lat="48.08427" lon="-4.323">
        <ele>64.065063476562</ele>
        <time>2015-12-19T14:46:28Z</time>
      </trkpt>
      <trkpt lat="48.08435" lon="-4.32301">
        <ele>65.507080078125</ele>
        <time>2015-12-19T14:46:34Z</time>
      </trkpt>
      <trkpt lat="48.08443" lon="-4.32303">
        <ele>63.103637695312</ele>
        <time>2015-12-19T14:46:41Z</time>
      </trkpt>
      <trkpt lat="48.08447" lon="-4.32308">
        <ele>58.777709960938</ele>
        <time>2015-12-19T14:46:45Z</time>
      </trkpt>
      <trkpt lat="48.08451" lon="-4.32316">
        <ele>51.56787109375</ele>
        <time>2015-12-19T14:46:51Z</time>
      </trkpt>
      <trkpt lat="48.08454" lon="-4.32315">
        <ele>51.087158203125</ele>
        <time>2015-12-19T14:46:53Z</time>
      </trkpt>
      <trkpt lat="48.08459" lon="-4.32319">
        <ele>48.203369140625</ele>
        <time>2015-12-19T14:46:58Z</time>
      </trkpt>
      <trkpt lat="48.08465" lon="-4.32324">
        <ele>44.838623046875</ele>
        <time>2015-12-19T14:47:03Z</time>
      </trkpt>
      <trkpt lat="48.0848" lon="-4.32311">
        <ele>53.97119140625</ele>
        <time>2015-12-19T14:47:10Z</time>
      </trkpt>
      <trkpt lat="48.08483" lon="-4.32305">
        <ele>57.335815429688</ele>
        <time>2015-12-19T14:47:15Z</time>
      </trkpt>
      <trkpt lat="48.08485" lon="-4.3229">
        <ele>60.2197265625</ele>
        <time>2015-12-19T14:47:21Z</time>
      </trkpt>
      <trkpt lat="48.08486" lon="-4.32281">
        <ele>61.661743164062</ele>
        <time>2015-12-19T14:47:26Z</time>
      </trkpt>
      <trkpt lat="48.08488" lon="-4.32272">
        <ele>62.142333984375</ele>
        <time>2015-12-19T14:47:31Z</time>
      </trkpt>
      <trkpt lat="48.08489" lon="-4.32262">
        <ele>62.622924804688</ele>
        <time>2015-12-19T14:47:36Z</time>
      </trkpt>
      <trkpt lat="48.08492" lon="-4.32252">
        <ele>62.142333984375</ele>
        <time>2015-12-19T14:47:42Z</time>
      </trkpt>
      <trkpt lat="48.08494" lon="-4.32245">
        <ele>60.700317382812</ele>
        <time>2015-12-19T14:47:46Z</time>
      </trkpt>
      <trkpt lat="48.08494" lon="-4.32243">
        <ele>60.700317382812</ele>
        <time>2015-12-19T14:47:47Z</time>
      </trkpt>
      <trkpt lat="48.08495" lon="-4.32229">
        <ele>59.258422851562</ele>
        <time>2015-12-19T14:47:53Z</time>
      </trkpt>
      <trkpt lat="48.085" lon="-4.3222">
        <ele>59.739135742188</ele>
        <time>2015-12-19T14:47:59Z</time>
      </trkpt>
      <trkpt lat="48.08502" lon="-4.32211">
        <ele>60.2197265625</ele>
        <time>2015-12-19T14:48:04Z</time>
      </trkpt>
      <trkpt lat="48.08505" lon="-4.32203">
        <ele>60.700317382812</ele>
        <time>2015-12-19T14:48:09Z</time>
      </trkpt>
      <trkpt lat="48.08512" lon="-4.32198">
        <ele>62.622924804688</ele>
        <time>2015-12-19T14:48:15Z</time>
      </trkpt>
      <trkpt lat="48.08518" lon="-4.32193">
        <ele>63.584350585938</ele>
        <time>2015-12-19T14:48:20Z</time>
      </trkpt>
      <trkpt lat="48.08521" lon="-4.3219">
        <ele>63.584350585938</ele>
        <time>2015-12-19T14:48:22Z</time>
      </trkpt>
      <trkpt lat="48.08527" lon="-4.3218">
        <ele>62.622924804688</ele>
        <time>2015-12-19T14:48:30Z</time>
      </trkpt>
      <trkpt lat="48.08529" lon="-4.32179">
        <ele>63.103637695312</ele>
        <time>2015-12-19T14:48:32Z</time>
      </trkpt>
      <trkpt lat="48.08536" lon="-4.32184">
        <ele>66.46826171875</ele>
        <time>2015-12-19T14:48:38Z</time>
      </trkpt>
      <trkpt lat="48.08543" lon="-4.32194">
        <ele>70.3134765625</ele>
        <time>2015-12-19T14:48:45Z</time>
      </trkpt>
      <trkpt lat="48.08546" lon="-4.32199">
        <ele>72.236206054688</ele>
        <time>2015-12-19T14:48:48Z</time>
      </trkpt>
      <trkpt lat="48.08551" lon="-4.32208">
        <ele>73.197631835938</ele>
        <time>2015-12-19T14:48:55Z</time>
      </trkpt>
      <trkpt lat="48.08558" lon="-4.32223">
        <ele>72.716918945312</ele>
        <time>2015-12-19T14:49:03Z</time>
      </trkpt>
      <trkpt lat="48.08565" lon="-4.32234">
        <ele>71.755493164062</ele>
        <time>2015-12-19T14:49:11Z</time>
      </trkpt>
      <trkpt lat="48.08571" lon="-4.32243">
        <ele>72.236206054688</ele>
        <time>2015-12-19T14:49:17Z</time>
      </trkpt>
      <trkpt lat="48.0858" lon="-4.32251">
        <ele>73.197631835938</ele>
        <time>2015-12-19T14:49:25Z</time>
      </trkpt>
      <trkpt lat="48.08585" lon="-4.32252">
        <ele>73.67822265625</ele>
        <time>2015-12-19T14:49:30Z</time>
      </trkpt>
      <trkpt lat="48.08592" lon="-4.3225">
        <ele>73.67822265625</ele>
        <time>2015-12-19T14:49:36Z</time>
      </trkpt>
      <trkpt lat="48.086" lon="-4.32239">
        <ele>75.600830078125</ele>
        <time>2015-12-19T14:49:44Z</time>
      </trkpt>
      <trkpt lat="48.08609" lon="-4.32231">
        <ele>77.042846679688</ele>
        <time>2015-12-19T14:49:51Z</time>
      </trkpt>
      <trkpt lat="48.08619" lon="-4.32225">
        <ele>82.330078125</ele>
        <time>2015-12-19T14:49:57Z</time>
      </trkpt>
      <trkpt lat="48.08625" lon="-4.32219">
        <ele>78.004028320312</ele>
        <time>2015-12-19T14:50:04Z</time>
      </trkpt>
      <trkpt lat="48.08627" lon="-4.32216">
        <ele>80.407470703125</ele>
        <time>2015-12-19T14:50:09Z</time>
      </trkpt>
      <trkpt lat="48.0863" lon="-4.32218">
        <ele>79.446044921875</ele>
        <time>2015-12-19T14:50:12Z</time>
      </trkpt>
      <trkpt lat="48.08643" lon="-4.32232">
        <ele>86.656005859375</ele>
        <time>2015-12-19T14:50:21Z</time>
      </trkpt>
      <trkpt lat="48.08645" lon="-4.32234">
        <ele>82.330078125</ele>
        <time>2015-12-19T14:50:26Z</time>
      </trkpt>
      <trkpt lat="48.0865" lon="-4.32233">
        <ele>80.88818359375</ele>
        <time>2015-12-19T14:50:30Z</time>
      </trkpt>
      <trkpt lat="48.08656" lon="-4.32227">
        <ele>78.965454101562</ele>
        <time>2015-12-19T14:50:37Z</time>
      </trkpt>
      <trkpt lat="48.08664" lon="-4.32214">
        <ele>85.694580078125</ele>
        <time>2015-12-19T14:50:44Z</time>
      </trkpt>
      <trkpt lat="48.08664" lon="-4.3221">
        <ele>83.77197265625</ele>
        <time>2015-12-19T14:50:46Z</time>
      </trkpt>
      <trkpt lat="48.08665" lon="-4.32197">
        <ele>81.368774414062</ele>
        <time>2015-12-19T14:50:53Z</time>
      </trkpt>
      <trkpt lat="48.08668" lon="-4.32184">
        <ele>80.88818359375</ele>
        <time>2015-12-19T14:51:00Z</time>
      </trkpt>
      <trkpt lat="48.08669" lon="-4.32183">
        <ele>80.88818359375</ele>
        <time>2015-12-19T14:51:01Z</time>
      </trkpt>
      <trkpt lat="48.08671" lon="-4.3218">
        <ele>78.484741210938</ele>
        <time>2015-12-19T14:51:07Z</time>
      </trkpt>
      <trkpt lat="48.08675" lon="-4.32182">
        <ele>76.562133789062</ele>
        <time>2015-12-19T14:51:11Z</time>
      </trkpt>
      <trkpt lat="48.08682" lon="-4.32184">
        <ele>74.158813476562</ele>
        <time>2015-12-19T14:51:17Z</time>
      </trkpt>
      <trkpt lat="48.08686" lon="-4.32185">
        <ele>73.67822265625</ele>
        <time>2015-12-19T14:51:20Z</time>
      </trkpt>
      <trkpt lat="48.08699" lon="-4.32188">
        <ele>71.27490234375</ele>
        <time>2015-12-19T14:51:30Z</time>
      </trkpt>
      <trkpt lat="48.08708" lon="-4.32192">
        <ele>65.0263671875</ele>
        <time>2015-12-19T14:51:38Z</time>
      </trkpt>
      <trkpt lat="48.08715" lon="-4.32193">
        <ele>64.545654296875</ele>
        <time>2015-12-19T14:51:43Z</time>
      </trkpt>
      <trkpt lat="48.08723" lon="-4.32194">
        <ele>64.065063476562</ele>
        <time>2015-12-19T14:51:48Z</time>
      </trkpt>
      <trkpt lat="48.08731" lon="-4.3219">
        <ele>63.584350585938</ele>
        <time>2015-12-19T14:51:54Z</time>
      </trkpt>
      <trkpt lat="48.08735" lon="-4.32181">
        <ele>64.545654296875</ele>
        <time>2015-12-19T14:51:59Z</time>
      </trkpt>
      <trkpt lat="48.0874" lon="-4.32167">
        <ele>65.0263671875</ele>
        <time>2015-12-19T14:52:06Z</time>
      </trkpt>
      <trkpt lat="48.08744" lon="-4.32159">
        <ele>65.0263671875</ele>
        <time>2015-12-19T14:52:11Z</time>
      </trkpt>
      <trkpt lat="48.08748" lon="-4.32151">
        <ele>65.507080078125</ele>
        <time>2015-12-19T14:52:16Z</time>
      </trkpt>
      <trkpt lat="48.0875" lon="-4.32143">
        <ele>65.0263671875</ele>
        <time>2015-12-19T14:52:20Z</time>
      </trkpt>
      <trkpt lat="48.08754" lon="-4.32139">
        <ele>67.4296875</ele>
        <time>2015-12-19T14:52:24Z</time>
      </trkpt>
      <trkpt lat="48.08757" lon="-4.32129">
        <ele>68.390869140625</ele>
        <time>2015-12-19T14:52:29Z</time>
      </trkpt>
      <trkpt lat="48.08759" lon="-4.32117">
        <ele>67.910278320312</ele>
        <time>2015-12-19T14:52:35Z</time>
      </trkpt>
      <trkpt lat="48.08762" lon="-4.32113">
        <ele>67.4296875</ele>
        <time>2015-12-19T14:52:38Z</time>
      </trkpt>
      <trkpt lat="48.0877" lon="-4.32105">
        <ele>65.0263671875</ele>
        <time>2015-12-19T14:52:46Z</time>
      </trkpt>
      <trkpt lat="48.08776" lon="-4.32099">
        <ele>63.584350585938</ele>
        <time>2015-12-19T14:52:52Z</time>
      </trkpt>
      <trkpt lat="48.08777" lon="-4.321">
        <ele>63.584350585938</ele>
        <time>2015-12-19T14:52:53Z</time>
      </trkpt>
      <trkpt lat="48.08782" lon="-4.321">
        <ele>61.661743164062</ele>
        <time>2015-12-19T14:52:57Z</time>
      </trkpt>
      <trkpt lat="48.08785" lon="-4.32101">
        <ele>60.700317382812</ele>
        <time>2015-12-19T14:53:00Z</time>
      </trkpt>
      <trkpt lat="48.08795" lon="-4.32105">
        <ele>59.258422851562</ele>
        <time>2015-12-19T14:53:09Z</time>
      </trkpt>
      <trkpt lat="48.08798" lon="-4.32108">
        <ele>57.816528320312</ele>
        <time>2015-12-19T14:53:13Z</time>
      </trkpt>
      <trkpt lat="48.08807" lon="-4.32113">
        <ele>56.37451171875</ele>
        <time>2015-12-19T14:53:21Z</time>
      </trkpt>
      <trkpt lat="48.08808" lon="-4.32114">
        <ele>53.97119140625</ele>
        <time>2015-12-19T14:53:23Z</time>
      </trkpt>
      <trkpt lat="48.08816" lon="-4.32116">
        <ele>53.009765625</ele>
        <time>2015-12-19T14:53:29Z</time>
      </trkpt>
      <trkpt lat="48.0882" lon="-4.32117">
        <ele>51.56787109375</ele>
        <time>2015-12-19T14:53:34Z</time>
      </trkpt>
      <trkpt lat="48.08823" lon="-4.32119">
        <ele>51.087158203125</ele>
        <time>2015-12-19T14:53:37Z</time>
      </trkpt>
      <trkpt lat="48.0883" lon="-4.32124">
        <ele>49.16455078125</ele>
        <time>2015-12-19T14:53:44Z</time>
      </trkpt>
      <trkpt lat="48.08833" lon="-4.32125">
        <ele>48.683959960938</ele>
        <time>2015-12-19T14:53:46Z</time>
      </trkpt>
      <trkpt lat="48.08839" lon="-4.32129">
        <ele>48.203369140625</ele>
        <time>2015-12-19T14:53:52Z</time>
      </trkpt>
      <trkpt lat="48.08844" lon="-4.3213">
        <ele>49.16455078125</ele>
        <time>2015-12-19T14:53:56Z</time>
      </trkpt>
      <trkpt lat="48.08854" lon="-4.32135">
        <ele>49.645263671875</ele>
        <time>2015-12-19T14:54:04Z</time>
      </trkpt>
      <trkpt lat="48.0886" lon="-4.32138">
        <ele>46.76123046875</ele>
        <time>2015-12-19T14:54:10Z</time>
      </trkpt>
      <trkpt lat="48.08866" lon="-4.32143">
        <ele>44.838623046875</ele>
        <time>2015-12-19T14:54:16Z</time>
      </trkpt>
      <trkpt lat="48.08871" lon="-4.32147">
        <ele>43.396606445312</ele>
        <time>2015-12-19T14:54:21Z</time>
      </trkpt>
      <trkpt lat="48.08874" lon="-4.32151">
        <ele>43.877319335938</ele>
        <time>2015-12-19T14:54:24Z</time>
      </trkpt>
      <trkpt lat="48.08879" lon="-4.32154">
        <ele>44.838623046875</ele>
        <time>2015-12-19T14:54:28Z</time>
      </trkpt>
      <trkpt lat="48.08881" lon="-4.32156">
        <ele>45.319213867188</ele>
        <time>2015-12-19T14:54:30Z</time>
      </trkpt>
      <trkpt lat="48.08885" lon="-4.32158">
        <ele>46.76123046875</ele>
        <time>2015-12-19T14:54:33Z</time>
      </trkpt>
      <trkpt lat="48.08891" lon="-4.3216">
        <ele>47.722534179688</ele>
        <time>2015-12-19T14:54:38Z</time>
      </trkpt>
      <trkpt lat="48.08901" lon="-4.32164">
        <ele>45.799926757812</ele>
        <time>2015-12-19T14:54:46Z</time>
      </trkpt>
      <trkpt lat="48.08905" lon="-4.3216">
        <ele>46.280639648438</ele>
        <time>2015-12-19T14:54:50Z</time>
      </trkpt>
      <trkpt lat="48.08912" lon="-4.32152">
        <ele>42.916015625</ele>
        <time>2015-12-19T14:54:56Z</time>
      </trkpt>
      <trkpt lat="48.08919" lon="-4.3215">
        <ele>41.954711914062</ele>
        <time>2015-12-19T14:55:02Z</time>
      </trkpt>
      <trkpt lat="48.08921" lon="-4.3215">
        <ele>41.473999023438</ele>
        <time>2015-12-19T14:55:04Z</time>
      </trkpt>
      <trkpt lat="48.08926" lon="-4.32147">
        <ele>41.954711914062</ele>
        <time>2015-12-19T14:55:08Z</time>
      </trkpt>
      <trkpt lat="48.08933" lon="-4.32142">
        <ele>42.435424804688</ele>
        <time>2015-12-19T14:55:15Z</time>
      </trkpt>
      <trkpt lat="48.08935" lon="-4.32141">
        <ele>43.396606445312</ele>
        <time>2015-12-19T14:55:17Z</time>
      </trkpt>
      <trkpt lat="48.08941" lon="-4.32138">
        <ele>37.148071289062</ele>
        <time>2015-12-19T14:55:24Z</time>
      </trkpt>
      <trkpt lat="48.08945" lon="-4.32135">
        <ele>33.783447265625</ele>
        <time>2015-12-19T14:55:29Z</time>
      </trkpt>
      <trkpt lat="48.08949" lon="-4.32131">
        <ele>33.783447265625</ele>
        <time>2015-12-19T14:55:34Z</time>
      </trkpt>
      <trkpt lat="48.0895" lon="-4.32129">
        <ele>33.302856445312</ele>
        <time>2015-12-19T14:55:35Z</time>
      </trkpt>
      <trkpt lat="48.08961" lon="-4.32122">
        <ele>42.916015625</ele>
        <time>2015-12-19T14:55:43Z</time>
      </trkpt>
      <trkpt lat="48.0897" lon="-4.32118">
        <ele>52.529174804688</ele>
        <time>2015-12-19T14:55:47Z</time>
      </trkpt>
      <trkpt lat="48.08973" lon="-4.32117">
        <ele>54.451782226562</ele>
        <time>2015-12-19T14:55:49Z</time>
      </trkpt>
      <trkpt lat="48.0898" lon="-4.32114">
        <ele>53.490478515625</ele>
        <time>2015-12-19T14:55:55Z</time>
      </trkpt>
      <trkpt lat="48.08985" lon="-4.32106">
        <ele>56.37451171875</ele>
        <time>2015-12-19T14:56:00Z</time>
      </trkpt>
      <trkpt lat="48.08987" lon="-4.321">
        <ele>58.297119140625</ele>
        <time>2015-12-19T14:56:03Z</time>
      </trkpt>
      <trkpt lat="48.08991" lon="-4.3209">
        <ele>59.258422851562</ele>
        <time>2015-12-19T14:56:09Z</time>
      </trkpt>
      <trkpt lat="48.08992" lon="-4.32084">
        <ele>59.739135742188</ele>
        <time>2015-12-19T14:56:13Z</time>
      </trkpt>
      <trkpt lat="48.08993" lon="-4.32073">
        <ele>57.816528320312</ele>
        <time>2015-12-19T14:56:19Z</time>
      </trkpt>
      <trkpt lat="48.08992" lon="-4.32069">
        <ele>57.335815429688</ele>
        <time>2015-12-19T14:56:21Z</time>
      </trkpt>
      <trkpt lat="48.08995" lon="-4.32057">
        <ele>57.335815429688</ele>
        <time>2015-12-19T14:56:27Z</time>
      </trkpt>
      <trkpt lat="48.08997" lon="-4.32047">
        <ele>54.451782226562</ele>
        <time>2015-12-19T14:56:32Z</time>
      </trkpt>
      <trkpt lat="48.08997" lon="-4.32031">
        <ele>53.490478515625</ele>
        <time>2015-12-19T14:56:39Z</time>
      </trkpt>
      <trkpt lat="48.08998" lon="-4.32026">
        <ele>53.009765625</ele>
        <time>2015-12-19T14:56:42Z</time>
      </trkpt>
      <trkpt lat="48.09" lon="-4.32015">
        <ele>51.56787109375</ele>
        <time>2015-12-19T14:56:47Z</time>
      </trkpt>
      <trkpt lat="48.09" lon="-4.32009">
        <ele>50.606567382812</ele>
        <time>2015-12-19T14:56:50Z</time>
      </trkpt>
      <trkpt lat="48.09003" lon="-4.31998">
        <ele>48.203369140625</ele>
        <time>2015-12-19T14:56:56Z</time>
      </trkpt>
      <trkpt lat="48.09002" lon="-4.31985">
        <ele>40.512817382812</ele>
        <time>2015-12-19T14:57:03Z</time>
      </trkpt>
      <trkpt lat="48.09002" lon="-4.31983">
        <ele>40.032104492188</ele>
        <time>2015-12-19T14:57:04Z</time>
      </trkpt>
      <trkpt lat="48.09003" lon="-4.31979">
        <ele>38.590087890625</ele>
        <time>2015-12-19T14:57:06Z</time>
      </trkpt>
      <trkpt lat="48.09002" lon="-4.31971">
        <ele>37.148071289062</ele>
        <time>2015-12-19T14:57:10Z</time>
      </trkpt>
      <trkpt lat="48.08999" lon="-4.31956">
        <ele>37.148071289062</ele>
        <time>2015-12-19T14:57:18Z</time>
      </trkpt>
      <trkpt lat="48.08997" lon="-4.31952">
        <ele>38.109375</ele>
        <time>2015-12-19T14:57:23Z</time>
      </trkpt>
      <trkpt lat="48.08996" lon="-4.3195">
        <ele>38.590087890625</ele>
        <time>2015-12-19T14:57:25Z</time>
      </trkpt>
      <trkpt lat="48.08992" lon="-4.3194">
        <ele>38.109375</ele>
        <time>2015-12-19T14:57:33Z</time>
      </trkpt>
      <trkpt lat="48.08988" lon="-4.31934">
        <ele>38.109375</ele>
        <time>2015-12-19T14:57:39Z</time>
      </trkpt>
      <trkpt lat="48.08984" lon="-4.31924">
        <ele>38.590087890625</ele>
        <time>2015-12-19T14:57:45Z</time>
      </trkpt>
      <trkpt lat="48.08982" lon="-4.31918">
        <ele>38.590087890625</ele>
        <time>2015-12-19T14:57:48Z</time>
      </trkpt>
      <trkpt lat="48.0898" lon="-4.3191">
        <ele>38.590087890625</ele>
        <time>2015-12-19T14:57:53Z</time>
      </trkpt>
      <trkpt lat="48.08973" lon="-4.3189">
        <ele>38.109375</ele>
        <time>2015-12-19T14:58:00Z</time>
      </trkpt>
      <trkpt lat="48.08972" lon="-4.31876">
        <ele>40.512817382812</ele>
        <time>2015-12-19T14:58:07Z</time>
      </trkpt>
      <trkpt lat="48.08972" lon="-4.3187">
        <ele>40.032104492188</ele>
        <time>2015-12-19T14:58:09Z</time>
      </trkpt>
      <trkpt lat="48.08972" lon="-4.31864">
        <ele>40.512817382812</ele>
        <time>2015-12-19T14:58:13Z</time>
      </trkpt>
      <trkpt lat="48.08971" lon="-4.31855">
        <ele>40.993408203125</ele>
        <time>2015-12-19T14:58:17Z</time>
      </trkpt>
      <trkpt lat="48.08967" lon="-4.31841">
        <ele>42.916015625</ele>
        <time>2015-12-19T14:58:25Z</time>
      </trkpt>
      <trkpt lat="48.08966" lon="-4.3184">
        <ele>42.435424804688</ele>
        <time>2015-12-19T14:58:26Z</time>
      </trkpt>
      <trkpt lat="48.08968" lon="-4.3183">
        <ele>44.358032226562</ele>
        <time>2015-12-19T14:58:32Z</time>
      </trkpt>
      <trkpt lat="48.08968" lon="-4.31819">
        <ele>46.280639648438</ele>
        <time>2015-12-19T14:58:38Z</time>
      </trkpt>
      <trkpt lat="48.08968" lon="-4.31816">
        <ele>48.203369140625</ele>
        <time>2015-12-19T14:58:40Z</time>
      </trkpt>
      <trkpt lat="48.0897" lon="-4.31808">
        <ele>50.1259765625</ele>
        <time>2015-12-19T14:58:46Z</time>
      </trkpt>
      <trkpt lat="48.08973" lon="-4.31799">
        <ele>49.645263671875</ele>
        <time>2015-12-19T14:58:52Z</time>
      </trkpt>
      <trkpt lat="48.08975" lon="-4.31796">
        <ele>51.087158203125</ele>
        <time>2015-12-19T14:58:54Z</time>
      </trkpt>
      <trkpt lat="48.08975" lon="-4.31794">
        <ele>51.56787109375</ele>
        <time>2015-12-19T14:58:56Z</time>
      </trkpt>
      <trkpt lat="48.08979" lon="-4.31782">
        <ele>46.280639648438</ele>
        <time>2015-12-19T14:59:04Z</time>
      </trkpt>
      <trkpt lat="48.08986" lon="-4.31775">
        <ele>53.009765625</ele>
        <time>2015-12-19T14:59:10Z</time>
      </trkpt>
      <trkpt lat="48.08988" lon="-4.31767">
        <ele>53.97119140625</ele>
        <time>2015-12-19T14:59:17Z</time>
      </trkpt>
      <trkpt lat="48.08991" lon="-4.31763">
        <ele>58.297119140625</ele>
        <time>2015-12-19T14:59:23Z</time>
      </trkpt>
      <trkpt lat="48.08993" lon="-4.31756">
        <ele>62.142333984375</ele>
        <time>2015-12-19T14:59:29Z</time>
      </trkpt>
      <trkpt lat="48.08995" lon="-4.3175">
        <ele>59.739135742188</ele>
        <time>2015-12-19T14:59:32Z</time>
      </trkpt>
      <trkpt lat="48.08998" lon="-4.31743">
        <ele>55.4130859375</ele>
        <time>2015-12-19T14:59:37Z</time>
      </trkpt>
      <trkpt lat="48.09003" lon="-4.31738">
        <ele>49.16455078125</ele>
        <time>2015-12-19T14:59:46Z</time>
      </trkpt>
      <trkpt lat="48.09007" lon="-4.3174">
        <ele>44.358032226562</ele>
        <time>2015-12-19T14:59:52Z</time>
      </trkpt>
      <trkpt lat="48.09013" lon="-4.31741">
        <ele>41.954711914062</ele>
        <time>2015-12-19T14:59:59Z</time>
      </trkpt>
      <trkpt lat="48.09018" lon="-4.31744">
        <ele>43.396606445312</ele>
        <time>2015-12-19T15:00:05Z</time>
      </trkpt>
      <trkpt lat="48.0902" lon="-4.31745">
        <ele>44.838623046875</ele>
        <time>2015-12-19T15:00:06Z</time>
      </trkpt>
      <trkpt lat="48.09026" lon="-4.31751">
        <ele>36.186767578125</ele>
        <time>2015-12-19T15:00:14Z</time>
      </trkpt>
      <trkpt lat="48.0903" lon="-4.31755">
        <ele>31.380126953125</ele>
        <time>2015-12-19T15:00:19Z</time>
      </trkpt>
      <trkpt lat="48.09032" lon="-4.31757">
        <ele>29.938110351562</ele>
        <time>2015-12-19T15:00:21Z</time>
      </trkpt>
      <trkpt lat="48.0904" lon="-4.31759">
        <ele>31.860717773438</ele>
        <time>2015-12-19T15:00:29Z</time>
      </trkpt>
      <trkpt lat="48.09041" lon="-4.31758">
        <ele>30.899536132812</ele>
        <time>2015-12-19T15:00:42Z</time>
      </trkpt>
      <trkpt lat="48.09042" lon="-4.31759">
        <ele>33.302856445312</ele>
        <time>2015-12-19T15:00:51Z</time>
      </trkpt>
      <trkpt lat="48.09046" lon="-4.31765">
        <ele>29.45751953125</ele>
        <time>2015-12-19T15:00:57Z</time>
      </trkpt>
      <trkpt lat="48.09052" lon="-4.31767">
        <ele>30.418823242188</ele>
        <time>2015-12-19T15:01:02Z</time>
      </trkpt>
      <trkpt lat="48.09059" lon="-4.3177">
        <ele>29.45751953125</ele>
        <time>2015-12-19T15:01:09Z</time>
      </trkpt>
      <trkpt lat="48.09064" lon="-4.3177">
        <ele>27.054321289062</ele>
        <time>2015-12-19T15:01:16Z</time>
      </trkpt>
      <trkpt lat="48.09068" lon="-4.31762">
        <ele>25.6123046875</ele>
        <time>2015-12-19T15:01:20Z</time>
      </trkpt>
      <trkpt lat="48.09068" lon="-4.3176">
        <ele>26.092895507812</ele>
        <time>2015-12-19T15:01:21Z</time>
      </trkpt>
      <trkpt lat="48.09071" lon="-4.31751">
        <ele>25.131713867188</ele>
        <time>2015-12-19T15:01:27Z</time>
      </trkpt>
      <trkpt lat="48.09072" lon="-4.3175">
        <ele>25.131713867188</ele>
        <time>2015-12-19T15:01:28Z</time>
      </trkpt>
      <trkpt lat="48.09075" lon="-4.31739">
        <ele>25.6123046875</ele>
        <time>2015-12-19T15:01:34Z</time>
      </trkpt>
      <trkpt lat="48.09079" lon="-4.31729">
        <ele>26.573608398438</ele>
        <time>2015-12-19T15:01:40Z</time>
      </trkpt>
      <trkpt lat="48.09081" lon="-4.31717">
        <ele>26.092895507812</ele>
        <time>2015-12-19T15:01:46Z</time>
      </trkpt>
      <trkpt lat="48.09085" lon="-4.31702">
        <ele>26.573608398438</ele>
        <time>2015-12-19T15:01:54Z</time>
      </trkpt>
      <trkpt lat="48.09087" lon="-4.31689">
        <ele>26.573608398438</ele>
        <time>2015-12-19T15:02:00Z</time>
      </trkpt>
      <trkpt lat="48.09089" lon="-4.31678">
        <ele>25.6123046875</ele>
        <time>2015-12-19T15:02:06Z</time>
      </trkpt>
      <trkpt lat="48.09095" lon="-4.31666">
        <ele>28.976928710938</ele>
        <time>2015-12-19T15:02:12Z</time>
      </trkpt>
      <trkpt lat="48.09101" lon="-4.31653">
        <ele>29.45751953125</ele>
        <time>2015-12-19T15:02:20Z</time>
      </trkpt>
      <trkpt lat="48.09103" lon="-4.31651">
        <ele>28.976928710938</ele>
        <time>2015-12-19T15:02:22Z</time>
      </trkpt>
      <trkpt lat="48.09107" lon="-4.31647">
        <ele>28.015502929688</ele>
        <time>2015-12-19T15:02:25Z</time>
      </trkpt>
      <trkpt lat="48.09107" lon="-4.31642">
        <ele>27.534912109375</ele>
        <time>2015-12-19T15:02:28Z</time>
      </trkpt>
      <trkpt lat="48.09112" lon="-4.31642">
        <ele>26.092895507812</ele>
        <time>2015-12-19T15:02:32Z</time>
      </trkpt>
      <trkpt lat="48.09116" lon="-4.31641">
        <ele>27.534912109375</ele>
        <time>2015-12-19T15:02:35Z</time>
      </trkpt>
      <trkpt lat="48.09127" lon="-4.31638">
        <ele>28.496215820312</ele>
        <time>2015-12-19T15:02:43Z</time>
      </trkpt>
      <trkpt lat="48.09133" lon="-4.31638">
        <ele>26.092895507812</ele>
        <time>2015-12-19T15:02:49Z</time>
      </trkpt>
      <trkpt lat="48.09135" lon="-4.31637">
        <ele>26.573608398438</ele>
        <time>2015-12-19T15:02:50Z</time>
      </trkpt>
      <trkpt lat="48.09143" lon="-4.31636">
        <ele>26.092895507812</ele>
        <time>2015-12-19T15:02:56Z</time>
      </trkpt>
      <trkpt lat="48.09144" lon="-4.31636">
        <ele>25.6123046875</ele>
        <time>2015-12-19T15:02:57Z</time>
      </trkpt>
      <trkpt lat="48.0915" lon="-4.31637">
        <ele>21.766967773438</ele>
        <time>2015-12-19T15:03:02Z</time>
      </trkpt>
      <trkpt lat="48.09157" lon="-4.31637">
        <ele>19.36376953125</ele>
        <time>2015-12-19T15:03:07Z</time>
      </trkpt>
      <trkpt lat="48.09158" lon="-4.31637">
        <ele>19.36376953125</ele>
        <time>2015-12-19T15:03:08Z</time>
      </trkpt>
      <trkpt lat="48.09164" lon="-4.3164">
        <ele>17.921752929688</ele>
        <time>2015-12-19T15:03:13Z</time>
      </trkpt>
      <trkpt lat="48.09173" lon="-4.31642">
        <ele>17.921752929688</ele>
        <time>2015-12-19T15:03:21Z</time>
      </trkpt>
      <trkpt lat="48.09178" lon="-4.31643">
        <ele>20.324951171875</ele>
        <time>2015-12-19T15:03:28Z</time>
      </trkpt>
      <trkpt lat="48.0918" lon="-4.31645">
        <ele>19.36376953125</ele>
        <time>2015-12-19T15:03:36Z</time>
      </trkpt>
      <trkpt lat="48.0918" lon="-4.31645">
        <ele>18.883056640625</ele>
        <time>2015-12-19T15:03:37Z</time>
      </trkpt>
      <trkpt lat="48.09186" lon="-4.3165">
        <ele>15.518432617188</ele>
        <time>2015-12-19T15:03:45Z</time>
      </trkpt>
      <trkpt lat="48.09188" lon="-4.31648">
        <ele>15.9990234375</ele>
        <time>2015-12-19T15:03:47Z</time>
      </trkpt>
      <trkpt lat="48.09189" lon="-4.3164">
        <ele>15.037719726562</ele>
        <time>2015-12-19T15:03:51Z</time>
      </trkpt>
      <trkpt lat="48.09191" lon="-4.3162">
        <ele>15.518432617188</ele>
        <time>2015-12-19T15:04:00Z</time>
      </trkpt>
      <trkpt lat="48.09192" lon="-4.31603">
        <ele>15.9990234375</ele>
        <time>2015-12-19T15:04:08Z</time>
      </trkpt>
      <trkpt lat="48.09192" lon="-4.31589">
        <ele>15.037719726562</ele>
        <time>2015-12-19T15:04:15Z</time>
      </trkpt>
      <trkpt lat="48.09192" lon="-4.31578">
        <ele>15.518432617188</ele>
        <time>2015-12-19T15:04:20Z</time>
      </trkpt>
      <trkpt lat="48.09192" lon="-4.31567">
        <ele>15.518432617188</ele>
        <time>2015-12-19T15:04:26Z</time>
      </trkpt>
      <trkpt lat="48.09192" lon="-4.31556">
        <ele>15.037719726562</ele>
        <time>2015-12-19T15:04:32Z</time>
      </trkpt>
      <trkpt lat="48.09191" lon="-4.3154">
        <ele>15.518432617188</ele>
        <time>2015-12-19T15:04:40Z</time>
      </trkpt>
      <trkpt lat="48.09191" lon="-4.31529">
        <ele>15.9990234375</ele>
        <time>2015-12-19T15:04:45Z</time>
      </trkpt>
      <trkpt lat="48.0919" lon="-4.31511">
        <ele>15.518432617188</ele>
        <time>2015-12-19T15:04:54Z</time>
      </trkpt>
      <trkpt lat="48.09189" lon="-4.315">
        <ele>15.9990234375</ele>
        <time>2015-12-19T15:04:59Z</time>
      </trkpt>
      <trkpt lat="48.09189" lon="-4.31493">
        <ele>16.479736328125</ele>
        <time>2015-12-19T15:05:03Z</time>
      </trkpt>
      <trkpt lat="48.09188" lon="-4.31481">
        <ele>16.96044921875</ele>
        <time>2015-12-19T15:05:09Z</time>
      </trkpt>
      <trkpt lat="48.09187" lon="-4.31471">
        <ele>18.40234375</ele>
        <time>2015-12-19T15:05:15Z</time>
      </trkpt>
      <trkpt lat="48.09185" lon="-4.31462">
        <ele>19.844360351562</ele>
        <time>2015-12-19T15:05:20Z</time>
      </trkpt>
      <trkpt lat="48.09184" lon="-4.31454">
        <ele>19.844360351562</ele>
        <time>2015-12-19T15:05:25Z</time>
      </trkpt>
      <trkpt lat="48.09183" lon="-4.31451">
        <ele>19.36376953125</ele>
        <time>2015-12-19T15:05:27Z</time>
      </trkpt>
      <trkpt lat="48.09179" lon="-4.31443">
        <ele>19.844360351562</ele>
        <time>2015-12-19T15:05:34Z</time>
      </trkpt>
      <trkpt lat="48.09173" lon="-4.31431">
        <ele>19.36376953125</ele>
        <time>2015-12-19T15:05:41Z</time>
      </trkpt>
      <trkpt lat="48.09171" lon="-4.31428">
        <ele>20.8056640625</ele>
        <time>2015-12-19T15:05:45Z</time>
      </trkpt>
      <trkpt lat="48.09167" lon="-4.31423">
        <ele>21.766967773438</ele>
        <time>2015-12-19T15:05:52Z</time>
      </trkpt>
      <trkpt lat="48.09166" lon="-4.31419">
        <ele>23.689575195312</ele>
        <time>2015-12-19T15:05:59Z</time>
      </trkpt>
      <trkpt lat="48.09165" lon="-4.31417">
        <ele>25.6123046875</ele>
        <time>2015-12-19T15:06:09Z</time>
      </trkpt>
      <trkpt lat="48.09159" lon="-4.31412">
        <ele>22.24755859375</ele>
        <time>2015-12-19T15:06:13Z</time>
      </trkpt>
      <trkpt lat="48.09151" lon="-4.31403">
        <ele>16.96044921875</ele>
        <time>2015-12-19T15:06:21Z</time>
      </trkpt>
      <trkpt lat="48.0915" lon="-4.31401">
        <ele>16.96044921875</ele>
        <time>2015-12-19T15:06:22Z</time>
      </trkpt>
      <trkpt lat="48.09145" lon="-4.31393">
        <ele>16.479736328125</ele>
        <time>2015-12-19T15:06:27Z</time>
      </trkpt>
      <trkpt lat="48.09141" lon="-4.31387">
        <ele>17.921752929688</ele>
        <time>2015-12-19T15:06:31Z</time>
      </trkpt>
      <trkpt lat="48.09138" lon="-4.31379">
        <ele>18.883056640625</ele>
        <time>2015-12-19T15:06:35Z</time>
      </trkpt>
      <trkpt lat="48.09135" lon="-4.31369">
        <ele>20.324951171875</ele>
        <time>2015-12-19T15:06:41Z</time>
      </trkpt>
      <trkpt lat="48.0913" lon="-4.31361">
        <ele>19.844360351562</ele>
        <time>2015-12-19T15:06:46Z</time>
      </trkpt>
      <trkpt lat="48.09127" lon="-4.31356">
        <ele>18.883056640625</ele>
        <time>2015-12-19T15:06:49Z</time>
      </trkpt>
      <trkpt lat="48.09123" lon="-4.31348">
        <ele>18.883056640625</ele>
        <time>2015-12-19T15:06:54Z</time>
      </trkpt>
      <trkpt lat="48.09119" lon="-4.31341">
        <ele>18.883056640625</ele>
        <time>2015-12-19T15:06:59Z</time>
      </trkpt>
      <trkpt lat="48.09113" lon="-4.31332">
        <ele>17.441162109375</ele>
        <time>2015-12-19T15:07:04Z</time>
      </trkpt>
      <trkpt lat="48.0911" lon="-4.31327">
        <ele>17.441162109375</ele>
        <time>2015-12-19T15:07:07Z</time>
      </trkpt>
      <trkpt lat="48.09111" lon="-4.31324">
        <ele>18.883056640625</ele>
        <time>2015-12-19T15:07:10Z</time>
      </trkpt>
      <trkpt lat="48.09108" lon="-4.31314">
        <ele>19.844360351562</ele>
        <time>2015-12-19T15:07:16Z</time>
      </trkpt>
      <trkpt lat="48.09106" lon="-4.31309">
        <ele>19.844360351562</ele>
        <time>2015-12-19T15:07:19Z</time>
      </trkpt>
      <trkpt lat="48.09099" lon="-4.31298">
        <ele>18.883056640625</ele>
        <time>2015-12-19T15:07:26Z</time>
      </trkpt>
      <trkpt lat="48.09097" lon="-4.31294">
        <ele>17.441162109375</ele>
        <time>2015-12-19T15:07:29Z</time>
      </trkpt>
      <trkpt lat="48.09091" lon="-4.31283">
        <ele>14.557006835938</ele>
        <time>2015-12-19T15:07:35Z</time>
      </trkpt>
      <trkpt lat="48.0909" lon="-4.31281">
        <ele>14.076416015625</ele>
        <time>2015-12-19T15:07:37Z</time>
      </trkpt>
      <trkpt lat="48.09087" lon="-4.31278">
        <ele>14.076416015625</ele>
        <time>2015-12-19T15:07:40Z</time>
      </trkpt>
      <trkpt lat="48.09083" lon="-4.3127">
        <ele>13.595825195312</ele>
        <time>2015-12-19T15:07:46Z</time>
      </trkpt>
      <trkpt lat="48.0908" lon="-4.31262">
        <ele>14.076416015625</ele>
        <time>2015-12-19T15:07:50Z</time>
      </trkpt>
      <trkpt lat="48.09078" lon="-4.31254">
        <ele>14.076416015625</ele>
        <time>2015-12-19T15:07:54Z</time>
      </trkpt>
      <trkpt lat="48.09076" lon="-4.31243">
        <ele>14.557006835938</ele>
        <time>2015-12-19T15:07:59Z</time>
      </trkpt>
      <trkpt lat="48.09074" lon="-4.31236">
        <ele>14.557006835938</ele>
        <time>2015-12-19T15:08:03Z</time>
      </trkpt>
      <trkpt lat="48.09071" lon="-4.31229">
        <ele>12.15380859375</ele>
        <time>2015-12-19T15:08:08Z</time>
      </trkpt>
      <trkpt lat="48.09068" lon="-4.31219">
        <ele>12.634399414062</ele>
        <time>2015-12-19T15:08:14Z</time>
      </trkpt>
      <trkpt lat="48.09065" lon="-4.31208">
        <ele>14.076416015625</ele>
        <time>2015-12-19T15:08:20Z</time>
      </trkpt>
      <trkpt lat="48.09063" lon="-4.31199">
        <ele>15.518432617188</ele>
        <time>2015-12-19T15:08:27Z</time>
      </trkpt>
      <trkpt lat="48.09058" lon="-4.3119">
        <ele>15.037719726562</ele>
        <time>2015-12-19T15:08:34Z</time>
      </trkpt>
      <trkpt lat="48.09053" lon="-4.31175">
        <ele>15.518432617188</ele>
        <time>2015-12-19T15:08:42Z</time>
      </trkpt>
      <trkpt lat="48.09047" lon="-4.31165">
        <ele>15.9990234375</ele>
        <time>2015-12-19T15:08:49Z</time>
      </trkpt>
      <trkpt lat="48.09047" lon="-4.31164">
        <ele>16.479736328125</ele>
        <time>2015-12-19T15:08:50Z</time>
      </trkpt>
      <trkpt lat="48.09041" lon="-4.31152">
        <ele>17.441162109375</ele>
        <time>2015-12-19T15:08:58Z</time>
      </trkpt>
      <trkpt lat="48.09041" lon="-4.31151">
        <ele>17.441162109375</ele>
        <time>2015-12-19T15:08:59Z</time>
      </trkpt>
      <trkpt lat="48.09036" lon="-4.31139">
        <ele>17.921752929688</ele>
        <time>2015-12-19T15:09:06Z</time>
      </trkpt>
      <trkpt lat="48.09035" lon="-4.31135">
        <ele>17.921752929688</ele>
        <time>2015-12-19T15:09:09Z</time>
      </trkpt>
      <trkpt lat="48.09029" lon="-4.31124">
        <ele>20.8056640625</ele>
        <time>2015-12-19T15:09:17Z</time>
      </trkpt>
      <trkpt lat="48.09027" lon="-4.31121">
        <ele>21.286376953125</ele>
        <time>2015-12-19T15:09:19Z</time>
      </trkpt>
      <trkpt lat="48.09026" lon="-4.31116">
        <ele>23.689575195312</ele>
        <time>2015-12-19T15:09:22Z</time>
      </trkpt>
      <trkpt lat="48.09024" lon="-4.31103">
        <ele>27.054321289062</ele>
        <time>2015-12-19T15:09:29Z</time>
      </trkpt>
      <trkpt lat="48.09024" lon="-4.31099">
        <ele>28.015502929688</ele>
        <time>2015-12-19T15:09:31Z</time>
      </trkpt>
      <trkpt lat="48.09023" lon="-4.31088">
        <ele>33.302856445312</ele>
        <time>2015-12-19T15:09:37Z</time>
      </trkpt>
      <trkpt lat="48.09021" lon="-4.31084">
        <ele>34.26416015625</ele>
        <time>2015-12-19T15:09:41Z</time>
      </trkpt>
      <trkpt lat="48.09018" lon="-4.31073">
        <ele>32.822265625</ele>
        <time>2015-12-19T15:09:48Z</time>
      </trkpt>
      <trkpt lat="48.09013" lon="-4.31062">
        <ele>31.380126953125</ele>
        <time>2015-12-19T15:09:54Z</time>
      </trkpt>
      <trkpt lat="48.0901" lon="-4.31055">
        <ele>28.976928710938</ele>
        <time>2015-12-19T15:09:59Z</time>
      </trkpt>
      <trkpt lat="48.09007" lon="-4.31043">
        <ele>27.534912109375</ele>
        <time>2015-12-19T15:10:05Z</time>
      </trkpt>
      <trkpt lat="48.09007" lon="-4.31041">
        <ele>27.054321289062</ele>
        <time>2015-12-19T15:10:06Z</time>
      </trkpt>
      <trkpt lat="48.09005" lon="-4.31028">
        <ele>26.573608398438</ele>
        <time>2015-12-19T15:10:12Z</time>
      </trkpt>
      <trkpt lat="48.09004" lon="-4.31013">
        <ele>25.6123046875</ele>
        <time>2015-12-19T15:10:19Z</time>
      </trkpt>
      <trkpt lat="48.09001" lon="-4.31002">
        <ele>26.092895507812</ele>
        <time>2015-12-19T15:10:25Z</time>
      </trkpt>
      <trkpt lat="48.09001" lon="-4.30999">
        <ele>26.573608398438</ele>
        <time>2015-12-19T15:10:27Z</time>
      </trkpt>
      <trkpt lat="48.09001" lon="-4.30995">
        <ele>27.054321289062</ele>
        <time>2015-12-19T15:10:30Z</time>
      </trkpt>
      <trkpt lat="48.08998" lon="-4.30981">
        <ele>27.534912109375</ele>
        <time>2015-12-19T15:10:37Z</time>
      </trkpt>
      <trkpt lat="48.08997" lon="-4.30979">
        <ele>27.534912109375</ele>
        <time>2015-12-19T15:10:38Z</time>
      </trkpt>
      <trkpt lat="48.08995" lon="-4.3097">
        <ele>27.054321289062</ele>
        <time>2015-12-19T15:10:44Z</time>
      </trkpt>
      <trkpt lat="48.0899" lon="-4.30957">
        <ele>27.054321289062</ele>
        <time>2015-12-19T15:10:51Z</time>
      </trkpt>
      <trkpt lat="48.08988" lon="-4.30953">
        <ele>27.054321289062</ele>
        <time>2015-12-19T15:10:54Z</time>
      </trkpt>
      <trkpt lat="48.08984" lon="-4.30946">
        <ele>28.015502929688</ele>
        <time>2015-12-19T15:10:57Z</time>
      </trkpt>
      <trkpt lat="48.0898" lon="-4.30933">
        <ele>29.938110351562</ele>
        <time>2015-12-19T15:11:03Z</time>
      </trkpt>
      <trkpt lat="48.08976" lon="-4.30925">
        <ele>31.380126953125</ele>
        <time>2015-12-19T15:11:08Z</time>
      </trkpt>
      <trkpt lat="48.08974" lon="-4.30919">
        <ele>31.860717773438</ele>
        <time>2015-12-19T15:11:12Z</time>
      </trkpt>
      <trkpt lat="48.0897" lon="-4.30907">
        <ele>32.341552734375</ele>
        <time>2015-12-19T15:11:19Z</time>
      </trkpt>
      <trkpt lat="48.08967" lon="-4.30897">
        <ele>32.822265625</ele>
        <time>2015-12-19T15:11:24Z</time>
      </trkpt>
      <trkpt lat="48.08967" lon="-4.30894">
        <ele>33.783447265625</ele>
        <time>2015-12-19T15:11:26Z</time>
      </trkpt>
      <trkpt lat="48.08965" lon="-4.30887">
        <ele>33.783447265625</ele>
        <time>2015-12-19T15:11:29Z</time>
      </trkpt>
      <trkpt lat="48.08961" lon="-4.30879">
        <ele>32.822265625</ele>
        <time>2015-12-19T15:11:33Z</time>
      </trkpt>
      <trkpt lat="48.08957" lon="-4.30866">
        <ele>31.860717773438</ele>
        <time>2015-12-19T15:11:40Z</time>
      </trkpt>
      <trkpt lat="48.08952" lon="-4.30854">
        <ele>33.302856445312</ele>
        <time>2015-12-19T15:11:47Z</time>
      </trkpt>
      <trkpt lat="48.08946" lon="-4.30841">
        <ele>32.822265625</ele>
        <time>2015-12-19T15:11:55Z</time>
      </trkpt>
      <trkpt lat="48.08941" lon="-4.30829">
        <ele>32.341552734375</ele>
        <time>2015-12-19T15:12:02Z</time>
      </trkpt>
      <trkpt lat="48.08938" lon="-4.30822">
        <ele>32.341552734375</ele>
        <time>2015-12-19T15:12:06Z</time>
      </trkpt>
      <trkpt lat="48.08936" lon="-4.30815">
        <ele>32.341552734375</ele>
        <time>2015-12-19T15:12:10Z</time>
      </trkpt>
      <trkpt lat="48.08935" lon="-4.30811">
        <ele>32.341552734375</ele>
        <time>2015-12-19T15:12:13Z</time>
      </trkpt>
      <trkpt lat="48.08932" lon="-4.30805">
        <ele>32.341552734375</ele>
        <time>2015-12-19T15:12:17Z</time>
      </trkpt>
      <trkpt lat="48.0893" lon="-4.30799">
        <ele>32.822265625</ele>
        <time>2015-12-19T15:12:22Z</time>
      </trkpt>
      <trkpt lat="48.08929" lon="-4.30796">
        <ele>32.822265625</ele>
        <time>2015-12-19T15:12:24Z</time>
      </trkpt>
      <trkpt lat="48.08925" lon="-4.30788">
        <ele>33.783447265625</ele>
        <time>2015-12-19T15:12:30Z</time>
      </trkpt>
      <trkpt lat="48.08921" lon="-4.3078">
        <ele>33.302856445312</ele>
        <time>2015-12-19T15:12:35Z</time>
      </trkpt>
      <trkpt lat="48.08918" lon="-4.30774">
        <ele>33.783447265625</ele>
        <time>2015-12-19T15:12:39Z</time>
      </trkpt>
      <trkpt lat="48.0891" lon="-4.30763">
        <ele>33.783447265625</ele>
        <time>2015-12-19T15:12:47Z</time>
      </trkpt>
      <trkpt lat="48.08909" lon="-4.30762">
        <ele>33.783447265625</ele>
        <time>2015-12-19T15:12:48Z</time>
      </trkpt>
      <trkpt lat="48.08906" lon="-4.30755">
        <ele>34.744873046875</ele>
        <time>2015-12-19T15:12:53Z</time>
      </trkpt>
      <trkpt lat="48.08899" lon="-4.30751">
        <ele>33.783447265625</ele>
        <time>2015-12-19T15:13:00Z</time>
      </trkpt>
      <trkpt lat="48.08898" lon="-4.30751">
        <ele>33.302856445312</ele>
        <time>2015-12-19T15:13:01Z</time>
      </trkpt>
      <trkpt lat="48.08894" lon="-4.30751">
        <ele>32.341552734375</ele>
        <time>2015-12-19T15:13:05Z</time>
      </trkpt>
      <trkpt lat="48.08889" lon="-4.30749">
        <ele>31.860717773438</ele>
        <time>2015-12-19T15:13:11Z</time>
      </trkpt>
      <trkpt lat="48.08885" lon="-4.30747">
        <ele>32.341552734375</ele>
        <time>2015-12-19T15:13:15Z</time>
      </trkpt>
      <trkpt lat="48.08881" lon="-4.30743">
        <ele>32.822265625</ele>
        <time>2015-12-19T15:13:20Z</time>
      </trkpt>
      <trkpt lat="48.08875" lon="-4.30738">
        <ele>33.302856445312</ele>
        <time>2015-12-19T15:13:27Z</time>
      </trkpt>
      <trkpt lat="48.08874" lon="-4.30736">
        <ele>34.26416015625</ele>
        <time>2015-12-19T15:13:29Z</time>
      </trkpt>
      <trkpt lat="48.08874" lon="-4.30732">
        <ele>34.744873046875</ele>
        <time>2015-12-19T15:13:32Z</time>
      </trkpt>
      <trkpt lat="48.08872" lon="-4.30725">
        <ele>34.744873046875</ele>
        <time>2015-12-19T15:13:37Z</time>
      </trkpt>
      <trkpt lat="48.08872" lon="-4.30719">
        <ele>36.66748046875</ele>
        <time>2015-12-19T15:13:42Z</time>
      </trkpt>
      <trkpt lat="48.08871" lon="-4.30712">
        <ele>36.66748046875</ele>
        <time>2015-12-19T15:13:46Z</time>
      </trkpt>
      <trkpt lat="48.08868" lon="-4.30703">
        <ele>37.628662109375</ele>
        <time>2015-12-19T15:13:54Z</time>
      </trkpt>
      <trkpt lat="48.08863" lon="-4.30696">
        <ele>39.070678710938</ele>
        <time>2015-12-19T15:14:00Z</time>
      </trkpt>
      <trkpt lat="48.08862" lon="-4.30695">
        <ele>39.070678710938</ele>
        <time>2015-12-19T15:14:01Z</time>
      </trkpt>
      <trkpt lat="48.08859" lon="-4.30691">
        <ele>41.473999023438</ele>
        <time>2015-12-19T15:14:06Z</time>
      </trkpt>
      <trkpt lat="48.08857" lon="-4.30684">
        <ele>43.877319335938</ele>
        <time>2015-12-19T15:14:12Z</time>
      </trkpt>
      <trkpt lat="48.08855" lon="-4.30678">
        <ele>44.838623046875</ele>
        <time>2015-12-19T15:14:17Z</time>
      </trkpt>
      <trkpt lat="48.08855" lon="-4.30669">
        <ele>44.358032226562</ele>
        <time>2015-12-19T15:14:23Z</time>
      </trkpt>
      <trkpt lat="48.08852" lon="-4.3066">
        <ele>45.799926757812</ele>
        <time>2015-12-19T15:14:29Z</time>
      </trkpt>
      <trkpt lat="48.08844" lon="-4.30655">
        <ele>45.319213867188</ele>
        <time>2015-12-19T15:14:37Z</time>
      </trkpt>
      <trkpt lat="48.08838" lon="-4.30653">
        <ele>44.838623046875</ele>
        <time>2015-12-19T15:14:45Z</time>
      </trkpt>
      <trkpt lat="48.08833" lon="-4.30647">
        <ele>45.799926757812</ele>
        <time>2015-12-19T15:14:51Z</time>
      </trkpt>
      <trkpt lat="48.0883" lon="-4.30643">
        <ele>47.241821289062</ele>
        <time>2015-12-19T15:14:57Z</time>
      </trkpt>
      <trkpt lat="48.08826" lon="-4.30638">
        <ele>46.76123046875</ele>
        <time>2015-12-19T15:15:02Z</time>
      </trkpt>
      <trkpt lat="48.08823" lon="-4.30636">
        <ele>45.319213867188</ele>
        <time>2015-12-19T15:15:05Z</time>
      </trkpt>
      <trkpt lat="48.08816" lon="-4.30631">
        <ele>43.396606445312</ele>
        <time>2015-12-19T15:15:13Z</time>
      </trkpt>
      <trkpt lat="48.08812" lon="-4.3063">
        <ele>43.877319335938</ele>
        <time>2015-12-19T15:15:18Z</time>
      </trkpt>
      <trkpt lat="48.08809" lon="-4.30629">
        <ele>44.838623046875</ele>
        <time>2015-12-19T15:15:20Z</time>
      </trkpt>
      <trkpt lat="48.08804" lon="-4.30629">
        <ele>44.838623046875</ele>
        <time>2015-12-19T15:15:27Z</time>
      </trkpt>
      <trkpt lat="48.088" lon="-4.3063">
        <ele>43.877319335938</ele>
        <time>2015-12-19T15:15:33Z</time>
      </trkpt>
      <trkpt lat="48.08798" lon="-4.30631">
        <ele>44.358032226562</ele>
        <time>2015-12-19T15:15:37Z</time>
      </trkpt>
      <trkpt lat="48.08794" lon="-4.30627">
        <ele>46.280639648438</ele>
        <time>2015-12-19T15:15:43Z</time>
      </trkpt>
      <trkpt lat="48.08794" lon="-4.30629">
        <ele>46.280639648438</ele>
        <time>2015-12-19T15:15:48Z</time>
      </trkpt>
      <trkpt lat="48.08795" lon="-4.30639">
        <ele>47.241821289062</ele>
        <time>2015-12-19T15:15:54Z</time>
      </trkpt>
      <trkpt lat="48.08798" lon="-4.30646">
        <ele>47.241821289062</ele>
        <time>2015-12-19T15:15:58Z</time>
      </trkpt>
      <trkpt lat="48.08796" lon="-4.30649">
        <ele>49.16455078125</ele>
        <time>2015-12-19T15:16:03Z</time>
      </trkpt>
      <trkpt lat="48.08789" lon="-4.3065">
        <ele>49.645263671875</ele>
        <time>2015-12-19T15:16:09Z</time>
      </trkpt>
      <trkpt lat="48.08782" lon="-4.30646">
        <ele>50.606567382812</ele>
        <time>2015-12-19T15:16:15Z</time>
      </trkpt>
      <trkpt lat="48.0878" lon="-4.30647">
        <ele>51.56787109375</ele>
        <time>2015-12-19T15:16:17Z</time>
      </trkpt>
      <trkpt lat="48.08776" lon="-4.30649">
        <ele>53.009765625</ele>
        <time>2015-12-19T15:16:21Z</time>
      </trkpt>
      <trkpt lat="48.08771" lon="-4.30648">
        <ele>53.97119140625</ele>
        <time>2015-12-19T15:16:25Z</time>
      </trkpt>
      <trkpt lat="48.08768" lon="-4.30647">
        <ele>54.451782226562</ele>
        <time>2015-12-19T15:16:28Z</time>
      </trkpt>
      <trkpt lat="48.08762" lon="-4.30652">
        <ele>56.37451171875</ele>
        <time>2015-12-19T15:16:34Z</time>
      </trkpt>
      <trkpt lat="48.08761" lon="-4.30654">
        <ele>56.855102539062</ele>
        <time>2015-12-19T15:16:35Z</time>
      </trkpt>
      <trkpt lat="48.08757" lon="-4.30666">
        <ele>56.855102539062</ele>
        <time>2015-12-19T15:16:43Z</time>
      </trkpt>
      <trkpt lat="48.08751" lon="-4.30672">
        <ele>56.37451171875</ele>
        <time>2015-12-19T15:16:50Z</time>
      </trkpt>
      <trkpt lat="48.08752" lon="-4.30682">
        <ele>56.855102539062</ele>
        <time>2015-12-19T15:16:56Z</time>
      </trkpt>
      <trkpt lat="48.08751" lon="-4.30686">
        <ele>56.855102539062</ele>
        <time>2015-12-19T15:16:59Z</time>
      </trkpt>
      <trkpt lat="48.08742" lon="-4.30687">
        <ele>58.297119140625</ele>
        <time>2015-12-19T15:17:07Z</time>
      </trkpt>
      <trkpt lat="48.08736" lon="-4.30689">
        <ele>58.777709960938</ele>
        <time>2015-12-19T15:17:13Z</time>
      </trkpt>
      <trkpt lat="48.08735" lon="-4.3069">
        <ele>59.258422851562</ele>
        <time>2015-12-19T15:17:14Z</time>
      </trkpt>
      <trkpt lat="48.0873" lon="-4.3069">
        <ele>59.258422851562</ele>
        <time>2015-12-19T15:17:18Z</time>
      </trkpt>
      <trkpt lat="48.08722" lon="-4.30694">
        <ele>60.700317382812</ele>
        <time>2015-12-19T15:17:25Z</time>
      </trkpt>
      <trkpt lat="48.08716" lon="-4.30697">
        <ele>59.258422851562</ele>
        <time>2015-12-19T15:17:32Z</time>
      </trkpt>
      <trkpt lat="48.08711" lon="-4.30697">
        <ele>58.297119140625</ele>
        <time>2015-12-19T15:17:36Z</time>
      </trkpt>
      <trkpt lat="48.08702" lon="-4.30699">
        <ele>57.335815429688</ele>
        <time>2015-12-19T15:17:43Z</time>
      </trkpt>
      <trkpt lat="48.08699" lon="-4.307">
        <ele>56.855102539062</ele>
        <time>2015-12-19T15:17:45Z</time>
      </trkpt>
      <trkpt lat="48.08697" lon="-4.30701">
        <ele>57.335815429688</ele>
        <time>2015-12-19T15:17:47Z</time>
      </trkpt>
      <trkpt lat="48.08691" lon="-4.30698">
        <ele>57.816528320312</ele>
        <time>2015-12-19T15:17:53Z</time>
      </trkpt>
      <trkpt lat="48.08687" lon="-4.307">
        <ele>59.258422851562</ele>
        <time>2015-12-19T15:17:57Z</time>
      </trkpt>
      <trkpt lat="48.08682" lon="-4.30713">
        <ele>62.142333984375</ele>
        <time>2015-12-19T15:18:04Z</time>
      </trkpt>
      <trkpt lat="48.08678" lon="-4.30719">
        <ele>63.584350585938</ele>
        <time>2015-12-19T15:18:09Z</time>
      </trkpt>
      <trkpt lat="48.08674" lon="-4.30724">
        <ele>63.103637695312</ele>
        <time>2015-12-19T15:18:13Z</time>
      </trkpt>
      <trkpt lat="48.08673" lon="-4.30725">
        <ele>63.584350585938</ele>
        <time>2015-12-19T15:18:14Z</time>
      </trkpt>
      <trkpt lat="48.08668" lon="-4.3073">
        <ele>65.507080078125</ele>
        <time>2015-12-19T15:18:18Z</time>
      </trkpt>
      <trkpt lat="48.08661" lon="-4.30735">
        <ele>65.507080078125</ele>
        <time>2015-12-19T15:18:25Z</time>
      </trkpt>
      <trkpt lat="48.08657" lon="-4.30737">
        <ele>65.987670898438</ele>
        <time>2015-12-19T15:18:28Z</time>
      </trkpt>
      <trkpt lat="48.08654" lon="-4.30741">
        <ele>66.46826171875</ele>
        <time>2015-12-19T15:18:31Z</time>
      </trkpt>
      <trkpt lat="48.08649" lon="-4.30748">
        <ele>65.507080078125</ele>
        <time>2015-12-19T15:18:36Z</time>
      </trkpt>
      <trkpt lat="48.08646" lon="-4.3075">
        <ele>65.507080078125</ele>
        <time>2015-12-19T15:18:39Z</time>
      </trkpt>
      <trkpt lat="48.08642" lon="-4.30759">
        <ele>65.0263671875</ele>
        <time>2015-12-19T15:18:45Z</time>
      </trkpt>
      <trkpt lat="48.08639" lon="-4.30762">
        <ele>65.0263671875</ele>
        <time>2015-12-19T15:18:48Z</time>
      </trkpt>
      <trkpt lat="48.08634" lon="-4.30767">
        <ele>63.584350585938</ele>
        <time>2015-12-19T15:18:53Z</time>
      </trkpt>
      <trkpt lat="48.08634" lon="-4.30769">
        <ele>63.584350585938</ele>
        <time>2015-12-19T15:18:54Z</time>
      </trkpt>
      <trkpt lat="48.08632" lon="-4.3077">
        <ele>63.584350585938</ele>
        <time>2015-12-19T15:18:56Z</time>
      </trkpt>
      <trkpt lat="48.08626" lon="-4.30778">
        <ele>64.065063476562</ele>
        <time>2015-12-19T15:19:02Z</time>
      </trkpt>
      <trkpt lat="48.08622" lon="-4.30783">
        <ele>63.584350585938</ele>
        <time>2015-12-19T15:19:06Z</time>
      </trkpt>
      <trkpt lat="48.08616" lon="-4.30789">
        <ele>61.661743164062</ele>
        <time>2015-12-19T15:19:11Z</time>
      </trkpt>
      <trkpt lat="48.08611" lon="-4.30797">
        <ele>61.181030273438</ele>
        <time>2015-12-19T15:19:17Z</time>
      </trkpt>
      <trkpt lat="48.08609" lon="-4.30798">
        <ele>61.661743164062</ele>
        <time>2015-12-19T15:19:18Z</time>
      </trkpt>
      <trkpt lat="48.08605" lon="-4.30801">
        <ele>61.661743164062</ele>
        <time>2015-12-19T15:19:21Z</time>
      </trkpt>
      <trkpt lat="48.08598" lon="-4.30806">
        <ele>61.181030273438</ele>
        <time>2015-12-19T15:19:27Z</time>
      </trkpt>
      <trkpt lat="48.08592" lon="-4.30814">
        <ele>60.2197265625</ele>
        <time>2015-12-19T15:19:33Z</time>
      </trkpt>
      <trkpt lat="48.08586" lon="-4.30819">
        <ele>59.739135742188</ele>
        <time>2015-12-19T15:19:39Z</time>
      </trkpt>
      <trkpt lat="48.08577" lon="-4.3082">
        <ele>60.700317382812</ele>
        <time>2015-12-19T15:19:46Z</time>
      </trkpt>
      <trkpt lat="48.08575" lon="-4.30823">
        <ele>60.2197265625</ele>
        <time>2015-12-19T15:19:48Z</time>
      </trkpt>
      <trkpt lat="48.08565" lon="-4.30828">
        <ele>60.700317382812</ele>
        <time>2015-12-19T15:19:56Z</time>
      </trkpt>
      <trkpt lat="48.08564" lon="-4.30828">
        <ele>60.700317382812</ele>
        <time>2015-12-19T15:19:57Z</time>
      </trkpt>
      <trkpt lat="48.08561" lon="-4.30831">
        <ele>59.739135742188</ele>
        <time>2015-12-19T15:20:00Z</time>
      </trkpt>
      <trkpt lat="48.08551" lon="-4.30834">
        <ele>57.816528320312</ele>
        <time>2015-12-19T15:20:08Z</time>
      </trkpt>
      <trkpt lat="48.08549" lon="-4.30834">
        <ele>57.816528320312</ele>
        <time>2015-12-19T15:20:09Z</time>
      </trkpt>
      <trkpt lat="48.08542" lon="-4.30832">
        <ele>58.777709960938</ele>
        <time>2015-12-19T15:20:14Z</time>
      </trkpt>
      <trkpt lat="48.08538" lon="-4.30837">
        <ele>59.739135742188</ele>
        <time>2015-12-19T15:20:18Z</time>
      </trkpt>
      <trkpt lat="48.08532" lon="-4.3084">
        <ele>61.661743164062</ele>
        <time>2015-12-19T15:20:23Z</time>
      </trkpt>
      <trkpt lat="48.08526" lon="-4.30845">
        <ele>62.622924804688</ele>
        <time>2015-12-19T15:20:27Z</time>
      </trkpt>
      <trkpt lat="48.08518" lon="-4.30852">
        <ele>63.584350585938</ele>
        <time>2015-12-19T15:20:34Z</time>
      </trkpt>
      <trkpt lat="48.08513" lon="-4.30855">
        <ele>63.584350585938</ele>
        <time>2015-12-19T15:20:39Z</time>
      </trkpt>
      <trkpt lat="48.08511" lon="-4.30857">
        <ele>63.584350585938</ele>
        <time>2015-12-19T15:20:41Z</time>
      </trkpt>
      <trkpt lat="48.08507" lon="-4.30853">
        <ele>64.065063476562</ele>
        <time>2015-12-19T15:20:46Z</time>
      </trkpt>
      <trkpt lat="48.08505" lon="-4.30844">
        <ele>65.987670898438</ele>
        <time>2015-12-19T15:20:52Z</time>
      </trkpt>
      <trkpt lat="48.08505" lon="-4.30841">
        <ele>65.987670898438</ele>
        <time>2015-12-19T15:20:54Z</time>
      </trkpt>
      <trkpt lat="48.08503" lon="-4.30837">
        <ele>66.46826171875</ele>
        <time>2015-12-19T15:20:56Z</time>
      </trkpt>
      <trkpt lat="48.08501" lon="-4.30828">
        <ele>69.832885742188</ele>
        <time>2015-12-19T15:21:02Z</time>
      </trkpt>
      <trkpt lat="48.085" lon="-4.30824">
        <ele>71.755493164062</ele>
        <time>2015-12-19T15:21:05Z</time>
      </trkpt>
      <trkpt lat="48.08499" lon="-4.3082">
        <ele>71.755493164062</ele>
        <time>2015-12-19T15:21:07Z</time>
      </trkpt>
      <trkpt lat="48.08498" lon="-4.30808">
        <ele>73.197631835938</ele>
        <time>2015-12-19T15:21:13Z</time>
      </trkpt>
      <trkpt lat="48.08498" lon="-4.30797">
        <ele>74.639526367188</ele>
        <time>2015-12-19T15:21:19Z</time>
      </trkpt>
      <trkpt lat="48.08497" lon="-4.30782">
        <ele>75.120239257812</ele>
        <time>2015-12-19T15:21:26Z</time>
      </trkpt>
      <trkpt lat="48.08496" lon="-4.30779">
        <ele>75.120239257812</ele>
        <time>2015-12-19T15:21:28Z</time>
      </trkpt>
      <trkpt lat="48.08492" lon="-4.30771">
        <ele>73.67822265625</ele>
        <time>2015-12-19T15:21:33Z</time>
      </trkpt>
      <trkpt lat="48.08491" lon="-4.30767">
        <ele>73.67822265625</ele>
        <time>2015-12-19T15:21:35Z</time>
      </trkpt>
      <trkpt lat="48.08487" lon="-4.30757">
        <ele>69.832885742188</ele>
        <time>2015-12-19T15:21:41Z</time>
      </trkpt>
      <trkpt lat="48.08481" lon="-4.30751">
        <ele>67.910278320312</ele>
        <time>2015-12-19T15:21:45Z</time>
      </trkpt>
      <trkpt lat="48.08477" lon="-4.3074">
        <ele>66.46826171875</ele>
        <time>2015-12-19T15:21:50Z</time>
      </trkpt>
      <trkpt lat="48.08476" lon="-4.30729">
        <ele>66.948974609375</ele>
        <time>2015-12-19T15:21:55Z</time>
      </trkpt>
      <trkpt lat="48.08475" lon="-4.30713">
        <ele>69.352294921875</ele>
        <time>2015-12-19T15:22:03Z</time>
      </trkpt>
      <trkpt lat="48.08473" lon="-4.30699">
        <ele>70.3134765625</ele>
        <time>2015-12-19T15:22:10Z</time>
      </trkpt>
      <trkpt lat="48.08471" lon="-4.30697">
        <ele>70.3134765625</ele>
        <time>2015-12-19T15:22:12Z</time>
      </trkpt>
      <trkpt lat="48.08467" lon="-4.30688">
        <ele>71.755493164062</ele>
        <time>2015-12-19T15:22:18Z</time>
      </trkpt>
      <trkpt lat="48.08467" lon="-4.30684">
        <ele>72.236206054688</ele>
        <time>2015-12-19T15:22:21Z</time>
      </trkpt>
      <trkpt lat="48.08465" lon="-4.30676">
        <ele>69.832885742188</ele>
        <time>2015-12-19T15:22:26Z</time>
      </trkpt>
      <trkpt lat="48.08465" lon="-4.30674">
        <ele>69.832885742188</ele>
        <time>2015-12-19T15:22:27Z</time>
      </trkpt>
      <trkpt lat="48.08465" lon="-4.30664">
        <ele>69.352294921875</ele>
        <time>2015-12-19T15:22:32Z</time>
      </trkpt>
      <trkpt lat="48.08465" lon="-4.30656">
        <ele>67.4296875</ele>
        <time>2015-12-19T15:22:37Z</time>
      </trkpt>
      <trkpt lat="48.08465" lon="-4.30653">
        <ele>66.46826171875</ele>
        <time>2015-12-19T15:22:39Z</time>
      </trkpt>
      <trkpt lat="48.08465" lon="-4.30646">
        <ele>65.987670898438</ele>
        <time>2015-12-19T15:22:46Z</time>
      </trkpt>
      <trkpt lat="48.08463" lon="-4.30635">
        <ele>66.948974609375</ele>
        <time>2015-12-19T15:22:52Z</time>
      </trkpt>
      <trkpt lat="48.0846" lon="-4.30624">
        <ele>66.948974609375</ele>
        <time>2015-12-19T15:22:58Z</time>
      </trkpt>
      <trkpt lat="48.08458" lon="-4.30608">
        <ele>66.46826171875</ele>
        <time>2015-12-19T15:23:06Z</time>
      </trkpt>
      <trkpt lat="48.08458" lon="-4.30596">
        <ele>66.46826171875</ele>
        <time>2015-12-19T15:23:12Z</time>
      </trkpt>
      <trkpt lat="48.08457" lon="-4.30586">
        <ele>65.507080078125</ele>
        <time>2015-12-19T15:23:19Z</time>
      </trkpt>
      <trkpt lat="48.08453" lon="-4.3058">
        <ele>64.545654296875</ele>
        <time>2015-12-19T15:23:26Z</time>
      </trkpt>
      <trkpt lat="48.08452" lon="-4.30575">
        <ele>66.46826171875</ele>
        <time>2015-12-19T15:23:34Z</time>
      </trkpt>
      <trkpt lat="48.08451" lon="-4.30561">
        <ele>67.910278320312</ele>
        <time>2015-12-19T15:23:42Z</time>
      </trkpt>
      <trkpt lat="48.08454" lon="-4.30548">
        <ele>67.4296875</ele>
        <time>2015-12-19T15:23:50Z</time>
      </trkpt>
      <trkpt lat="48.0846" lon="-4.30539">
        <ele>67.4296875</ele>
        <time>2015-12-19T15:23:56Z</time>
      </trkpt>
      <trkpt lat="48.08462" lon="-4.30536">
        <ele>67.4296875</ele>
        <time>2015-12-19T15:23:59Z</time>
      </trkpt>
      <trkpt lat="48.08464" lon="-4.30531">
        <ele>65.987670898438</ele>
        <time>2015-12-19T15:24:04Z</time>
      </trkpt>
      <trkpt lat="48.08466" lon="-4.30527">
        <ele>65.0263671875</ele>
        <time>2015-12-19T15:24:07Z</time>
      </trkpt>
      <trkpt lat="48.08467" lon="-4.30513">
        <ele>64.545654296875</ele>
        <time>2015-12-19T15:24:14Z</time>
      </trkpt>
      <trkpt lat="48.08467" lon="-4.30511">
        <ele>63.584350585938</ele>
        <time>2015-12-19T15:24:15Z</time>
      </trkpt>
      <trkpt lat="48.08469" lon="-4.30496">
        <ele>62.622924804688</ele>
        <time>2015-12-19T15:24:23Z</time>
      </trkpt>
      <trkpt lat="48.08471" lon="-4.30488">
        <ele>63.103637695312</ele>
        <time>2015-12-19T15:24:27Z</time>
      </trkpt>
      <trkpt lat="48.08474" lon="-4.30477">
        <ele>62.142333984375</ele>
        <time>2015-12-19T15:24:33Z</time>
      </trkpt>
      <trkpt lat="48.08477" lon="-4.30468">
        <ele>61.181030273438</ele>
        <time>2015-12-19T15:24:38Z</time>
      </trkpt>
      <trkpt lat="48.0848" lon="-4.30457">
        <ele>58.777709960938</ele>
        <time>2015-12-19T15:24:44Z</time>
      </trkpt>
      <trkpt lat="48.08483" lon="-4.30449">
        <ele>60.2197265625</ele>
        <time>2015-12-19T15:24:48Z</time>
      </trkpt>
      <trkpt lat="48.08484" lon="-4.30445">
        <ele>61.661743164062</ele>
        <time>2015-12-19T15:24:50Z</time>
      </trkpt>
      <trkpt lat="48.08487" lon="-4.30439">
        <ele>63.103637695312</ele>
        <time>2015-12-19T15:24:54Z</time>
      </trkpt>
      <trkpt lat="48.08487" lon="-4.30428">
        <ele>63.584350585938</ele>
        <time>2015-12-19T15:24:59Z</time>
      </trkpt>
      <trkpt lat="48.0849" lon="-4.30418">
        <ele>62.622924804688</ele>
        <time>2015-12-19T15:25:04Z</time>
      </trkpt>
      <trkpt lat="48.08492" lon="-4.30407">
        <ele>58.777709960938</ele>
        <time>2015-12-19T15:25:10Z</time>
      </trkpt>
      <trkpt lat="48.08494" lon="-4.30395">
        <ele>57.335815429688</ele>
        <time>2015-12-19T15:25:16Z</time>
      </trkpt>
      <trkpt lat="48.08497" lon="-4.30384">
        <ele>57.816528320312</ele>
        <time>2015-12-19T15:25:22Z</time>
      </trkpt>
      <trkpt lat="48.085" lon="-4.30371">
        <ele>58.297119140625</ele>
        <time>2015-12-19T15:25:28Z</time>
      </trkpt>
      <trkpt lat="48.08501" lon="-4.30369">
        <ele>58.777709960938</ele>
        <time>2015-12-19T15:25:29Z</time>
      </trkpt>
      <trkpt lat="48.08504" lon="-4.30356">
        <ele>60.700317382812</ele>
        <time>2015-12-19T15:25:35Z</time>
      </trkpt>
      <trkpt lat="48.08506" lon="-4.30351">
        <ele>60.2197265625</ele>
        <time>2015-12-19T15:25:38Z</time>
      </trkpt>
      <trkpt lat="48.08509" lon="-4.30337">
        <ele>59.739135742188</ele>
        <time>2015-12-19T15:25:45Z</time>
      </trkpt>
      <trkpt lat="48.08513" lon="-4.30321">
        <ele>60.700317382812</ele>
        <time>2015-12-19T15:25:53Z</time>
      </trkpt>
      <trkpt lat="48.08514" lon="-4.30308">
        <ele>61.181030273438</ele>
        <time>2015-12-19T15:25:59Z</time>
      </trkpt>
      <trkpt lat="48.08516" lon="-4.30295">
        <ele>60.2197265625</ele>
        <time>2015-12-19T15:26:06Z</time>
      </trkpt>
      <trkpt lat="48.08518" lon="-4.30282">
        <ele>59.258422851562</ele>
        <time>2015-12-19T15:26:13Z</time>
      </trkpt>
      <trkpt lat="48.08519" lon="-4.30268">
        <ele>59.258422851562</ele>
        <time>2015-12-19T15:26:20Z</time>
      </trkpt>
      <trkpt lat="48.08521" lon="-4.30252">
        <ele>62.622924804688</ele>
        <time>2015-12-19T15:26:28Z</time>
      </trkpt>
      <trkpt lat="48.08522" lon="-4.30233">
        <ele>65.507080078125</ele>
        <time>2015-12-19T15:26:37Z</time>
      </trkpt>
      <trkpt lat="48.08521" lon="-4.30219">
        <ele>64.545654296875</ele>
        <time>2015-12-19T15:26:44Z</time>
      </trkpt>
      <trkpt lat="48.0852" lon="-4.30212">
        <ele>64.065063476562</ele>
        <time>2015-12-19T15:26:47Z</time>
      </trkpt>
      <trkpt lat="48.0852" lon="-4.30204">
        <ele>63.584350585938</ele>
        <time>2015-12-19T15:26:52Z</time>
      </trkpt>
      <trkpt lat="48.08519" lon="-4.30189">
        <ele>63.584350585938</ele>
        <time>2015-12-19T15:26:58Z</time>
      </trkpt>
      <trkpt lat="48.08519" lon="-4.3018">
        <ele>64.545654296875</ele>
        <time>2015-12-19T15:27:03Z</time>
      </trkpt>
      <trkpt lat="48.08521" lon="-4.3017">
        <ele>65.0263671875</ele>
        <time>2015-12-19T15:27:08Z</time>
      </trkpt>
      <trkpt lat="48.08522" lon="-4.30164">
        <ele>66.46826171875</ele>
        <time>2015-12-19T15:27:11Z</time>
      </trkpt>
      <trkpt lat="48.08522" lon="-4.30155">
        <ele>66.46826171875</ele>
        <time>2015-12-19T15:27:15Z</time>
      </trkpt>
      <trkpt lat="48.08522" lon="-4.30153">
        <ele>65.987670898438</ele>
        <time>2015-12-19T15:27:16Z</time>
      </trkpt>
      <trkpt lat="48.08524" lon="-4.3014">
        <ele>64.065063476562</ele>
        <time>2015-12-19T15:27:22Z</time>
      </trkpt>
      <trkpt lat="48.08528" lon="-4.30125">
        <ele>64.065063476562</ele>
        <time>2015-12-19T15:27:29Z</time>
      </trkpt>
      <trkpt lat="48.0853" lon="-4.30113">
        <ele>62.622924804688</ele>
        <time>2015-12-19T15:27:35Z</time>
      </trkpt>
      <trkpt lat="48.0853" lon="-4.30111">
        <ele>62.622924804688</ele>
        <time>2015-12-19T15:27:36Z</time>
      </trkpt>
      <trkpt lat="48.08533" lon="-4.30095">
        <ele>61.181030273438</ele>
        <time>2015-12-19T15:27:44Z</time>
      </trkpt>
      <trkpt lat="48.08532" lon="-4.30085">
        <ele>61.661743164062</ele>
        <time>2015-12-19T15:27:49Z</time>
      </trkpt>
      <trkpt lat="48.08534" lon="-4.30073">
        <ele>61.661743164062</ele>
        <time>2015-12-19T15:27:54Z</time>
      </trkpt>
      <trkpt lat="48.08535" lon="-4.30065">
        <ele>62.142333984375</ele>
        <time>2015-12-19T15:27:58Z</time>
      </trkpt>
      <trkpt lat="48.08537" lon="-4.30054">
        <ele>62.622924804688</ele>
        <time>2015-12-19T15:28:04Z</time>
      </trkpt>
      <trkpt lat="48.08538" lon="-4.30048">
        <ele>64.065063476562</ele>
        <time>2015-12-19T15:28:07Z</time>
      </trkpt>
      <trkpt lat="48.0854" lon="-4.30035">
        <ele>64.545654296875</ele>
        <time>2015-12-19T15:28:14Z</time>
      </trkpt>
      <trkpt lat="48.08543" lon="-4.3002">
        <ele>64.545654296875</ele>
        <time>2015-12-19T15:28:21Z</time>
      </trkpt>
      <trkpt lat="48.08547" lon="-4.30008">
        <ele>65.0263671875</ele>
        <time>2015-12-19T15:28:28Z</time>
      </trkpt>
      <trkpt lat="48.0855" lon="-4.29993">
        <ele>64.545654296875</ele>
        <time>2015-12-19T15:28:35Z</time>
      </trkpt>
      <trkpt lat="48.08551" lon="-4.2999">
        <ele>64.065063476562</ele>
        <time>2015-12-19T15:28:37Z</time>
      </trkpt>
      <trkpt lat="48.08555" lon="-4.29972">
        <ele>65.507080078125</ele>
        <time>2015-12-19T15:28:46Z</time>
      </trkpt>
      <trkpt lat="48.08558" lon="-4.29956">
        <ele>65.987670898438</ele>
        <time>2015-12-19T15:28:54Z</time>
      </trkpt>
      <trkpt lat="48.0856" lon="-4.29939">
        <ele>67.4296875</ele>
        <time>2015-12-19T15:29:02Z</time>
      </trkpt>
      <trkpt lat="48.0856" lon="-4.29921">
        <ele>66.46826171875</ele>
        <time>2015-12-19T15:29:10Z</time>
      </trkpt>
      <trkpt lat="48.0856" lon="-4.29908">
        <ele>64.545654296875</ele>
        <time>2015-12-19T15:29:17Z</time>
      </trkpt>
      <trkpt lat="48.08557" lon="-4.29896">
        <ele>65.507080078125</ele>
        <time>2015-12-19T15:29:23Z</time>
      </trkpt>
      <trkpt lat="48.08557" lon="-4.29891">
        <ele>65.0263671875</ele>
        <time>2015-12-19T15:29:25Z</time>
      </trkpt>
      <trkpt lat="48.08556" lon="-4.2988">
        <ele>63.584350585938</ele>
        <time>2015-12-19T15:29:31Z</time>
      </trkpt>
      <trkpt lat="48.08555" lon="-4.29874">
        <ele>63.103637695312</ele>
        <time>2015-12-19T15:29:34Z</time>
      </trkpt>
      <trkpt lat="48.08554" lon="-4.29867">
        <ele>63.584350585938</ele>
        <time>2015-12-19T15:29:38Z</time>
      </trkpt>
      <trkpt lat="48.0856" lon="-4.29862">
        <ele>64.065063476562</ele>
        <time>2015-12-19T15:29:44Z</time>
      </trkpt>
      <trkpt lat="48.08569" lon="-4.29861">
        <ele>63.103637695312</ele>
        <time>2015-12-19T15:29:50Z</time>
      </trkpt>
      <trkpt lat="48.08582" lon="-4.29864">
        <ele>61.661743164062</ele>
        <time>2015-12-19T15:29:58Z</time>
      </trkpt>
      <trkpt lat="48.0859" lon="-4.29863">
        <ele>62.622924804688</ele>
        <time>2015-12-19T15:30:05Z</time>
      </trkpt>
      <trkpt lat="48.08596" lon="-4.29863">
        <ele>63.103637695312</ele>
        <time>2015-12-19T15:30:11Z</time>
      </trkpt>
      <trkpt lat="48.08604" lon="-4.29867">
        <ele>65.0263671875</ele>
        <time>2015-12-19T15:30:18Z</time>
      </trkpt>
      <trkpt lat="48.08611" lon="-4.29873">
        <ele>66.46826171875</ele>
        <time>2015-12-19T15:30:25Z</time>
      </trkpt>
      <trkpt lat="48.08614" lon="-4.29873">
        <ele>67.4296875</ele>
        <time>2015-12-19T15:30:28Z</time>
      </trkpt>
      <trkpt lat="48.08615" lon="-4.29871">
        <ele>68.390869140625</ele>
        <time>2015-12-19T15:30:32Z</time>
      </trkpt>
    </trkseg>
  </trk>
</gpx>